<?xml version="1.0" encoding="UTF-8" standalone="no" ?>
<gpx xmlns="http://www.topografix.com/GPX/1/1" xmlns:xsi="http://www.w3.org/2001/XMLSchema-instance" xsi:schemaLocation="http://www.topografix.com/GPX/1/1 http://www.topografix.com/GPX/1/1/gpx.xsd" version="1.1" creator="VisuGPX - https://www.visugpx.com">
  <metadata>
    <name>Ecluzelles - J1</name>
  </metadata>
  <trk>
    <name><![CDATA[Écluzelles Cyclisme sur route]]></name>
    <trkseg>
      <trkpt lat="48.70833" lon="1.42464">
        <ele>78.800003051758</ele>
        <time>2026-06-15T11:54:55.000Z</time>
      </trkpt>
      <trkpt lat="48.70836" lon="1.4246">
        <ele>85.199996948242</ele>
        <time>2026-06-15T11:55:15.000Z</time>
      </trkpt>
      <trkpt lat="48.70839" lon="1.42461">
        <ele>85.400001525879</ele>
        <time>2026-06-15T11:55:43.000Z</time>
      </trkpt>
      <trkpt lat="48.70843" lon="1.42476">
        <ele>85.199996948242</ele>
        <time>2026-06-15T11:55:50.000Z</time>
      </trkpt>
      <trkpt lat="48.70851" lon="1.42493">
        <ele>85</ele>
        <time>2026-06-15T11:55:58.000Z</time>
      </trkpt>
      <trkpt lat="48.70853" lon="1.42489">
        <ele>85</ele>
        <time>2026-06-15T11:56:00.000Z</time>
      </trkpt>
      <trkpt lat="48.70852" lon="1.42486">
        <ele>85.199996948242</ele>
        <time>2026-06-15T11:56:01.000Z</time>
      </trkpt>
      <trkpt lat="48.70846" lon="1.42469">
        <ele>85.199996948242</ele>
        <time>2026-06-15T11:56:09.000Z</time>
      </trkpt>
      <trkpt lat="48.70843" lon="1.42451">
        <ele>85</ele>
        <time>2026-06-15T11:56:18.000Z</time>
      </trkpt>
      <trkpt lat="48.70839" lon="1.42432">
        <ele>85.199996948242</ele>
        <time>2026-06-15T11:56:27.000Z</time>
      </trkpt>
      <trkpt lat="48.70838" lon="1.42428">
        <ele>85.400001525879</ele>
        <time>2026-06-15T11:56:29.000Z</time>
      </trkpt>
      <trkpt lat="48.70834" lon="1.42428">
        <ele>85.599998474121</ele>
        <time>2026-06-15T11:56:32.000Z</time>
      </trkpt>
      <trkpt lat="48.70834" lon="1.4243">
        <ele>85.599998474121</ele>
        <time>2026-06-15T11:56:33.000Z</time>
      </trkpt>
      <trkpt lat="48.70834" lon="1.42434">
        <ele>85.599998474121</ele>
        <time>2026-06-15T11:56:35.000Z</time>
      </trkpt>
      <trkpt lat="48.70835" lon="1.42438">
        <ele>85.599998474121</ele>
        <time>2026-06-15T11:56:37.000Z</time>
      </trkpt>
      <trkpt lat="48.70836" lon="1.42448">
        <ele>85.599998474121</ele>
        <time>2026-06-15T11:56:43.000Z</time>
      </trkpt>
      <trkpt lat="48.70838" lon="1.42457">
        <ele>85.400001525879</ele>
        <time>2026-06-15T11:56:48.000Z</time>
      </trkpt>
      <trkpt lat="48.7084" lon="1.42462">
        <ele>85.199996948242</ele>
        <time>2026-06-15T11:56:51.000Z</time>
      </trkpt>
      <trkpt lat="48.70843" lon="1.42475">
        <ele>85.199996948242</ele>
        <time>2026-06-15T11:56:57.000Z</time>
      </trkpt>
      <trkpt lat="48.70845" lon="1.4248">
        <ele>85.199996948242</ele>
        <time>2026-06-15T11:56:59.000Z</time>
      </trkpt>
      <trkpt lat="48.70855" lon="1.425">
        <ele>85.400001525879</ele>
        <time>2026-06-15T11:57:08.000Z</time>
      </trkpt>
      <trkpt lat="48.70868" lon="1.4252">
        <ele>85.800003051758</ele>
        <time>2026-06-15T11:57:18.000Z</time>
      </trkpt>
      <trkpt lat="48.70878" lon="1.4253">
        <ele>86.199996948242</ele>
        <time>2026-06-15T11:57:25.000Z</time>
      </trkpt>
      <trkpt lat="48.70881" lon="1.42535">
        <ele>86.400001525879</ele>
        <time>2026-06-15T11:57:28.000Z</time>
      </trkpt>
      <trkpt lat="48.70883" lon="1.42537">
        <ele>86.599998474121</ele>
        <time>2026-06-15T11:57:30.000Z</time>
      </trkpt>
      <trkpt lat="48.70891" lon="1.42551">
        <ele>86.800003051758</ele>
        <time>2026-06-15T11:57:38.000Z</time>
      </trkpt>
      <trkpt lat="48.70898" lon="1.42567">
        <ele>87</ele>
        <time>2026-06-15T11:57:45.000Z</time>
      </trkpt>
      <trkpt lat="48.709" lon="1.42575">
        <ele>87</ele>
        <time>2026-06-15T11:57:48.000Z</time>
      </trkpt>
      <trkpt lat="48.70902" lon="1.42585">
        <ele>87</ele>
        <time>2026-06-15T11:57:51.000Z</time>
      </trkpt>
      <trkpt lat="48.70902" lon="1.42613">
        <ele>87</ele>
        <time>2026-06-15T11:57:59.000Z</time>
      </trkpt>
      <trkpt lat="48.70902" lon="1.42642">
        <ele>86.800003051758</ele>
        <time>2026-06-15T11:58:06.000Z</time>
      </trkpt>
      <trkpt lat="48.70902" lon="1.4267">
        <ele>86.599998474121</ele>
        <time>2026-06-15T11:58:13.000Z</time>
      </trkpt>
      <trkpt lat="48.70899" lon="1.4271">
        <ele>86.599998474121</ele>
        <time>2026-06-15T11:58:23.000Z</time>
      </trkpt>
      <trkpt lat="48.70895" lon="1.42757">
        <ele>86.599998474121</ele>
        <time>2026-06-15T11:58:33.000Z</time>
      </trkpt>
      <trkpt lat="48.70891" lon="1.42805">
        <ele>86.400001525879</ele>
        <time>2026-06-15T11:58:43.000Z</time>
      </trkpt>
      <trkpt lat="48.70887" lon="1.42845">
        <ele>86.599998474121</ele>
        <time>2026-06-15T11:58:51.000Z</time>
      </trkpt>
      <trkpt lat="48.70883" lon="1.42891">
        <ele>86.599998474121</ele>
        <time>2026-06-15T11:59:00.000Z</time>
      </trkpt>
      <trkpt lat="48.70878" lon="1.42939">
        <ele>87.400001525879</ele>
        <time>2026-06-15T11:59:09.000Z</time>
      </trkpt>
      <trkpt lat="48.70877" lon="1.4295">
        <ele>87.400001525879</ele>
        <time>2026-06-15T11:59:11.000Z</time>
      </trkpt>
      <trkpt lat="48.70873" lon="1.42972">
        <ele>87.599998474121</ele>
        <time>2026-06-15T11:59:15.000Z</time>
      </trkpt>
      <trkpt lat="48.70864" lon="1.43023">
        <ele>88</ele>
        <time>2026-06-15T11:59:23.000Z</time>
      </trkpt>
      <trkpt lat="48.7085" lon="1.43095">
        <ele>87.800003051758</ele>
        <time>2026-06-15T11:59:34.000Z</time>
      </trkpt>
      <trkpt lat="48.70842" lon="1.4315">
        <ele>87.800003051758</ele>
        <time>2026-06-15T11:59:42.000Z</time>
      </trkpt>
      <trkpt lat="48.7083" lon="1.43226">
        <ele>87.800003051758</ele>
        <time>2026-06-15T11:59:53.000Z</time>
      </trkpt>
      <trkpt lat="48.70819" lon="1.43285">
        <ele>88</ele>
        <time>2026-06-15T12:00:02.000Z</time>
      </trkpt>
      <trkpt lat="48.70804" lon="1.4333">
        <ele>88</ele>
        <time>2026-06-15T12:00:09.000Z</time>
      </trkpt>
      <trkpt lat="48.70801" lon="1.43336">
        <ele>87.800003051758</ele>
        <time>2026-06-15T12:00:10.000Z</time>
      </trkpt>
      <trkpt lat="48.70798" lon="1.43342">
        <ele>87.800003051758</ele>
        <time>2026-06-15T12:00:11.000Z</time>
      </trkpt>
      <trkpt lat="48.70783" lon="1.43367">
        <ele>88.199996948242</ele>
        <time>2026-06-15T12:00:16.000Z</time>
      </trkpt>
      <trkpt lat="48.70749" lon="1.43413">
        <ele>88.400001525879</ele>
        <time>2026-06-15T12:00:25.000Z</time>
      </trkpt>
      <trkpt lat="48.70707" lon="1.43471">
        <ele>88.400001525879</ele>
        <time>2026-06-15T12:00:36.000Z</time>
      </trkpt>
      <trkpt lat="48.70703" lon="1.43477">
        <ele>88.400001525879</ele>
        <time>2026-06-15T12:00:37.000Z</time>
      </trkpt>
      <trkpt lat="48.70679" lon="1.4352">
        <ele>88.199996948242</ele>
        <time>2026-06-15T12:00:44.000Z</time>
      </trkpt>
      <trkpt lat="48.70669" lon="1.43546">
        <ele>88</ele>
        <time>2026-06-15T12:00:47.000Z</time>
      </trkpt>
      <trkpt lat="48.70661" lon="1.43569">
        <ele>88</ele>
        <time>2026-06-15T12:00:50.000Z</time>
      </trkpt>
      <trkpt lat="48.70647" lon="1.4362">
        <ele>87.800003051758</ele>
        <time>2026-06-15T12:00:57.000Z</time>
      </trkpt>
      <trkpt lat="48.70645" lon="1.43628">
        <ele>87.800003051758</ele>
        <time>2026-06-15T12:00:58.000Z</time>
      </trkpt>
      <trkpt lat="48.7063" lon="1.43697">
        <ele>88</ele>
        <time>2026-06-15T12:01:07.000Z</time>
      </trkpt>
      <trkpt lat="48.70622" lon="1.43729">
        <ele>88.199996948242</ele>
        <time>2026-06-15T12:01:11.000Z</time>
      </trkpt>
      <trkpt lat="48.70617" lon="1.43745">
        <ele>88.400001525879</ele>
        <time>2026-06-15T12:01:13.000Z</time>
      </trkpt>
      <trkpt lat="48.70602" lon="1.43789">
        <ele>89</ele>
        <time>2026-06-15T12:01:19.000Z</time>
      </trkpt>
      <trkpt lat="48.70599" lon="1.43796">
        <ele>89</ele>
        <time>2026-06-15T12:01:20.000Z</time>
      </trkpt>
      <trkpt lat="48.70588" lon="1.43835">
        <ele>89</ele>
        <time>2026-06-15T12:01:25.000Z</time>
      </trkpt>
      <trkpt lat="48.70585" lon="1.4385">
        <ele>88.800003051758</ele>
        <time>2026-06-15T12:01:27.000Z</time>
      </trkpt>
      <trkpt lat="48.70571" lon="1.43913">
        <ele>88.599998474121</ele>
        <time>2026-06-15T12:01:35.000Z</time>
      </trkpt>
      <trkpt lat="48.70563" lon="1.43958">
        <ele>88.800003051758</ele>
        <time>2026-06-15T12:01:42.000Z</time>
      </trkpt>
      <trkpt lat="48.70553" lon="1.4402">
        <ele>89</ele>
        <time>2026-06-15T12:01:49.000Z</time>
      </trkpt>
      <trkpt lat="48.70545" lon="1.44066">
        <ele>88.599998474121</ele>
        <time>2026-06-15T12:01:55.000Z</time>
      </trkpt>
      <trkpt lat="48.70542" lon="1.44082">
        <ele>88.400001525879</ele>
        <time>2026-06-15T12:01:57.000Z</time>
      </trkpt>
      <trkpt lat="48.7053" lon="1.44116">
        <ele>88.199996948242</ele>
        <time>2026-06-15T12:02:02.000Z</time>
      </trkpt>
      <trkpt lat="48.7052" lon="1.4414">
        <ele>88</ele>
        <time>2026-06-15T12:02:06.000Z</time>
      </trkpt>
      <trkpt lat="48.70515" lon="1.44152">
        <ele>87.800003051758</ele>
        <time>2026-06-15T12:02:08.000Z</time>
      </trkpt>
      <trkpt lat="48.70514" lon="1.44158">
        <ele>87.599998474121</ele>
        <time>2026-06-15T12:02:09.000Z</time>
      </trkpt>
      <trkpt lat="48.70514" lon="1.44164">
        <ele>87.599998474121</ele>
        <time>2026-06-15T12:02:10.000Z</time>
      </trkpt>
      <trkpt lat="48.70519" lon="1.44171">
        <ele>87.599998474121</ele>
        <time>2026-06-15T12:02:12.000Z</time>
      </trkpt>
      <trkpt lat="48.7053" lon="1.4417">
        <ele>87.599998474121</ele>
        <time>2026-06-15T12:02:14.000Z</time>
      </trkpt>
      <trkpt lat="48.70536" lon="1.44168">
        <ele>87.800003051758</ele>
        <time>2026-06-15T12:02:15.000Z</time>
      </trkpt>
      <trkpt lat="48.7057" lon="1.44148">
        <ele>88</ele>
        <time>2026-06-15T12:02:21.000Z</time>
      </trkpt>
      <trkpt lat="48.70623" lon="1.4412">
        <ele>88.400001525879</ele>
        <time>2026-06-15T12:02:30.000Z</time>
      </trkpt>
      <trkpt lat="48.70635" lon="1.44116">
        <ele>88.400001525879</ele>
        <time>2026-06-15T12:02:32.000Z</time>
      </trkpt>
      <trkpt lat="48.70688" lon="1.44095">
        <ele>88.599998474121</ele>
        <time>2026-06-15T12:02:41.000Z</time>
      </trkpt>
      <trkpt lat="48.7074" lon="1.44062">
        <ele>88.599998474121</ele>
        <time>2026-06-15T12:02:50.000Z</time>
      </trkpt>
      <trkpt lat="48.70778" lon="1.4403">
        <ele>88.199996948242</ele>
        <time>2026-06-15T12:02:57.000Z</time>
      </trkpt>
      <trkpt lat="48.70828" lon="1.43987">
        <ele>88.199996948242</ele>
        <time>2026-06-15T12:03:06.000Z</time>
      </trkpt>
      <trkpt lat="48.70879" lon="1.43944">
        <ele>88</ele>
        <time>2026-06-15T12:03:15.000Z</time>
      </trkpt>
      <trkpt lat="48.70927" lon="1.43901">
        <ele>88.400001525879</ele>
        <time>2026-06-15T12:03:24.000Z</time>
      </trkpt>
      <trkpt lat="48.70978" lon="1.43856">
        <ele>88.400001525879</ele>
        <time>2026-06-15T12:03:33.000Z</time>
      </trkpt>
      <trkpt lat="48.70989" lon="1.43847">
        <ele>88.599998474121</ele>
        <time>2026-06-15T12:03:35.000Z</time>
      </trkpt>
      <trkpt lat="48.71041" lon="1.43804">
        <ele>88.800003051758</ele>
        <time>2026-06-15T12:03:44.000Z</time>
      </trkpt>
      <trkpt lat="48.71081" lon="1.4378">
        <ele>88.599998474121</ele>
        <time>2026-06-15T12:03:51.000Z</time>
      </trkpt>
      <trkpt lat="48.71135" lon="1.43749">
        <ele>88.599998474121</ele>
        <time>2026-06-15T12:04:00.000Z</time>
      </trkpt>
      <trkpt lat="48.71169" lon="1.43723">
        <ele>88.599998474121</ele>
        <time>2026-06-15T12:04:06.000Z</time>
      </trkpt>
      <trkpt lat="48.7122" lon="1.43673">
        <ele>88.400001525879</ele>
        <time>2026-06-15T12:04:15.000Z</time>
      </trkpt>
      <trkpt lat="48.71265" lon="1.43626">
        <ele>87.800003051758</ele>
        <time>2026-06-15T12:04:23.000Z</time>
      </trkpt>
      <trkpt lat="48.71271" lon="1.43621">
        <ele>87.800003051758</ele>
        <time>2026-06-15T12:04:24.000Z</time>
      </trkpt>
      <trkpt lat="48.71323" lon="1.43576">
        <ele>88</ele>
        <time>2026-06-15T12:04:33.000Z</time>
      </trkpt>
      <trkpt lat="48.71368" lon="1.43543">
        <ele>88.199996948242</ele>
        <time>2026-06-15T12:04:41.000Z</time>
      </trkpt>
      <trkpt lat="48.71423" lon="1.43515">
        <ele>88.199996948242</ele>
        <time>2026-06-15T12:04:49.000Z</time>
      </trkpt>
      <trkpt lat="48.7143" lon="1.43512">
        <ele>88.199996948242</ele>
        <time>2026-06-15T12:04:50.000Z</time>
      </trkpt>
      <trkpt lat="48.71482" lon="1.43489">
        <ele>88</ele>
        <time>2026-06-15T12:04:58.000Z</time>
      </trkpt>
      <trkpt lat="48.71488" lon="1.43486">
        <ele>88</ele>
        <time>2026-06-15T12:04:59.000Z</time>
      </trkpt>
      <trkpt lat="48.71535" lon="1.43453">
        <ele>87.800003051758</ele>
        <time>2026-06-15T12:05:07.000Z</time>
      </trkpt>
      <trkpt lat="48.71577" lon="1.43404">
        <ele>87.400001525879</ele>
        <time>2026-06-15T12:05:15.000Z</time>
      </trkpt>
      <trkpt lat="48.71618" lon="1.43358">
        <ele>87.400001525879</ele>
        <time>2026-06-15T12:05:23.000Z</time>
      </trkpt>
      <trkpt lat="48.71652" lon="1.43337">
        <ele>87.599998474121</ele>
        <time>2026-06-15T12:05:29.000Z</time>
      </trkpt>
      <trkpt lat="48.71684" lon="1.43315">
        <ele>88.400001525879</ele>
        <time>2026-06-15T12:05:35.000Z</time>
      </trkpt>
      <trkpt lat="48.71694" lon="1.43306">
        <ele>88.599998474121</ele>
        <time>2026-06-15T12:05:37.000Z</time>
      </trkpt>
      <trkpt lat="48.71716" lon="1.43278">
        <ele>88.800003051758</ele>
        <time>2026-06-15T12:05:42.000Z</time>
      </trkpt>
      <trkpt lat="48.71746" lon="1.43238">
        <ele>89.400001525879</ele>
        <time>2026-06-15T12:05:49.000Z</time>
      </trkpt>
      <trkpt lat="48.71767" lon="1.43207">
        <ele>89.599998474121</ele>
        <time>2026-06-15T12:05:54.000Z</time>
      </trkpt>
      <trkpt lat="48.71806" lon="1.43142">
        <ele>89.800003051758</ele>
        <time>2026-06-15T12:06:03.000Z</time>
      </trkpt>
      <trkpt lat="48.71843" lon="1.43081">
        <ele>88.800003051758</ele>
        <time>2026-06-15T12:06:11.000Z</time>
      </trkpt>
      <trkpt lat="48.71851" lon="1.4307">
        <ele>88.599998474121</ele>
        <time>2026-06-15T12:06:13.000Z</time>
      </trkpt>
      <trkpt lat="48.71869" lon="1.43047">
        <ele>88.400001525879</ele>
        <time>2026-06-15T12:06:16.000Z</time>
      </trkpt>
      <trkpt lat="48.71902" lon="1.43008">
        <ele>88.199996948242</ele>
        <time>2026-06-15T12:06:22.000Z</time>
      </trkpt>
      <trkpt lat="48.71949" lon="1.42956">
        <ele>88</ele>
        <time>2026-06-15T12:06:31.000Z</time>
      </trkpt>
      <trkpt lat="48.71954" lon="1.42951">
        <ele>88</ele>
        <time>2026-06-15T12:06:32.000Z</time>
      </trkpt>
      <trkpt lat="48.71999" lon="1.42899">
        <ele>88.199996948242</ele>
        <time>2026-06-15T12:06:41.000Z</time>
      </trkpt>
      <trkpt lat="48.72008" lon="1.42888">
        <ele>88.199996948242</ele>
        <time>2026-06-15T12:06:43.000Z</time>
      </trkpt>
      <trkpt lat="48.72052" lon="1.42836">
        <ele>88.199996948242</ele>
        <time>2026-06-15T12:06:52.000Z</time>
      </trkpt>
      <trkpt lat="48.72067" lon="1.42817">
        <ele>88.199996948242</ele>
        <time>2026-06-15T12:06:55.000Z</time>
      </trkpt>
      <trkpt lat="48.72112" lon="1.42761">
        <ele>88</ele>
        <time>2026-06-15T12:07:04.000Z</time>
      </trkpt>
      <trkpt lat="48.72122" lon="1.42749">
        <ele>88</ele>
        <time>2026-06-15T12:07:06.000Z</time>
      </trkpt>
      <trkpt lat="48.72161" lon="1.42699">
        <ele>87.800003051758</ele>
        <time>2026-06-15T12:07:14.000Z</time>
      </trkpt>
      <trkpt lat="48.72199" lon="1.4266">
        <ele>88.400001525879</ele>
        <time>2026-06-15T12:07:22.000Z</time>
      </trkpt>
      <trkpt lat="48.72238" lon="1.42624">
        <ele>89.199996948242</ele>
        <time>2026-06-15T12:07:31.000Z</time>
      </trkpt>
      <trkpt lat="48.72255" lon="1.42607">
        <ele>89.400001525879</ele>
        <time>2026-06-15T12:07:35.000Z</time>
      </trkpt>
      <trkpt lat="48.72265" lon="1.42595">
        <ele>89.800003051758</ele>
        <time>2026-06-15T12:07:38.000Z</time>
      </trkpt>
      <trkpt lat="48.72282" lon="1.42578">
        <ele>90.199996948242</ele>
        <time>2026-06-15T12:07:42.000Z</time>
      </trkpt>
      <trkpt lat="48.72292" lon="1.42564">
        <ele>90.400001525879</ele>
        <time>2026-06-15T12:07:45.000Z</time>
      </trkpt>
      <trkpt lat="48.72302" lon="1.42549">
        <ele>90.400001525879</ele>
        <time>2026-06-15T12:07:47.000Z</time>
      </trkpt>
      <trkpt lat="48.72325" lon="1.42517">
        <ele>90.599998474121</ele>
        <time>2026-06-15T12:07:52.000Z</time>
      </trkpt>
      <trkpt lat="48.72355" lon="1.42473">
        <ele>90.199996948242</ele>
        <time>2026-06-15T12:07:59.000Z</time>
      </trkpt>
      <trkpt lat="48.72364" lon="1.4246">
        <ele>90.199996948242</ele>
        <time>2026-06-15T12:08:01.000Z</time>
      </trkpt>
      <trkpt lat="48.72377" lon="1.42439">
        <ele>90</ele>
        <time>2026-06-15T12:08:04.000Z</time>
      </trkpt>
      <trkpt lat="48.72388" lon="1.4243">
        <ele>89.599998474121</ele>
        <time>2026-06-15T12:08:06.000Z</time>
      </trkpt>
      <trkpt lat="48.72395" lon="1.42427">
        <ele>89.599998474121</ele>
        <time>2026-06-15T12:08:07.000Z</time>
      </trkpt>
      <trkpt lat="48.72426" lon="1.42423">
        <ele>89.599998474121</ele>
        <time>2026-06-15T12:08:12.000Z</time>
      </trkpt>
      <trkpt lat="48.72437" lon="1.4242">
        <ele>89.599998474121</ele>
        <time>2026-06-15T12:08:14.000Z</time>
      </trkpt>
      <trkpt lat="48.72452" lon="1.42411">
        <ele>90.199996948242</ele>
        <time>2026-06-15T12:08:17.000Z</time>
      </trkpt>
      <trkpt lat="48.72462" lon="1.42406">
        <ele>90.400001525879</ele>
        <time>2026-06-15T12:08:19.000Z</time>
      </trkpt>
      <trkpt lat="48.72471" lon="1.424">
        <ele>90.599998474121</ele>
        <time>2026-06-15T12:08:21.000Z</time>
      </trkpt>
      <trkpt lat="48.72475" lon="1.42396">
        <ele>90.599998474121</ele>
        <time>2026-06-15T12:08:22.000Z</time>
      </trkpt>
      <trkpt lat="48.72479" lon="1.42391">
        <ele>90.599998474121</ele>
        <time>2026-06-15T12:08:23.000Z</time>
      </trkpt>
      <trkpt lat="48.72491" lon="1.42367">
        <ele>91</ele>
        <time>2026-06-15T12:08:27.000Z</time>
      </trkpt>
      <trkpt lat="48.72517" lon="1.42324">
        <ele>91.199996948242</ele>
        <time>2026-06-15T12:08:34.000Z</time>
      </trkpt>
      <trkpt lat="48.72544" lon="1.42288">
        <ele>91.199996948242</ele>
        <time>2026-06-15T12:08:40.000Z</time>
      </trkpt>
      <trkpt lat="48.72582" lon="1.42246">
        <ele>90.800003051758</ele>
        <time>2026-06-15T12:08:47.000Z</time>
      </trkpt>
      <trkpt lat="48.72622" lon="1.42212">
        <ele>90.400001525879</ele>
        <time>2026-06-15T12:08:54.000Z</time>
      </trkpt>
      <trkpt lat="48.72674" lon="1.42183">
        <ele>90</ele>
        <time>2026-06-15T12:09:02.000Z</time>
      </trkpt>
      <trkpt lat="48.72692" lon="1.42173">
        <ele>90</ele>
        <time>2026-06-15T12:09:05.000Z</time>
      </trkpt>
      <trkpt lat="48.72743" lon="1.42141">
        <ele>90</ele>
        <time>2026-06-15T12:09:14.000Z</time>
      </trkpt>
      <trkpt lat="48.72793" lon="1.4211">
        <ele>90.199996948242</ele>
        <time>2026-06-15T12:09:22.000Z</time>
      </trkpt>
      <trkpt lat="48.728" lon="1.42107">
        <ele>90.199996948242</ele>
        <time>2026-06-15T12:09:23.000Z</time>
      </trkpt>
      <trkpt lat="48.72857" lon="1.42087">
        <ele>90.599998474121</ele>
        <time>2026-06-15T12:09:33.000Z</time>
      </trkpt>
      <trkpt lat="48.72894" lon="1.42074">
        <ele>91</ele>
        <time>2026-06-15T12:09:40.000Z</time>
      </trkpt>
      <trkpt lat="48.72915" lon="1.42065">
        <ele>91.800003051758</ele>
        <time>2026-06-15T12:09:44.000Z</time>
      </trkpt>
      <trkpt lat="48.72936" lon="1.42051">
        <ele>91.800003051758</ele>
        <time>2026-06-15T12:09:48.000Z</time>
      </trkpt>
      <trkpt lat="48.7298" lon="1.42023">
        <ele>92</ele>
        <time>2026-06-15T12:09:56.000Z</time>
      </trkpt>
      <trkpt lat="48.73024" lon="1.42001">
        <ele>92</ele>
        <time>2026-06-15T12:10:03.000Z</time>
      </trkpt>
      <trkpt lat="48.73079" lon="1.41974">
        <ele>91.400001525879</ele>
        <time>2026-06-15T12:10:12.000Z</time>
      </trkpt>
      <trkpt lat="48.73085" lon="1.4197">
        <ele>91.400001525879</ele>
        <time>2026-06-15T12:10:13.000Z</time>
      </trkpt>
      <trkpt lat="48.73141" lon="1.41944">
        <ele>90.800003051758</ele>
        <time>2026-06-15T12:10:22.000Z</time>
      </trkpt>
      <trkpt lat="48.73154" lon="1.41937">
        <ele>90.800003051758</ele>
        <time>2026-06-15T12:10:24.000Z</time>
      </trkpt>
      <trkpt lat="48.7318" lon="1.41924">
        <ele>90.599998474121</ele>
        <time>2026-06-15T12:10:28.000Z</time>
      </trkpt>
      <trkpt lat="48.73195" lon="1.41919">
        <ele>90.400001525879</ele>
        <time>2026-06-15T12:10:30.000Z</time>
      </trkpt>
      <trkpt lat="48.73233" lon="1.41907">
        <ele>90</ele>
        <time>2026-06-15T12:10:35.000Z</time>
      </trkpt>
      <trkpt lat="48.73259" lon="1.41894">
        <ele>89.599998474121</ele>
        <time>2026-06-15T12:10:39.000Z</time>
      </trkpt>
      <trkpt lat="48.73265" lon="1.41889">
        <ele>89.400001525879</ele>
        <time>2026-06-15T12:10:40.000Z</time>
      </trkpt>
      <trkpt lat="48.73299" lon="1.41858">
        <ele>89.199996948242</ele>
        <time>2026-06-15T12:10:46.000Z</time>
      </trkpt>
      <trkpt lat="48.73319" lon="1.41841">
        <ele>89</ele>
        <time>2026-06-15T12:10:49.000Z</time>
      </trkpt>
      <trkpt lat="48.73333" lon="1.41834">
        <ele>88.800003051758</ele>
        <time>2026-06-15T12:10:51.000Z</time>
      </trkpt>
      <trkpt lat="48.7334" lon="1.41831">
        <ele>88.400001525879</ele>
        <time>2026-06-15T12:10:52.000Z</time>
      </trkpt>
      <trkpt lat="48.73382" lon="1.41812">
        <ele>87.599998474121</ele>
        <time>2026-06-15T12:10:58.000Z</time>
      </trkpt>
      <trkpt lat="48.73409" lon="1.41801">
        <ele>87.400001525879</ele>
        <time>2026-06-15T12:11:02.000Z</time>
      </trkpt>
      <trkpt lat="48.73428" lon="1.41794">
        <ele>87.199996948242</ele>
        <time>2026-06-15T12:11:05.000Z</time>
      </trkpt>
      <trkpt lat="48.73439" lon="1.41788">
        <ele>87</ele>
        <time>2026-06-15T12:11:07.000Z</time>
      </trkpt>
      <trkpt lat="48.73456" lon="1.41779">
        <ele>87</ele>
        <time>2026-06-15T12:11:10.000Z</time>
      </trkpt>
      <trkpt lat="48.73494" lon="1.41764">
        <ele>87</ele>
        <time>2026-06-15T12:11:16.000Z</time>
      </trkpt>
      <trkpt lat="48.7355" lon="1.41742">
        <ele>86.800003051758</ele>
        <time>2026-06-15T12:11:25.000Z</time>
      </trkpt>
      <trkpt lat="48.73579" lon="1.41732">
        <ele>86.800003051758</ele>
        <time>2026-06-15T12:11:30.000Z</time>
      </trkpt>
      <trkpt lat="48.73597" lon="1.41727">
        <ele>86.800003051758</ele>
        <time>2026-06-15T12:11:33.000Z</time>
      </trkpt>
      <trkpt lat="48.73603" lon="1.41727">
        <ele>86.800003051758</ele>
        <time>2026-06-15T12:11:34.000Z</time>
      </trkpt>
      <trkpt lat="48.73609" lon="1.41728">
        <ele>86.800003051758</ele>
        <time>2026-06-15T12:11:35.000Z</time>
      </trkpt>
      <trkpt lat="48.73646" lon="1.41732">
        <ele>86.800003051758</ele>
        <time>2026-06-15T12:11:41.000Z</time>
      </trkpt>
      <trkpt lat="48.73701" lon="1.41739">
        <ele>87</ele>
        <time>2026-06-15T12:11:50.000Z</time>
      </trkpt>
      <trkpt lat="48.73737" lon="1.41748">
        <ele>87</ele>
        <time>2026-06-15T12:11:56.000Z</time>
      </trkpt>
      <trkpt lat="48.73771" lon="1.41747">
        <ele>87</ele>
        <time>2026-06-15T12:12:02.000Z</time>
      </trkpt>
      <trkpt lat="48.73782" lon="1.41748">
        <ele>87</ele>
        <time>2026-06-15T12:12:04.000Z</time>
      </trkpt>
      <trkpt lat="48.738" lon="1.41754">
        <ele>86.800003051758</ele>
        <time>2026-06-15T12:12:07.000Z</time>
      </trkpt>
      <trkpt lat="48.7384" lon="1.41769">
        <ele>86.800003051758</ele>
        <time>2026-06-15T12:12:14.000Z</time>
      </trkpt>
      <trkpt lat="48.73849" lon="1.41773">
        <ele>86.599998474121</ele>
        <time>2026-06-15T12:12:15.000Z</time>
      </trkpt>
      <trkpt lat="48.73896" lon="1.41791">
        <ele>87</ele>
        <time>2026-06-15T12:12:23.000Z</time>
      </trkpt>
      <trkpt lat="48.73944" lon="1.41802">
        <ele>86.800003051758</ele>
        <time>2026-06-15T12:12:31.000Z</time>
      </trkpt>
      <trkpt lat="48.73995" lon="1.41796">
        <ele>86.800003051758</ele>
        <time>2026-06-15T12:12:39.000Z</time>
      </trkpt>
      <trkpt lat="48.74032" lon="1.41791">
        <ele>86.800003051758</ele>
        <time>2026-06-15T12:12:45.000Z</time>
      </trkpt>
      <trkpt lat="48.74051" lon="1.41789">
        <ele>86.599998474121</ele>
        <time>2026-06-15T12:12:48.000Z</time>
      </trkpt>
      <trkpt lat="48.74064" lon="1.41788">
        <ele>86.599998474121</ele>
        <time>2026-06-15T12:12:50.000Z</time>
      </trkpt>
      <trkpt lat="48.7409" lon="1.41792">
        <ele>86.599998474121</ele>
        <time>2026-06-15T12:12:54.000Z</time>
      </trkpt>
      <trkpt lat="48.74128" lon="1.41811">
        <ele>86.400001525879</ele>
        <time>2026-06-15T12:13:00.000Z</time>
      </trkpt>
      <trkpt lat="48.74184" lon="1.41836">
        <ele>86</ele>
        <time>2026-06-15T12:13:09.000Z</time>
      </trkpt>
      <trkpt lat="48.74239" lon="1.41853">
        <ele>86.199996948242</ele>
        <time>2026-06-15T12:13:18.000Z</time>
      </trkpt>
      <trkpt lat="48.74245" lon="1.41855">
        <ele>86.199996948242</ele>
        <time>2026-06-15T12:13:19.000Z</time>
      </trkpt>
      <trkpt lat="48.74289" lon="1.4186">
        <ele>86.400001525879</ele>
        <time>2026-06-15T12:13:26.000Z</time>
      </trkpt>
      <trkpt lat="48.74309" lon="1.41861">
        <ele>86.400001525879</ele>
        <time>2026-06-15T12:13:29.000Z</time>
      </trkpt>
      <trkpt lat="48.74328" lon="1.41861">
        <ele>86.400001525879</ele>
        <time>2026-06-15T12:13:32.000Z</time>
      </trkpt>
      <trkpt lat="48.7438" lon="1.41858">
        <ele>86.400001525879</ele>
        <time>2026-06-15T12:13:40.000Z</time>
      </trkpt>
      <trkpt lat="48.74387" lon="1.41857">
        <ele>86.400001525879</ele>
        <time>2026-06-15T12:13:42.000Z</time>
      </trkpt>
      <trkpt lat="48.74431" lon="1.41854">
        <ele>86.199996948242</ele>
        <time>2026-06-15T12:13:48.000Z</time>
      </trkpt>
      <trkpt lat="48.74488" lon="1.41847">
        <ele>86.400001525879</ele>
        <time>2026-06-15T12:13:57.000Z</time>
      </trkpt>
      <trkpt lat="48.74531" lon="1.41851">
        <ele>86.599998474121</ele>
        <time>2026-06-15T12:14:04.000Z</time>
      </trkpt>
      <trkpt lat="48.74536" lon="1.41853">
        <ele>86.599998474121</ele>
        <time>2026-06-15T12:14:05.000Z</time>
      </trkpt>
      <trkpt lat="48.74541" lon="1.41857">
        <ele>86.800003051758</ele>
        <time>2026-06-15T12:14:06.000Z</time>
      </trkpt>
      <trkpt lat="48.74553" lon="1.41869">
        <ele>87</ele>
        <time>2026-06-15T12:14:09.000Z</time>
      </trkpt>
      <trkpt lat="48.7457" lon="1.41889">
        <ele>87.599998474121</ele>
        <time>2026-06-15T12:14:14.000Z</time>
      </trkpt>
      <trkpt lat="48.74574" lon="1.41893">
        <ele>87.800003051758</ele>
        <time>2026-06-15T12:14:15.000Z</time>
      </trkpt>
      <trkpt lat="48.7459" lon="1.41902">
        <ele>89</ele>
        <time>2026-06-15T12:14:19.000Z</time>
      </trkpt>
      <trkpt lat="48.74604" lon="1.41907">
        <ele>90.400001525879</ele>
        <time>2026-06-15T12:14:23.000Z</time>
      </trkpt>
      <trkpt lat="48.74608" lon="1.41908">
        <ele>90.800003051758</ele>
        <time>2026-06-15T12:14:24.000Z</time>
      </trkpt>
      <trkpt lat="48.74615" lon="1.41908">
        <ele>91</ele>
        <time>2026-06-15T12:14:26.000Z</time>
      </trkpt>
      <trkpt lat="48.74618" lon="1.41908">
        <ele>91.400001525879</ele>
        <time>2026-06-15T12:14:27.000Z</time>
      </trkpt>
      <trkpt lat="48.74633" lon="1.41904">
        <ele>92.199996948242</ele>
        <time>2026-06-15T12:14:32.000Z</time>
      </trkpt>
      <trkpt lat="48.74636" lon="1.41906">
        <ele>92.400001525879</ele>
        <time>2026-06-15T12:14:33.000Z</time>
      </trkpt>
      <trkpt lat="48.7464" lon="1.41915">
        <ele>92.800003051758</ele>
        <time>2026-06-15T12:14:35.000Z</time>
      </trkpt>
      <trkpt lat="48.74638" lon="1.41935">
        <ele>93.199996948242</ele>
        <time>2026-06-15T12:14:39.000Z</time>
      </trkpt>
      <trkpt lat="48.74636" lon="1.41945">
        <ele>93.599998474121</ele>
        <time>2026-06-15T12:14:41.000Z</time>
      </trkpt>
      <trkpt lat="48.74631" lon="1.41965">
        <ele>94.400001525879</ele>
        <time>2026-06-15T12:14:45.000Z</time>
      </trkpt>
      <trkpt lat="48.74629" lon="1.4197">
        <ele>94.599998474121</ele>
        <time>2026-06-15T12:14:46.000Z</time>
      </trkpt>
      <trkpt lat="48.74621" lon="1.41985">
        <ele>95</ele>
        <time>2026-06-15T12:14:49.000Z</time>
      </trkpt>
      <trkpt lat="48.74618" lon="1.4199">
        <ele>95</ele>
        <time>2026-06-15T12:14:50.000Z</time>
      </trkpt>
      <trkpt lat="48.74614" lon="1.41995">
        <ele>95.199996948242</ele>
        <time>2026-06-15T12:14:51.000Z</time>
      </trkpt>
      <trkpt lat="48.74598" lon="1.42019">
        <ele>95.599998474121</ele>
        <time>2026-06-15T12:14:56.000Z</time>
      </trkpt>
      <trkpt lat="48.74595" lon="1.42024">
        <ele>95.800003051758</ele>
        <time>2026-06-15T12:14:57.000Z</time>
      </trkpt>
      <trkpt lat="48.74582" lon="1.42044">
        <ele>96.199996948242</ele>
        <time>2026-06-15T12:15:01.000Z</time>
      </trkpt>
      <trkpt lat="48.74574" lon="1.42054">
        <ele>96.400001525879</ele>
        <time>2026-06-15T12:15:03.000Z</time>
      </trkpt>
      <trkpt lat="48.74569" lon="1.42066">
        <ele>96.800003051758</ele>
        <time>2026-06-15T12:15:05.000Z</time>
      </trkpt>
      <trkpt lat="48.74558" lon="1.42088">
        <ele>97.199996948242</ele>
        <time>2026-06-15T12:15:09.000Z</time>
      </trkpt>
      <trkpt lat="48.74551" lon="1.42098">
        <ele>97.599998474121</ele>
        <time>2026-06-15T12:15:11.000Z</time>
      </trkpt>
      <trkpt lat="48.74548" lon="1.42102">
        <ele>97.800003051758</ele>
        <time>2026-06-15T12:15:12.000Z</time>
      </trkpt>
      <trkpt lat="48.74526" lon="1.42135">
        <ele>99</ele>
        <time>2026-06-15T12:15:19.000Z</time>
      </trkpt>
      <trkpt lat="48.74507" lon="1.4217">
        <ele>100</ele>
        <time>2026-06-15T12:15:26.000Z</time>
      </trkpt>
      <trkpt lat="48.74505" lon="1.42174">
        <ele>100</ele>
        <time>2026-06-15T12:15:27.000Z</time>
      </trkpt>
      <trkpt lat="48.74489" lon="1.42206">
        <ele>100.80000305176</ele>
        <time>2026-06-15T12:15:34.000Z</time>
      </trkpt>
      <trkpt lat="48.74486" lon="1.42217">
        <ele>101</ele>
        <time>2026-06-15T12:15:36.000Z</time>
      </trkpt>
      <trkpt lat="48.74482" lon="1.42229">
        <ele>101.19999694824</ele>
        <time>2026-06-15T12:15:38.000Z</time>
      </trkpt>
      <trkpt lat="48.74477" lon="1.42252">
        <ele>101.59999847412</ele>
        <time>2026-06-15T12:15:42.000Z</time>
      </trkpt>
      <trkpt lat="48.74475" lon="1.42264">
        <ele>102</ele>
        <time>2026-06-15T12:15:44.000Z</time>
      </trkpt>
      <trkpt lat="48.74473" lon="1.42276">
        <ele>102.59999847412</ele>
        <time>2026-06-15T12:15:46.000Z</time>
      </trkpt>
      <trkpt lat="48.74468" lon="1.423">
        <ele>103.19999694824</ele>
        <time>2026-06-15T12:15:50.000Z</time>
      </trkpt>
      <trkpt lat="48.74464" lon="1.42331">
        <ele>104.19999694824</ele>
        <time>2026-06-15T12:15:55.000Z</time>
      </trkpt>
      <trkpt lat="48.74463" lon="1.42337">
        <ele>104.40000152588</ele>
        <time>2026-06-15T12:15:56.000Z</time>
      </trkpt>
      <trkpt lat="48.74462" lon="1.42356">
        <ele>105</ele>
        <time>2026-06-15T12:15:59.000Z</time>
      </trkpt>
      <trkpt lat="48.74461" lon="1.42382">
        <ele>105.59999847412</ele>
        <time>2026-06-15T12:16:03.000Z</time>
      </trkpt>
      <trkpt lat="48.74459" lon="1.42413">
        <ele>106.40000152588</ele>
        <time>2026-06-15T12:16:08.000Z</time>
      </trkpt>
      <trkpt lat="48.74459" lon="1.4242">
        <ele>106.59999847412</ele>
        <time>2026-06-15T12:16:09.000Z</time>
      </trkpt>
      <trkpt lat="48.74461" lon="1.42453">
        <ele>107.59999847412</ele>
        <time>2026-06-15T12:16:14.000Z</time>
      </trkpt>
      <trkpt lat="48.74463" lon="1.42472">
        <ele>108</ele>
        <time>2026-06-15T12:16:17.000Z</time>
      </trkpt>
      <trkpt lat="48.74466" lon="1.42493">
        <ele>108.80000305176</ele>
        <time>2026-06-15T12:16:20.000Z</time>
      </trkpt>
      <trkpt lat="48.74471" lon="1.42526">
        <ele>109.59999847412</ele>
        <time>2026-06-15T12:16:25.000Z</time>
      </trkpt>
      <trkpt lat="48.74476" lon="1.42551">
        <ele>110</ele>
        <time>2026-06-15T12:16:29.000Z</time>
      </trkpt>
      <trkpt lat="48.74483" lon="1.42573">
        <ele>110.59999847412</ele>
        <time>2026-06-15T12:16:33.000Z</time>
      </trkpt>
      <trkpt lat="48.74488" lon="1.42589">
        <ele>111</ele>
        <time>2026-06-15T12:16:36.000Z</time>
      </trkpt>
      <trkpt lat="48.74488" lon="1.42595">
        <ele>111</ele>
        <time>2026-06-15T12:16:37.000Z</time>
      </trkpt>
      <trkpt lat="48.74488" lon="1.42601">
        <ele>111</ele>
        <time>2026-06-15T12:16:38.000Z</time>
      </trkpt>
      <trkpt lat="48.74487" lon="1.42608">
        <ele>111.19999694824</ele>
        <time>2026-06-15T12:16:39.000Z</time>
      </trkpt>
      <trkpt lat="48.74485" lon="1.42614">
        <ele>111.40000152588</ele>
        <time>2026-06-15T12:16:40.000Z</time>
      </trkpt>
      <trkpt lat="48.74478" lon="1.42644">
        <ele>111.80000305176</ele>
        <time>2026-06-15T12:16:44.000Z</time>
      </trkpt>
      <trkpt lat="48.74474" lon="1.42661">
        <ele>111.59999847412</ele>
        <time>2026-06-15T12:16:46.000Z</time>
      </trkpt>
      <trkpt lat="48.74468" lon="1.4269">
        <ele>111.59999847412</ele>
        <time>2026-06-15T12:16:49.000Z</time>
      </trkpt>
      <trkpt lat="48.74456" lon="1.4274">
        <ele>111.19999694824</ele>
        <time>2026-06-15T12:16:55.000Z</time>
      </trkpt>
      <trkpt lat="48.74451" lon="1.42759">
        <ele>111.19999694824</ele>
        <time>2026-06-15T12:16:58.000Z</time>
      </trkpt>
      <trkpt lat="48.74448" lon="1.42778">
        <ele>111.40000152588</ele>
        <time>2026-06-15T12:17:01.000Z</time>
      </trkpt>
      <trkpt lat="48.74444" lon="1.42808">
        <ele>112.40000152588</ele>
        <time>2026-06-15T12:17:06.000Z</time>
      </trkpt>
      <trkpt lat="48.74443" lon="1.42821">
        <ele>113</ele>
        <time>2026-06-15T12:17:08.000Z</time>
      </trkpt>
      <trkpt lat="48.74441" lon="1.42836">
        <ele>113.59999847412</ele>
        <time>2026-06-15T12:17:11.000Z</time>
      </trkpt>
      <trkpt lat="48.74439" lon="1.42867">
        <ele>114.80000305176</ele>
        <time>2026-06-15T12:17:16.000Z</time>
      </trkpt>
      <trkpt lat="48.74439" lon="1.42884">
        <ele>115.40000152588</ele>
        <time>2026-06-15T12:17:19.000Z</time>
      </trkpt>
      <trkpt lat="48.74438" lon="1.42907">
        <ele>116</ele>
        <time>2026-06-15T12:17:23.000Z</time>
      </trkpt>
      <trkpt lat="48.74437" lon="1.42934">
        <ele>117.19999694824</ele>
        <time>2026-06-15T12:17:28.000Z</time>
      </trkpt>
      <trkpt lat="48.74436" lon="1.42939">
        <ele>117.40000152588</ele>
        <time>2026-06-15T12:17:29.000Z</time>
      </trkpt>
      <trkpt lat="48.74435" lon="1.42965">
        <ele>118.40000152588</ele>
        <time>2026-06-15T12:17:34.000Z</time>
      </trkpt>
      <trkpt lat="48.74433" lon="1.4298">
        <ele>119</ele>
        <time>2026-06-15T12:17:37.000Z</time>
      </trkpt>
      <trkpt lat="48.74432" lon="1.42989">
        <ele>119.59999847412</ele>
        <time>2026-06-15T12:17:39.000Z</time>
      </trkpt>
      <trkpt lat="48.74431" lon="1.42994">
        <ele>120</ele>
        <time>2026-06-15T12:17:40.000Z</time>
      </trkpt>
      <trkpt lat="48.74429" lon="1.43009">
        <ele>120.80000305176</ele>
        <time>2026-06-15T12:17:43.000Z</time>
      </trkpt>
      <trkpt lat="48.74427" lon="1.43024">
        <ele>121.80000305176</ele>
        <time>2026-06-15T12:17:46.000Z</time>
      </trkpt>
      <trkpt lat="48.74426" lon="1.43029">
        <ele>122.19999694824</ele>
        <time>2026-06-15T12:17:47.000Z</time>
      </trkpt>
      <trkpt lat="48.74424" lon="1.43043">
        <ele>123.40000152588</ele>
        <time>2026-06-15T12:17:50.000Z</time>
      </trkpt>
      <trkpt lat="48.7442" lon="1.43063">
        <ele>124.59999847412</ele>
        <time>2026-06-15T12:17:54.000Z</time>
      </trkpt>
      <trkpt lat="48.74419" lon="1.43068">
        <ele>124.80000305176</ele>
        <time>2026-06-15T12:17:55.000Z</time>
      </trkpt>
      <trkpt lat="48.74416" lon="1.43083">
        <ele>125.80000305176</ele>
        <time>2026-06-15T12:17:58.000Z</time>
      </trkpt>
      <trkpt lat="48.74411" lon="1.43108">
        <ele>127</ele>
        <time>2026-06-15T12:18:03.000Z</time>
      </trkpt>
      <trkpt lat="48.7441" lon="1.43113">
        <ele>127.19999694824</ele>
        <time>2026-06-15T12:18:04.000Z</time>
      </trkpt>
      <trkpt lat="48.74406" lon="1.43134">
        <ele>128</ele>
        <time>2026-06-15T12:18:08.000Z</time>
      </trkpt>
      <trkpt lat="48.74404" lon="1.43144">
        <ele>128.60000610352</ele>
        <time>2026-06-15T12:18:10.000Z</time>
      </trkpt>
      <trkpt lat="48.74401" lon="1.43154">
        <ele>129</ele>
        <time>2026-06-15T12:18:12.000Z</time>
      </trkpt>
      <trkpt lat="48.74396" lon="1.43175">
        <ele>129.60000610352</ele>
        <time>2026-06-15T12:18:16.000Z</time>
      </trkpt>
      <trkpt lat="48.74394" lon="1.43186">
        <ele>130.19999694824</ele>
        <time>2026-06-15T12:18:18.000Z</time>
      </trkpt>
      <trkpt lat="48.74386" lon="1.4322">
        <ele>131</ele>
        <time>2026-06-15T12:18:24.000Z</time>
      </trkpt>
      <trkpt lat="48.74384" lon="1.43231">
        <ele>131.19999694824</ele>
        <time>2026-06-15T12:18:26.000Z</time>
      </trkpt>
      <trkpt lat="48.74376" lon="1.43288">
        <ele>132.19999694824</ele>
        <time>2026-06-15T12:18:35.000Z</time>
      </trkpt>
      <trkpt lat="48.74376" lon="1.43294">
        <ele>132.19999694824</ele>
        <time>2026-06-15T12:18:36.000Z</time>
      </trkpt>
      <trkpt lat="48.74372" lon="1.43354">
        <ele>133</ele>
        <time>2026-06-15T12:18:45.000Z</time>
      </trkpt>
      <trkpt lat="48.74372" lon="1.43412">
        <ele>133.39999389648</ele>
        <time>2026-06-15T12:18:53.000Z</time>
      </trkpt>
      <trkpt lat="48.74373" lon="1.43434">
        <ele>133.39999389648</ele>
        <time>2026-06-15T12:18:56.000Z</time>
      </trkpt>
      <trkpt lat="48.74378" lon="1.4351">
        <ele>133.39999389648</ele>
        <time>2026-06-15T12:19:05.000Z</time>
      </trkpt>
      <trkpt lat="48.74385" lon="1.43602">
        <ele>133.19999694824</ele>
        <time>2026-06-15T12:19:15.000Z</time>
      </trkpt>
      <trkpt lat="48.74386" lon="1.43637">
        <ele>133.19999694824</ele>
        <time>2026-06-15T12:19:19.000Z</time>
      </trkpt>
      <trkpt lat="48.74384" lon="1.43683">
        <ele>133.19999694824</ele>
        <time>2026-06-15T12:19:24.000Z</time>
      </trkpt>
      <trkpt lat="48.74377" lon="1.43769">
        <ele>133.60000610352</ele>
        <time>2026-06-15T12:19:34.000Z</time>
      </trkpt>
      <trkpt lat="48.74372" lon="1.43844">
        <ele>133.80000305176</ele>
        <time>2026-06-15T12:19:43.000Z</time>
      </trkpt>
      <trkpt lat="48.74363" lon="1.43916">
        <ele>134</ele>
        <time>2026-06-15T12:19:52.000Z</time>
      </trkpt>
      <trkpt lat="48.74352" lon="1.43991">
        <ele>134.39999389648</ele>
        <time>2026-06-15T12:20:01.000Z</time>
      </trkpt>
      <trkpt lat="48.74348" lon="1.44025">
        <ele>134.60000610352</ele>
        <time>2026-06-15T12:20:05.000Z</time>
      </trkpt>
      <trkpt lat="48.7434" lon="1.44097">
        <ele>134.80000305176</ele>
        <time>2026-06-15T12:20:14.000Z</time>
      </trkpt>
      <trkpt lat="48.74338" lon="1.44167">
        <ele>135.19999694824</ele>
        <time>2026-06-15T12:20:22.000Z</time>
      </trkpt>
      <trkpt lat="48.74339" lon="1.44192">
        <ele>135.60000610352</ele>
        <time>2026-06-15T12:20:25.000Z</time>
      </trkpt>
      <trkpt lat="48.74344" lon="1.44271">
        <ele>136.19999694824</ele>
        <time>2026-06-15T12:20:34.000Z</time>
      </trkpt>
      <trkpt lat="48.74348" lon="1.44358">
        <ele>136.60000610352</ele>
        <time>2026-06-15T12:20:44.000Z</time>
      </trkpt>
      <trkpt lat="48.74348" lon="1.44375">
        <ele>136.60000610352</ele>
        <time>2026-06-15T12:20:46.000Z</time>
      </trkpt>
      <trkpt lat="48.74349" lon="1.44427">
        <ele>136.80000305176</ele>
        <time>2026-06-15T12:20:52.000Z</time>
      </trkpt>
      <trkpt lat="48.74349" lon="1.44436">
        <ele>136.80000305176</ele>
        <time>2026-06-15T12:20:53.000Z</time>
      </trkpt>
      <trkpt lat="48.74349" lon="1.44515">
        <ele>136.60000610352</ele>
        <time>2026-06-15T12:21:02.000Z</time>
      </trkpt>
      <trkpt lat="48.74346" lon="1.44601">
        <ele>136.80000305176</ele>
        <time>2026-06-15T12:21:12.000Z</time>
      </trkpt>
      <trkpt lat="48.74346" lon="1.44609">
        <ele>136.80000305176</ele>
        <time>2026-06-15T12:21:13.000Z</time>
      </trkpt>
      <trkpt lat="48.74343" lon="1.44642">
        <ele>136.80000305176</ele>
        <time>2026-06-15T12:21:18.000Z</time>
      </trkpt>
      <trkpt lat="48.74339" lon="1.44677">
        <ele>137</ele>
        <time>2026-06-15T12:21:24.000Z</time>
      </trkpt>
      <trkpt lat="48.74335" lon="1.44722">
        <ele>137.19999694824</ele>
        <time>2026-06-15T12:21:30.000Z</time>
      </trkpt>
      <trkpt lat="48.7433" lon="1.44788">
        <ele>137.60000610352</ele>
        <time>2026-06-15T12:21:38.000Z</time>
      </trkpt>
      <trkpt lat="48.74324" lon="1.44871">
        <ele>137.80000305176</ele>
        <time>2026-06-15T12:21:48.000Z</time>
      </trkpt>
      <trkpt lat="48.74323" lon="1.44889">
        <ele>137.60000610352</ele>
        <time>2026-06-15T12:21:50.000Z</time>
      </trkpt>
      <trkpt lat="48.74318" lon="1.44973">
        <ele>137.39999389648</ele>
        <time>2026-06-15T12:22:00.000Z</time>
      </trkpt>
      <trkpt lat="48.74316" lon="1.44998">
        <ele>137.60000610352</ele>
        <time>2026-06-15T12:22:03.000Z</time>
      </trkpt>
      <trkpt lat="48.74311" lon="1.45071">
        <ele>137.60000610352</ele>
        <time>2026-06-15T12:22:12.000Z</time>
      </trkpt>
      <trkpt lat="48.74306" lon="1.45154">
        <ele>137.60000610352</ele>
        <time>2026-06-15T12:22:22.000Z</time>
      </trkpt>
      <trkpt lat="48.74305" lon="1.45179">
        <ele>137.80000305176</ele>
        <time>2026-06-15T12:22:25.000Z</time>
      </trkpt>
      <trkpt lat="48.74304" lon="1.45187">
        <ele>137.80000305176</ele>
        <time>2026-06-15T12:22:26.000Z</time>
      </trkpt>
      <trkpt lat="48.74301" lon="1.45246">
        <ele>138.19999694824</ele>
        <time>2026-06-15T12:22:33.000Z</time>
      </trkpt>
      <trkpt lat="48.74298" lon="1.45328">
        <ele>138</ele>
        <time>2026-06-15T12:22:42.000Z</time>
      </trkpt>
      <trkpt lat="48.74294" lon="1.45417">
        <ele>138.19999694824</ele>
        <time>2026-06-15T12:22:52.000Z</time>
      </trkpt>
      <trkpt lat="48.74289" lon="1.45506">
        <ele>138.19999694824</ele>
        <time>2026-06-15T12:23:02.000Z</time>
      </trkpt>
      <trkpt lat="48.74287" lon="1.45532">
        <ele>138.19999694824</ele>
        <time>2026-06-15T12:23:05.000Z</time>
      </trkpt>
      <trkpt lat="48.74282" lon="1.45619">
        <ele>138.19999694824</ele>
        <time>2026-06-15T12:23:15.000Z</time>
      </trkpt>
      <trkpt lat="48.7428" lon="1.45671">
        <ele>138.39999389648</ele>
        <time>2026-06-15T12:23:21.000Z</time>
      </trkpt>
      <trkpt lat="48.74279" lon="1.45714">
        <ele>138.39999389648</ele>
        <time>2026-06-15T12:23:26.000Z</time>
      </trkpt>
      <trkpt lat="48.7428" lon="1.45792">
        <ele>138.39999389648</ele>
        <time>2026-06-15T12:23:35.000Z</time>
      </trkpt>
      <trkpt lat="48.74282" lon="1.45875">
        <ele>138.60000610352</ele>
        <time>2026-06-15T12:23:45.000Z</time>
      </trkpt>
      <trkpt lat="48.74283" lon="1.45891">
        <ele>138.60000610352</ele>
        <time>2026-06-15T12:23:47.000Z</time>
      </trkpt>
      <trkpt lat="48.74287" lon="1.45976">
        <ele>138.80000305176</ele>
        <time>2026-06-15T12:23:57.000Z</time>
      </trkpt>
      <trkpt lat="48.74288" lon="1.45993">
        <ele>138.80000305176</ele>
        <time>2026-06-15T12:23:59.000Z</time>
      </trkpt>
      <trkpt lat="48.74292" lon="1.4608">
        <ele>139</ele>
        <time>2026-06-15T12:24:09.000Z</time>
      </trkpt>
      <trkpt lat="48.74292" lon="1.46097">
        <ele>139.19999694824</ele>
        <time>2026-06-15T12:24:11.000Z</time>
      </trkpt>
      <trkpt lat="48.74292" lon="1.46097">
        <ele>139.19999694824</ele>
        <time>2026-06-15T12:24:12.000Z</time>
      </trkpt>
      <trkpt lat="48.74294" lon="1.46184">
        <ele>139.19999694824</ele>
        <time>2026-06-15T12:24:21.000Z</time>
      </trkpt>
      <trkpt lat="48.74294" lon="1.46202">
        <ele>139.19999694824</ele>
        <time>2026-06-15T12:24:23.000Z</time>
      </trkpt>
      <trkpt lat="48.74296" lon="1.4629">
        <ele>139.39999389648</ele>
        <time>2026-06-15T12:24:33.000Z</time>
      </trkpt>
      <trkpt lat="48.74296" lon="1.46307">
        <ele>139.39999389648</ele>
        <time>2026-06-15T12:24:35.000Z</time>
      </trkpt>
      <trkpt lat="48.74298" lon="1.46394">
        <ele>139.80000305176</ele>
        <time>2026-06-15T12:24:45.000Z</time>
      </trkpt>
      <trkpt lat="48.74298" lon="1.46482">
        <ele>139.80000305176</ele>
        <time>2026-06-15T12:24:55.000Z</time>
      </trkpt>
      <trkpt lat="48.74299" lon="1.46565">
        <ele>139.60000610352</ele>
        <time>2026-06-15T12:25:04.000Z</time>
      </trkpt>
      <trkpt lat="48.74299" lon="1.46574">
        <ele>139.60000610352</ele>
        <time>2026-06-15T12:25:05.000Z</time>
      </trkpt>
      <trkpt lat="48.74299" lon="1.46663">
        <ele>140</ele>
        <time>2026-06-15T12:25:15.000Z</time>
      </trkpt>
      <trkpt lat="48.743" lon="1.46722">
        <ele>140.39999389648</ele>
        <time>2026-06-15T12:25:22.000Z</time>
      </trkpt>
      <trkpt lat="48.743" lon="1.46758">
        <ele>140.39999389648</ele>
        <time>2026-06-15T12:25:26.000Z</time>
      </trkpt>
      <trkpt lat="48.74303" lon="1.46841">
        <ele>140.39999389648</ele>
        <time>2026-06-15T12:25:35.000Z</time>
      </trkpt>
      <trkpt lat="48.74304" lon="1.46859">
        <ele>140.39999389648</ele>
        <time>2026-06-15T12:25:37.000Z</time>
      </trkpt>
      <trkpt lat="48.74309" lon="1.46945">
        <ele>140.19999694824</ele>
        <time>2026-06-15T12:25:46.000Z</time>
      </trkpt>
      <trkpt lat="48.74311" lon="1.46975">
        <ele>140.19999694824</ele>
        <time>2026-06-15T12:25:49.000Z</time>
      </trkpt>
      <trkpt lat="48.74315" lon="1.47067">
        <ele>139.39999389648</ele>
        <time>2026-06-15T12:25:58.000Z</time>
      </trkpt>
      <trkpt lat="48.74315" lon="1.47077">
        <ele>139.19999694824</ele>
        <time>2026-06-15T12:25:59.000Z</time>
      </trkpt>
      <trkpt lat="48.74316" lon="1.47088">
        <ele>139</ele>
        <time>2026-06-15T12:26:00.000Z</time>
      </trkpt>
      <trkpt lat="48.74319" lon="1.47161">
        <ele>138.19999694824</ele>
        <time>2026-06-15T12:26:07.000Z</time>
      </trkpt>
      <trkpt lat="48.74322" lon="1.47213">
        <ele>138</ele>
        <time>2026-06-15T12:26:12.000Z</time>
      </trkpt>
      <trkpt lat="48.74327" lon="1.47304">
        <ele>137.39999389648</ele>
        <time>2026-06-15T12:26:21.000Z</time>
      </trkpt>
      <trkpt lat="48.74329" lon="1.47334">
        <ele>137.19999694824</ele>
        <time>2026-06-15T12:26:24.000Z</time>
      </trkpt>
      <trkpt lat="48.7433" lon="1.47355">
        <ele>137.19999694824</ele>
        <time>2026-06-15T12:26:26.000Z</time>
      </trkpt>
      <trkpt lat="48.74336" lon="1.47442">
        <ele>137.19999694824</ele>
        <time>2026-06-15T12:26:35.000Z</time>
      </trkpt>
      <trkpt lat="48.74338" lon="1.4747">
        <ele>137</ele>
        <time>2026-06-15T12:26:38.000Z</time>
      </trkpt>
      <trkpt lat="48.74348" lon="1.47555">
        <ele>137</ele>
        <time>2026-06-15T12:26:47.000Z</time>
      </trkpt>
      <trkpt lat="48.74357" lon="1.47616">
        <ele>136.60000610352</ele>
        <time>2026-06-15T12:26:54.000Z</time>
      </trkpt>
      <trkpt lat="48.74359" lon="1.47629">
        <ele>136.60000610352</ele>
        <time>2026-06-15T12:26:56.000Z</time>
      </trkpt>
      <trkpt lat="48.74366" lon="1.47651">
        <ele>136.60000610352</ele>
        <time>2026-06-15T12:26:59.000Z</time>
      </trkpt>
      <trkpt lat="48.74377" lon="1.47701">
        <ele>137</ele>
        <time>2026-06-15T12:27:05.000Z</time>
      </trkpt>
      <trkpt lat="48.74387" lon="1.47779">
        <ele>137.39999389648</ele>
        <time>2026-06-15T12:27:14.000Z</time>
      </trkpt>
      <trkpt lat="48.74399" lon="1.47866">
        <ele>137.80000305176</ele>
        <time>2026-06-15T12:27:24.000Z</time>
      </trkpt>
      <trkpt lat="48.74408" lon="1.47941">
        <ele>137.80000305176</ele>
        <time>2026-06-15T12:27:32.000Z</time>
      </trkpt>
      <trkpt lat="48.7442" lon="1.48018">
        <ele>137.39999389648</ele>
        <time>2026-06-15T12:27:40.000Z</time>
      </trkpt>
      <trkpt lat="48.7444" lon="1.48087">
        <ele>137.39999389648</ele>
        <time>2026-06-15T12:27:48.000Z</time>
      </trkpt>
      <trkpt lat="48.74466" lon="1.48167">
        <ele>137.60000610352</ele>
        <time>2026-06-15T12:27:58.000Z</time>
      </trkpt>
      <trkpt lat="48.74481" lon="1.48217">
        <ele>137.60000610352</ele>
        <time>2026-06-15T12:28:05.000Z</time>
      </trkpt>
      <trkpt lat="48.74492" lon="1.4825">
        <ele>137.60000610352</ele>
        <time>2026-06-15T12:28:11.000Z</time>
      </trkpt>
      <trkpt lat="48.745" lon="1.48256">
        <ele>137.80000305176</ele>
        <time>2026-06-15T12:28:13.000Z</time>
      </trkpt>
      <trkpt lat="48.74503" lon="1.48257">
        <ele>137.80000305176</ele>
        <time>2026-06-15T12:28:14.000Z</time>
      </trkpt>
      <trkpt lat="48.74513" lon="1.48256">
        <ele>138</ele>
        <time>2026-06-15T12:28:15.000Z</time>
      </trkpt>
      <trkpt lat="48.74522" lon="1.48252">
        <ele>138</ele>
        <time>2026-06-15T12:28:17.000Z</time>
      </trkpt>
      <trkpt lat="48.74527" lon="1.48248">
        <ele>138</ele>
        <time>2026-06-15T12:28:18.000Z</time>
      </trkpt>
      <trkpt lat="48.74551" lon="1.48231">
        <ele>138</ele>
        <time>2026-06-15T12:28:23.000Z</time>
      </trkpt>
      <trkpt lat="48.74604" lon="1.48195">
        <ele>138</ele>
        <time>2026-06-15T12:28:33.000Z</time>
      </trkpt>
      <trkpt lat="48.74609" lon="1.48192">
        <ele>138</ele>
        <time>2026-06-15T12:28:34.000Z</time>
      </trkpt>
      <trkpt lat="48.74664" lon="1.48165">
        <ele>138.39999389648</ele>
        <time>2026-06-15T12:28:44.000Z</time>
      </trkpt>
      <trkpt lat="48.74671" lon="1.48162">
        <ele>138.60000610352</ele>
        <time>2026-06-15T12:28:45.000Z</time>
      </trkpt>
      <trkpt lat="48.74729" lon="1.48146">
        <ele>139.39999389648</ele>
        <time>2026-06-15T12:28:55.000Z</time>
      </trkpt>
      <trkpt lat="48.74735" lon="1.48145">
        <ele>139.39999389648</ele>
        <time>2026-06-15T12:28:56.000Z</time>
      </trkpt>
      <trkpt lat="48.74782" lon="1.48142">
        <ele>139.80000305176</ele>
        <time>2026-06-15T12:29:04.000Z</time>
      </trkpt>
      <trkpt lat="48.74788" lon="1.48142">
        <ele>139.80000305176</ele>
        <time>2026-06-15T12:29:05.000Z</time>
      </trkpt>
      <trkpt lat="48.74836" lon="1.48154">
        <ele>140.39999389648</ele>
        <time>2026-06-15T12:29:13.000Z</time>
      </trkpt>
      <trkpt lat="48.74889" lon="1.48178">
        <ele>140.60000610352</ele>
        <time>2026-06-15T12:29:22.000Z</time>
      </trkpt>
      <trkpt lat="48.74894" lon="1.4818">
        <ele>140.60000610352</ele>
        <time>2026-06-15T12:29:23.000Z</time>
      </trkpt>
      <trkpt lat="48.74932" lon="1.48198">
        <ele>140.80000305176</ele>
        <time>2026-06-15T12:29:29.000Z</time>
      </trkpt>
      <trkpt lat="48.74957" lon="1.48209">
        <ele>141</ele>
        <time>2026-06-15T12:29:33.000Z</time>
      </trkpt>
      <trkpt lat="48.75013" lon="1.48228">
        <ele>140.60000610352</ele>
        <time>2026-06-15T12:29:42.000Z</time>
      </trkpt>
      <trkpt lat="48.75026" lon="1.48232">
        <ele>140.60000610352</ele>
        <time>2026-06-15T12:29:44.000Z</time>
      </trkpt>
      <trkpt lat="48.75082" lon="1.48243">
        <ele>140.80000305176</ele>
        <time>2026-06-15T12:29:53.000Z</time>
      </trkpt>
      <trkpt lat="48.75136" lon="1.48248">
        <ele>140.60000610352</ele>
        <time>2026-06-15T12:30:02.000Z</time>
      </trkpt>
      <trkpt lat="48.75148" lon="1.48248">
        <ele>141</ele>
        <time>2026-06-15T12:30:04.000Z</time>
      </trkpt>
      <trkpt lat="48.75202" lon="1.48245">
        <ele>140.80000305176</ele>
        <time>2026-06-15T12:30:13.000Z</time>
      </trkpt>
      <trkpt lat="48.75208" lon="1.48244">
        <ele>140.80000305176</ele>
        <time>2026-06-15T12:30:14.000Z</time>
      </trkpt>
      <trkpt lat="48.7522" lon="1.48243">
        <ele>141</ele>
        <time>2026-06-15T12:30:16.000Z</time>
      </trkpt>
      <trkpt lat="48.75273" lon="1.4823">
        <ele>140.80000305176</ele>
        <time>2026-06-15T12:30:25.000Z</time>
      </trkpt>
      <trkpt lat="48.75286" lon="1.48227">
        <ele>140.80000305176</ele>
        <time>2026-06-15T12:30:27.000Z</time>
      </trkpt>
      <trkpt lat="48.75343" lon="1.48209">
        <ele>140.60000610352</ele>
        <time>2026-06-15T12:30:36.000Z</time>
      </trkpt>
      <trkpt lat="48.75355" lon="1.48205">
        <ele>140.60000610352</ele>
        <time>2026-06-15T12:30:38.000Z</time>
      </trkpt>
      <trkpt lat="48.7541" lon="1.48194">
        <ele>140.60000610352</ele>
        <time>2026-06-15T12:30:47.000Z</time>
      </trkpt>
      <trkpt lat="48.75416" lon="1.48193">
        <ele>140.60000610352</ele>
        <time>2026-06-15T12:30:48.000Z</time>
      </trkpt>
      <trkpt lat="48.75467" lon="1.48191">
        <ele>141.39999389648</ele>
        <time>2026-06-15T12:30:57.000Z</time>
      </trkpt>
      <trkpt lat="48.75494" lon="1.48191">
        <ele>142.19999694824</ele>
        <time>2026-06-15T12:31:02.000Z</time>
      </trkpt>
      <trkpt lat="48.75514" lon="1.48191">
        <ele>143</ele>
        <time>2026-06-15T12:31:06.000Z</time>
      </trkpt>
      <trkpt lat="48.7553" lon="1.4819">
        <ele>143.39999389648</ele>
        <time>2026-06-15T12:31:09.000Z</time>
      </trkpt>
      <trkpt lat="48.75565" lon="1.48189">
        <ele>144.39999389648</ele>
        <time>2026-06-15T12:31:16.000Z</time>
      </trkpt>
      <trkpt lat="48.7557" lon="1.48189">
        <ele>144.60000610352</ele>
        <time>2026-06-15T12:31:17.000Z</time>
      </trkpt>
      <trkpt lat="48.75591" lon="1.48187">
        <ele>145.19999694824</ele>
        <time>2026-06-15T12:31:21.000Z</time>
      </trkpt>
      <trkpt lat="48.75601" lon="1.48187">
        <ele>145.60000610352</ele>
        <time>2026-06-15T12:31:23.000Z</time>
      </trkpt>
      <trkpt lat="48.75617" lon="1.48186">
        <ele>146</ele>
        <time>2026-06-15T12:31:26.000Z</time>
      </trkpt>
      <trkpt lat="48.75643" lon="1.48185">
        <ele>146.60000610352</ele>
        <time>2026-06-15T12:31:31.000Z</time>
      </trkpt>
      <trkpt lat="48.75686" lon="1.48184">
        <ele>147.60000610352</ele>
        <time>2026-06-15T12:31:39.000Z</time>
      </trkpt>
      <trkpt lat="48.75697" lon="1.48183">
        <ele>147.60000610352</ele>
        <time>2026-06-15T12:31:41.000Z</time>
      </trkpt>
      <trkpt lat="48.75754" lon="1.48182">
        <ele>148.39999389648</ele>
        <time>2026-06-15T12:31:51.000Z</time>
      </trkpt>
      <trkpt lat="48.75814" lon="1.48182">
        <ele>147.80000305176</ele>
        <time>2026-06-15T12:32:00.000Z</time>
      </trkpt>
      <trkpt lat="48.75858" lon="1.48181">
        <ele>146.80000305176</ele>
        <time>2026-06-15T12:32:06.000Z</time>
      </trkpt>
      <trkpt lat="48.75867" lon="1.48182">
        <ele>146.80000305176</ele>
        <time>2026-06-15T12:32:07.000Z</time>
      </trkpt>
      <trkpt lat="48.75907" lon="1.48185">
        <ele>145.80000305176</ele>
        <time>2026-06-15T12:32:12.000Z</time>
      </trkpt>
      <trkpt lat="48.7593" lon="1.48188">
        <ele>145</ele>
        <time>2026-06-15T12:32:15.000Z</time>
      </trkpt>
      <trkpt lat="48.75944" lon="1.4819">
        <ele>144.80000305176</ele>
        <time>2026-06-15T12:32:17.000Z</time>
      </trkpt>
      <trkpt lat="48.75964" lon="1.48193">
        <ele>144.39999389648</ele>
        <time>2026-06-15T12:32:20.000Z</time>
      </trkpt>
      <trkpt lat="48.76009" lon="1.48208">
        <ele>144.19999694824</ele>
        <time>2026-06-15T12:32:27.000Z</time>
      </trkpt>
      <trkpt lat="48.76033" lon="1.48219">
        <ele>144.19999694824</ele>
        <time>2026-06-15T12:32:31.000Z</time>
      </trkpt>
      <trkpt lat="48.76072" lon="1.48235">
        <ele>144.19999694824</ele>
        <time>2026-06-15T12:32:37.000Z</time>
      </trkpt>
      <trkpt lat="48.76124" lon="1.48241">
        <ele>144</ele>
        <time>2026-06-15T12:32:45.000Z</time>
      </trkpt>
      <trkpt lat="48.76156" lon="1.48244">
        <ele>143.80000305176</ele>
        <time>2026-06-15T12:32:50.000Z</time>
      </trkpt>
      <trkpt lat="48.76169" lon="1.48245">
        <ele>143.60000610352</ele>
        <time>2026-06-15T12:32:52.000Z</time>
      </trkpt>
      <trkpt lat="48.76227" lon="1.48249">
        <ele>143.80000305176</ele>
        <time>2026-06-15T12:33:01.000Z</time>
      </trkpt>
      <trkpt lat="48.76241" lon="1.4825">
        <ele>143.80000305176</ele>
        <time>2026-06-15T12:33:03.000Z</time>
      </trkpt>
      <trkpt lat="48.76276" lon="1.48254">
        <ele>144</ele>
        <time>2026-06-15T12:33:09.000Z</time>
      </trkpt>
      <trkpt lat="48.76288" lon="1.48259">
        <ele>144</ele>
        <time>2026-06-15T12:33:11.000Z</time>
      </trkpt>
      <trkpt lat="48.76303" lon="1.48268">
        <ele>144</ele>
        <time>2026-06-15T12:33:13.000Z</time>
      </trkpt>
      <trkpt lat="48.76351" lon="1.48295">
        <ele>144</ele>
        <time>2026-06-15T12:33:22.000Z</time>
      </trkpt>
      <trkpt lat="48.76405" lon="1.48315">
        <ele>144.19999694824</ele>
        <time>2026-06-15T12:33:31.000Z</time>
      </trkpt>
      <trkpt lat="48.7646" lon="1.48331">
        <ele>144.19999694824</ele>
        <time>2026-06-15T12:33:40.000Z</time>
      </trkpt>
      <trkpt lat="48.76472" lon="1.48335">
        <ele>144.19999694824</ele>
        <time>2026-06-15T12:33:42.000Z</time>
      </trkpt>
      <trkpt lat="48.7652" lon="1.48358">
        <ele>144.39999389648</ele>
        <time>2026-06-15T12:33:50.000Z</time>
      </trkpt>
      <trkpt lat="48.76566" lon="1.48399">
        <ele>144.80000305176</ele>
        <time>2026-06-15T12:33:59.000Z</time>
      </trkpt>
      <trkpt lat="48.76571" lon="1.48404">
        <ele>145</ele>
        <time>2026-06-15T12:34:00.000Z</time>
      </trkpt>
      <trkpt lat="48.76585" lon="1.4842">
        <ele>145</ele>
        <time>2026-06-15T12:34:03.000Z</time>
      </trkpt>
      <trkpt lat="48.76613" lon="1.48452">
        <ele>145.19999694824</ele>
        <time>2026-06-15T12:34:09.000Z</time>
      </trkpt>
      <trkpt lat="48.76655" lon="1.48499">
        <ele>144.80000305176</ele>
        <time>2026-06-15T12:34:18.000Z</time>
      </trkpt>
      <trkpt lat="48.76678" lon="1.48519">
        <ele>145</ele>
        <time>2026-06-15T12:34:23.000Z</time>
      </trkpt>
      <trkpt lat="48.76691" lon="1.48526">
        <ele>145</ele>
        <time>2026-06-15T12:34:26.000Z</time>
      </trkpt>
      <trkpt lat="48.76716" lon="1.4854">
        <ele>144.80000305176</ele>
        <time>2026-06-15T12:34:32.000Z</time>
      </trkpt>
      <trkpt lat="48.76725" lon="1.48542">
        <ele>144.80000305176</ele>
        <time>2026-06-15T12:34:34.000Z</time>
      </trkpt>
      <trkpt lat="48.7673" lon="1.48542">
        <ele>144.80000305176</ele>
        <time>2026-06-15T12:34:35.000Z</time>
      </trkpt>
      <trkpt lat="48.76746" lon="1.48538">
        <ele>144.60000610352</ele>
        <time>2026-06-15T12:34:38.000Z</time>
      </trkpt>
      <trkpt lat="48.7675" lon="1.48536">
        <ele>144.60000610352</ele>
        <time>2026-06-15T12:34:39.000Z</time>
      </trkpt>
      <trkpt lat="48.76793" lon="1.48515">
        <ele>144.39999389648</ele>
        <time>2026-06-15T12:34:47.000Z</time>
      </trkpt>
      <trkpt lat="48.7682" lon="1.48504">
        <ele>144.39999389648</ele>
        <time>2026-06-15T12:34:52.000Z</time>
      </trkpt>
      <trkpt lat="48.76831" lon="1.48504">
        <ele>144.39999389648</ele>
        <time>2026-06-15T12:34:54.000Z</time>
      </trkpt>
      <trkpt lat="48.76867" lon="1.48519">
        <ele>144.60000610352</ele>
        <time>2026-06-15T12:35:00.000Z</time>
      </trkpt>
      <trkpt lat="48.76903" lon="1.48529">
        <ele>144.60000610352</ele>
        <time>2026-06-15T12:35:06.000Z</time>
      </trkpt>
      <trkpt lat="48.76909" lon="1.48528">
        <ele>144.60000610352</ele>
        <time>2026-06-15T12:35:07.000Z</time>
      </trkpt>
      <trkpt lat="48.76914" lon="1.48526">
        <ele>144.60000610352</ele>
        <time>2026-06-15T12:35:08.000Z</time>
      </trkpt>
      <trkpt lat="48.76926" lon="1.48518">
        <ele>144.60000610352</ele>
        <time>2026-06-15T12:35:10.000Z</time>
      </trkpt>
      <trkpt lat="48.7693" lon="1.48512">
        <ele>144.39999389648</ele>
        <time>2026-06-15T12:35:11.000Z</time>
      </trkpt>
      <trkpt lat="48.7694" lon="1.48502">
        <ele>144.39999389648</ele>
        <time>2026-06-15T12:35:13.000Z</time>
      </trkpt>
      <trkpt lat="48.76951" lon="1.48495">
        <ele>144.39999389648</ele>
        <time>2026-06-15T12:35:15.000Z</time>
      </trkpt>
      <trkpt lat="48.76957" lon="1.48495">
        <ele>144.19999694824</ele>
        <time>2026-06-15T12:35:16.000Z</time>
      </trkpt>
      <trkpt lat="48.76962" lon="1.48497">
        <ele>144.39999389648</ele>
        <time>2026-06-15T12:35:17.000Z</time>
      </trkpt>
      <trkpt lat="48.76973" lon="1.48504">
        <ele>144.39999389648</ele>
        <time>2026-06-15T12:35:19.000Z</time>
      </trkpt>
      <trkpt lat="48.76979" lon="1.48509">
        <ele>144.39999389648</ele>
        <time>2026-06-15T12:35:20.000Z</time>
      </trkpt>
      <trkpt lat="48.76996" lon="1.48524">
        <ele>144.39999389648</ele>
        <time>2026-06-15T12:35:23.000Z</time>
      </trkpt>
      <trkpt lat="48.77006" lon="1.48537">
        <ele>144.39999389648</ele>
        <time>2026-06-15T12:35:25.000Z</time>
      </trkpt>
      <trkpt lat="48.77048" lon="1.48594">
        <ele>144.19999694824</ele>
        <time>2026-06-15T12:35:34.000Z</time>
      </trkpt>
      <trkpt lat="48.77074" lon="1.48619">
        <ele>144.39999389648</ele>
        <time>2026-06-15T12:35:39.000Z</time>
      </trkpt>
      <trkpt lat="48.77093" lon="1.48636">
        <ele>144.39999389648</ele>
        <time>2026-06-15T12:35:42.000Z</time>
      </trkpt>
      <trkpt lat="48.77137" lon="1.48672">
        <ele>144.80000305176</ele>
        <time>2026-06-15T12:35:51.000Z</time>
      </trkpt>
      <trkpt lat="48.77189" lon="1.48705">
        <ele>144.39999389648</ele>
        <time>2026-06-15T12:36:00.000Z</time>
      </trkpt>
      <trkpt lat="48.77195" lon="1.48708">
        <ele>144.39999389648</ele>
        <time>2026-06-15T12:36:01.000Z</time>
      </trkpt>
      <trkpt lat="48.77247" lon="1.48742">
        <ele>144.39999389648</ele>
        <time>2026-06-15T12:36:10.000Z</time>
      </trkpt>
      <trkpt lat="48.77253" lon="1.48745">
        <ele>144.39999389648</ele>
        <time>2026-06-15T12:36:11.000Z</time>
      </trkpt>
      <trkpt lat="48.77296" lon="1.48762">
        <ele>144.39999389648</ele>
        <time>2026-06-15T12:36:18.000Z</time>
      </trkpt>
      <trkpt lat="48.77355" lon="1.48767">
        <ele>144</ele>
        <time>2026-06-15T12:36:27.000Z</time>
      </trkpt>
      <trkpt lat="48.77374" lon="1.48764">
        <ele>143.80000305176</ele>
        <time>2026-06-15T12:36:30.000Z</time>
      </trkpt>
      <trkpt lat="48.77414" lon="1.48761">
        <ele>143.39999389648</ele>
        <time>2026-06-15T12:36:36.000Z</time>
      </trkpt>
      <trkpt lat="48.77446" lon="1.48777">
        <ele>143.19999694824</ele>
        <time>2026-06-15T12:36:41.000Z</time>
      </trkpt>
      <trkpt lat="48.77496" lon="1.48809">
        <ele>143.19999694824</ele>
        <time>2026-06-15T12:36:49.000Z</time>
      </trkpt>
      <trkpt lat="48.77515" lon="1.48818">
        <ele>143.39999389648</ele>
        <time>2026-06-15T12:36:52.000Z</time>
      </trkpt>
      <trkpt lat="48.77569" lon="1.48843">
        <ele>143.80000305176</ele>
        <time>2026-06-15T12:37:01.000Z</time>
      </trkpt>
      <trkpt lat="48.77575" lon="1.48846">
        <ele>143.60000610352</ele>
        <time>2026-06-15T12:37:02.000Z</time>
      </trkpt>
      <trkpt lat="48.77628" lon="1.48875">
        <ele>143.39999389648</ele>
        <time>2026-06-15T12:37:11.000Z</time>
      </trkpt>
      <trkpt lat="48.77646" lon="1.48886">
        <ele>143.19999694824</ele>
        <time>2026-06-15T12:37:14.000Z</time>
      </trkpt>
      <trkpt lat="48.77698" lon="1.48927">
        <ele>143.19999694824</ele>
        <time>2026-06-15T12:37:23.000Z</time>
      </trkpt>
      <trkpt lat="48.77704" lon="1.48931">
        <ele>143.19999694824</ele>
        <time>2026-06-15T12:37:24.000Z</time>
      </trkpt>
      <trkpt lat="48.77731" lon="1.48954">
        <ele>143</ele>
        <time>2026-06-15T12:37:29.000Z</time>
      </trkpt>
      <trkpt lat="48.77771" lon="1.48989">
        <ele>142.80000305176</ele>
        <time>2026-06-15T12:37:36.000Z</time>
      </trkpt>
      <trkpt lat="48.77804" lon="1.49028">
        <ele>142.80000305176</ele>
        <time>2026-06-15T12:37:42.000Z</time>
      </trkpt>
      <trkpt lat="48.77846" lon="1.4908">
        <ele>142.39999389648</ele>
        <time>2026-06-15T12:37:50.000Z</time>
      </trkpt>
      <trkpt lat="48.77852" lon="1.49085">
        <ele>142.39999389648</ele>
        <time>2026-06-15T12:37:51.000Z</time>
      </trkpt>
      <trkpt lat="48.77898" lon="1.4912">
        <ele>142.80000305176</ele>
        <time>2026-06-15T12:37:59.000Z</time>
      </trkpt>
      <trkpt lat="48.7793" lon="1.49137">
        <ele>142.80000305176</ele>
        <time>2026-06-15T12:38:05.000Z</time>
      </trkpt>
      <trkpt lat="48.77973" lon="1.49155">
        <ele>142.60000610352</ele>
        <time>2026-06-15T12:38:13.000Z</time>
      </trkpt>
      <trkpt lat="48.78027" lon="1.4918">
        <ele>142.80000305176</ele>
        <time>2026-06-15T12:38:22.000Z</time>
      </trkpt>
      <trkpt lat="48.78044" lon="1.49188">
        <ele>143</ele>
        <time>2026-06-15T12:38:25.000Z</time>
      </trkpt>
      <trkpt lat="48.78084" lon="1.49215">
        <ele>143.19999694824</ele>
        <time>2026-06-15T12:38:33.000Z</time>
      </trkpt>
      <trkpt lat="48.78123" lon="1.49252">
        <ele>143.39999389648</ele>
        <time>2026-06-15T12:38:41.000Z</time>
      </trkpt>
      <trkpt lat="48.7817" lon="1.49297">
        <ele>143.60000610352</ele>
        <time>2026-06-15T12:38:50.000Z</time>
      </trkpt>
      <trkpt lat="48.78215" lon="1.49328">
        <ele>144</ele>
        <time>2026-06-15T12:38:58.000Z</time>
      </trkpt>
      <trkpt lat="48.78257" lon="1.49353">
        <ele>144.19999694824</ele>
        <time>2026-06-15T12:39:05.000Z</time>
      </trkpt>
      <trkpt lat="48.78273" lon="1.49364">
        <ele>144.19999694824</ele>
        <time>2026-06-15T12:39:08.000Z</time>
      </trkpt>
      <trkpt lat="48.7829" lon="1.4937">
        <ele>144.19999694824</ele>
        <time>2026-06-15T12:39:11.000Z</time>
      </trkpt>
      <trkpt lat="48.78305" lon="1.4937">
        <ele>144.19999694824</ele>
        <time>2026-06-15T12:39:13.000Z</time>
      </trkpt>
      <trkpt lat="48.7832" lon="1.49366">
        <ele>144.19999694824</ele>
        <time>2026-06-15T12:39:16.000Z</time>
      </trkpt>
      <trkpt lat="48.78343" lon="1.49355">
        <ele>144.19999694824</ele>
        <time>2026-06-15T12:39:20.000Z</time>
      </trkpt>
      <trkpt lat="48.78397" lon="1.49325">
        <ele>143.39999389648</ele>
        <time>2026-06-15T12:39:29.000Z</time>
      </trkpt>
      <trkpt lat="48.78454" lon="1.49303">
        <ele>143.39999389648</ele>
        <time>2026-06-15T12:39:38.000Z</time>
      </trkpt>
      <trkpt lat="48.78467" lon="1.49298">
        <ele>143.39999389648</ele>
        <time>2026-06-15T12:39:40.000Z</time>
      </trkpt>
      <trkpt lat="48.78509" lon="1.49268">
        <ele>143.19999694824</ele>
        <time>2026-06-15T12:39:47.000Z</time>
      </trkpt>
      <trkpt lat="48.78542" lon="1.49231">
        <ele>143</ele>
        <time>2026-06-15T12:39:53.000Z</time>
      </trkpt>
      <trkpt lat="48.78571" lon="1.49208">
        <ele>142.80000305176</ele>
        <time>2026-06-15T12:39:58.000Z</time>
      </trkpt>
      <trkpt lat="48.78622" lon="1.49184">
        <ele>142.60000610352</ele>
        <time>2026-06-15T12:40:06.000Z</time>
      </trkpt>
      <trkpt lat="48.78676" lon="1.4916">
        <ele>142.39999389648</ele>
        <time>2026-06-15T12:40:15.000Z</time>
      </trkpt>
      <trkpt lat="48.78681" lon="1.49157">
        <ele>142.39999389648</ele>
        <time>2026-06-15T12:40:16.000Z</time>
      </trkpt>
      <trkpt lat="48.78715" lon="1.49136">
        <ele>142.19999694824</ele>
        <time>2026-06-15T12:40:21.000Z</time>
      </trkpt>
      <trkpt lat="48.78724" lon="1.49127">
        <ele>142.19999694824</ele>
        <time>2026-06-15T12:40:23.000Z</time>
      </trkpt>
      <trkpt lat="48.78758" lon="1.49083">
        <ele>142.19999694824</ele>
        <time>2026-06-15T12:40:30.000Z</time>
      </trkpt>
      <trkpt lat="48.78792" lon="1.49049">
        <ele>142</ele>
        <time>2026-06-15T12:40:36.000Z</time>
      </trkpt>
      <trkpt lat="48.78844" lon="1.49006">
        <ele>142.19999694824</ele>
        <time>2026-06-15T12:40:45.000Z</time>
      </trkpt>
      <trkpt lat="48.78894" lon="1.48967">
        <ele>142</ele>
        <time>2026-06-15T12:40:53.000Z</time>
      </trkpt>
      <trkpt lat="48.78907" lon="1.48961">
        <ele>141.60000610352</ele>
        <time>2026-06-15T12:40:55.000Z</time>
      </trkpt>
      <trkpt lat="48.78928" lon="1.48956">
        <ele>141.39999389648</ele>
        <time>2026-06-15T12:40:58.000Z</time>
      </trkpt>
      <trkpt lat="48.78942" lon="1.48956">
        <ele>141.19999694824</ele>
        <time>2026-06-15T12:41:00.000Z</time>
      </trkpt>
      <trkpt lat="48.78989" lon="1.48968">
        <ele>141.39999389648</ele>
        <time>2026-06-15T12:41:07.000Z</time>
      </trkpt>
      <trkpt lat="48.79007" lon="1.48975">
        <ele>141.60000610352</ele>
        <time>2026-06-15T12:41:10.000Z</time>
      </trkpt>
      <trkpt lat="48.79044" lon="1.48991">
        <ele>142</ele>
        <time>2026-06-15T12:41:16.000Z</time>
      </trkpt>
      <trkpt lat="48.79073" lon="1.49002">
        <ele>142.39999389648</ele>
        <time>2026-06-15T12:41:21.000Z</time>
      </trkpt>
      <trkpt lat="48.79078" lon="1.49004">
        <ele>142.39999389648</ele>
        <time>2026-06-15T12:41:22.000Z</time>
      </trkpt>
      <trkpt lat="48.79124" lon="1.49014">
        <ele>142.60000610352</ele>
        <time>2026-06-15T12:41:30.000Z</time>
      </trkpt>
      <trkpt lat="48.79173" lon="1.4902">
        <ele>142.60000610352</ele>
        <time>2026-06-15T12:41:38.000Z</time>
      </trkpt>
      <trkpt lat="48.79217" lon="1.49027">
        <ele>142.60000610352</ele>
        <time>2026-06-15T12:41:45.000Z</time>
      </trkpt>
      <trkpt lat="48.79222" lon="1.49031">
        <ele>142.60000610352</ele>
        <time>2026-06-15T12:41:46.000Z</time>
      </trkpt>
      <trkpt lat="48.79232" lon="1.4904">
        <ele>142.60000610352</ele>
        <time>2026-06-15T12:41:48.000Z</time>
      </trkpt>
      <trkpt lat="48.79243" lon="1.49045">
        <ele>142.60000610352</ele>
        <time>2026-06-15T12:41:50.000Z</time>
      </trkpt>
      <trkpt lat="48.79276" lon="1.49042">
        <ele>142.39999389648</ele>
        <time>2026-06-15T12:41:55.000Z</time>
      </trkpt>
      <trkpt lat="48.79329" lon="1.49049">
        <ele>142.60000610352</ele>
        <time>2026-06-15T12:42:03.000Z</time>
      </trkpt>
      <trkpt lat="48.79389" lon="1.49059">
        <ele>142.19999694824</ele>
        <time>2026-06-15T12:42:12.000Z</time>
      </trkpt>
      <trkpt lat="48.79395" lon="1.4906">
        <ele>142.19999694824</ele>
        <time>2026-06-15T12:42:13.000Z</time>
      </trkpt>
      <trkpt lat="48.79407" lon="1.49064">
        <ele>142.19999694824</ele>
        <time>2026-06-15T12:42:15.000Z</time>
      </trkpt>
      <trkpt lat="48.79418" lon="1.49073">
        <ele>142.19999694824</ele>
        <time>2026-06-15T12:42:17.000Z</time>
      </trkpt>
      <trkpt lat="48.79429" lon="1.49074">
        <ele>142</ele>
        <time>2026-06-15T12:42:19.000Z</time>
      </trkpt>
      <trkpt lat="48.79438" lon="1.49064">
        <ele>141.80000305176</ele>
        <time>2026-06-15T12:42:21.000Z</time>
      </trkpt>
      <trkpt lat="48.7944" lon="1.49056">
        <ele>141.80000305176</ele>
        <time>2026-06-15T12:42:22.000Z</time>
      </trkpt>
      <trkpt lat="48.79441" lon="1.49048">
        <ele>141.80000305176</ele>
        <time>2026-06-15T12:42:23.000Z</time>
      </trkpt>
      <trkpt lat="48.7944" lon="1.49031">
        <ele>141.60000610352</ele>
        <time>2026-06-15T12:42:25.000Z</time>
      </trkpt>
      <trkpt lat="48.79444" lon="1.49015">
        <ele>141.39999389648</ele>
        <time>2026-06-15T12:42:27.000Z</time>
      </trkpt>
      <trkpt lat="48.79448" lon="1.49008">
        <ele>141.39999389648</ele>
        <time>2026-06-15T12:42:28.000Z</time>
      </trkpt>
      <trkpt lat="48.79481" lon="1.48964">
        <ele>140.39999389648</ele>
        <time>2026-06-15T12:42:35.000Z</time>
      </trkpt>
      <trkpt lat="48.79516" lon="1.48917">
        <ele>140</ele>
        <time>2026-06-15T12:42:43.000Z</time>
      </trkpt>
      <trkpt lat="48.79535" lon="1.48893">
        <ele>139.60000610352</ele>
        <time>2026-06-15T12:42:49.000Z</time>
      </trkpt>
      <trkpt lat="48.79537" lon="1.48889">
        <ele>139.60000610352</ele>
        <time>2026-06-15T12:42:53.000Z</time>
      </trkpt>
      <trkpt lat="48.79543" lon="1.48885">
        <ele>139.60000610352</ele>
        <time>2026-06-15T12:43:01.000Z</time>
      </trkpt>
      <trkpt lat="48.79552" lon="1.48894">
        <ele>139.60000610352</ele>
        <time>2026-06-15T12:43:04.000Z</time>
      </trkpt>
      <trkpt lat="48.79554" lon="1.48908">
        <ele>139.60000610352</ele>
        <time>2026-06-15T12:43:06.000Z</time>
      </trkpt>
      <trkpt lat="48.79556" lon="1.48915">
        <ele>139.60000610352</ele>
        <time>2026-06-15T12:43:07.000Z</time>
      </trkpt>
      <trkpt lat="48.7956" lon="1.48937">
        <ele>139.60000610352</ele>
        <time>2026-06-15T12:43:10.000Z</time>
      </trkpt>
      <trkpt lat="48.79567" lon="1.48978">
        <ele>139.60000610352</ele>
        <time>2026-06-15T12:43:15.000Z</time>
      </trkpt>
      <trkpt lat="48.79584" lon="1.49052">
        <ele>139.39999389648</ele>
        <time>2026-06-15T12:43:24.000Z</time>
      </trkpt>
      <trkpt lat="48.79602" lon="1.4912">
        <ele>139.80000305176</ele>
        <time>2026-06-15T12:43:32.000Z</time>
      </trkpt>
      <trkpt lat="48.7962" lon="1.49173">
        <ele>139.80000305176</ele>
        <time>2026-06-15T12:43:39.000Z</time>
      </trkpt>
      <trkpt lat="48.7964" lon="1.49232">
        <ele>139.60000610352</ele>
        <time>2026-06-15T12:43:46.000Z</time>
      </trkpt>
      <trkpt lat="48.79642" lon="1.49241">
        <ele>139.60000610352</ele>
        <time>2026-06-15T12:43:47.000Z</time>
      </trkpt>
      <trkpt lat="48.79644" lon="1.49268">
        <ele>139.39999389648</ele>
        <time>2026-06-15T12:43:50.000Z</time>
      </trkpt>
      <trkpt lat="48.79646" lon="1.49284">
        <ele>139.19999694824</ele>
        <time>2026-06-15T12:43:52.000Z</time>
      </trkpt>
      <trkpt lat="48.79651" lon="1.493">
        <ele>139.19999694824</ele>
        <time>2026-06-15T12:43:54.000Z</time>
      </trkpt>
      <trkpt lat="48.79679" lon="1.49347">
        <ele>139</ele>
        <time>2026-06-15T12:44:01.000Z</time>
      </trkpt>
      <trkpt lat="48.79684" lon="1.49351">
        <ele>139</ele>
        <time>2026-06-15T12:44:02.000Z</time>
      </trkpt>
      <trkpt lat="48.79689" lon="1.49354">
        <ele>139.19999694824</ele>
        <time>2026-06-15T12:44:03.000Z</time>
      </trkpt>
      <trkpt lat="48.79705" lon="1.49357">
        <ele>139.39999389648</ele>
        <time>2026-06-15T12:44:06.000Z</time>
      </trkpt>
      <trkpt lat="48.79742" lon="1.49368">
        <ele>139.80000305176</ele>
        <time>2026-06-15T12:44:12.000Z</time>
      </trkpt>
      <trkpt lat="48.79789" lon="1.49384">
        <ele>140</ele>
        <time>2026-06-15T12:44:20.000Z</time>
      </trkpt>
      <trkpt lat="48.79816" lon="1.49394">
        <ele>140.19999694824</ele>
        <time>2026-06-15T12:44:25.000Z</time>
      </trkpt>
      <trkpt lat="48.7984" lon="1.49404">
        <ele>140.39999389648</ele>
        <time>2026-06-15T12:44:29.000Z</time>
      </trkpt>
      <trkpt lat="48.79859" lon="1.49406">
        <ele>140.39999389648</ele>
        <time>2026-06-15T12:44:32.000Z</time>
      </trkpt>
      <trkpt lat="48.79889" lon="1.49402">
        <ele>140.39999389648</ele>
        <time>2026-06-15T12:44:37.000Z</time>
      </trkpt>
      <trkpt lat="48.79929" lon="1.49392">
        <ele>140.39999389648</ele>
        <time>2026-06-15T12:44:43.000Z</time>
      </trkpt>
      <trkpt lat="48.79929" lon="1.49392">
        <ele>140.39999389648</ele>
        <time>2026-06-15T12:44:44.000Z</time>
      </trkpt>
      <trkpt lat="48.79937" lon="1.49388">
        <ele>140.19999694824</ele>
        <time>2026-06-15T12:44:45.000Z</time>
      </trkpt>
      <trkpt lat="48.79967" lon="1.49376">
        <ele>139.80000305176</ele>
        <time>2026-06-15T12:44:50.000Z</time>
      </trkpt>
      <trkpt lat="48.79985" lon="1.49367">
        <ele>139.60000610352</ele>
        <time>2026-06-15T12:44:53.000Z</time>
      </trkpt>
      <trkpt lat="48.79997" lon="1.49362">
        <ele>139.39999389648</ele>
        <time>2026-06-15T12:44:55.000Z</time>
      </trkpt>
      <trkpt lat="48.80008" lon="1.49357">
        <ele>139.39999389648</ele>
        <time>2026-06-15T12:44:57.000Z</time>
      </trkpt>
      <trkpt lat="48.80021" lon="1.49356">
        <ele>139.39999389648</ele>
        <time>2026-06-15T12:44:59.000Z</time>
      </trkpt>
      <trkpt lat="48.80033" lon="1.49357">
        <ele>139.39999389648</ele>
        <time>2026-06-15T12:45:01.000Z</time>
      </trkpt>
      <trkpt lat="48.80046" lon="1.49361">
        <ele>139.19999694824</ele>
        <time>2026-06-15T12:45:03.000Z</time>
      </trkpt>
      <trkpt lat="48.80072" lon="1.49375">
        <ele>139.39999389648</ele>
        <time>2026-06-15T12:45:08.000Z</time>
      </trkpt>
      <trkpt lat="48.80079" lon="1.49376">
        <ele>139.39999389648</ele>
        <time>2026-06-15T12:45:10.000Z</time>
      </trkpt>
      <trkpt lat="48.80082" lon="1.49373">
        <ele>139.39999389648</ele>
        <time>2026-06-15T12:45:11.000Z</time>
      </trkpt>
      <trkpt lat="48.80091" lon="1.49348">
        <ele>139.39999389648</ele>
        <time>2026-06-15T12:45:15.000Z</time>
      </trkpt>
      <trkpt lat="48.80107" lon="1.493">
        <ele>139</ele>
        <time>2026-06-15T12:45:21.000Z</time>
      </trkpt>
      <trkpt lat="48.80119" lon="1.49263">
        <ele>138.19999694824</ele>
        <time>2026-06-15T12:45:25.000Z</time>
      </trkpt>
      <trkpt lat="48.80131" lon="1.49225">
        <ele>137.80000305176</ele>
        <time>2026-06-15T12:45:29.000Z</time>
      </trkpt>
      <trkpt lat="48.80154" lon="1.49149">
        <ele>137.39999389648</ele>
        <time>2026-06-15T12:45:37.000Z</time>
      </trkpt>
      <trkpt lat="48.8016" lon="1.4913">
        <ele>137.39999389648</ele>
        <time>2026-06-15T12:45:39.000Z</time>
      </trkpt>
      <trkpt lat="48.80185" lon="1.49054">
        <ele>137.80000305176</ele>
        <time>2026-06-15T12:45:48.000Z</time>
      </trkpt>
      <trkpt lat="48.80211" lon="1.48975">
        <ele>138.80000305176</ele>
        <time>2026-06-15T12:45:58.000Z</time>
      </trkpt>
      <trkpt lat="48.80236" lon="1.48901">
        <ele>139.19999694824</ele>
        <time>2026-06-15T12:46:07.000Z</time>
      </trkpt>
      <trkpt lat="48.80261" lon="1.48826">
        <ele>139.19999694824</ele>
        <time>2026-06-15T12:46:16.000Z</time>
      </trkpt>
      <trkpt lat="48.80263" lon="1.48818">
        <ele>139.19999694824</ele>
        <time>2026-06-15T12:46:17.000Z</time>
      </trkpt>
      <trkpt lat="48.80289" lon="1.4874">
        <ele>139.19999694824</ele>
        <time>2026-06-15T12:46:26.000Z</time>
      </trkpt>
      <trkpt lat="48.80292" lon="1.4873">
        <ele>139.19999694824</ele>
        <time>2026-06-15T12:46:27.000Z</time>
      </trkpt>
      <trkpt lat="48.80316" lon="1.48656">
        <ele>139</ele>
        <time>2026-06-15T12:46:35.000Z</time>
      </trkpt>
      <trkpt lat="48.80327" lon="1.48622">
        <ele>139.19999694824</ele>
        <time>2026-06-15T12:46:38.000Z</time>
      </trkpt>
      <trkpt lat="48.80353" lon="1.48544">
        <ele>139</ele>
        <time>2026-06-15T12:46:47.000Z</time>
      </trkpt>
      <trkpt lat="48.80359" lon="1.48526">
        <ele>139</ele>
        <time>2026-06-15T12:46:49.000Z</time>
      </trkpt>
      <trkpt lat="48.80382" lon="1.48454">
        <ele>138.80000305176</ele>
        <time>2026-06-15T12:46:57.000Z</time>
      </trkpt>
      <trkpt lat="48.80409" lon="1.48372">
        <ele>139</ele>
        <time>2026-06-15T12:47:06.000Z</time>
      </trkpt>
      <trkpt lat="48.80413" lon="1.48361">
        <ele>139</ele>
        <time>2026-06-15T12:47:07.000Z</time>
      </trkpt>
      <trkpt lat="48.80437" lon="1.48285">
        <ele>138.60000610352</ele>
        <time>2026-06-15T12:47:15.000Z</time>
      </trkpt>
      <trkpt lat="48.80444" lon="1.48263">
        <ele>138.60000610352</ele>
        <time>2026-06-15T12:47:17.000Z</time>
      </trkpt>
      <trkpt lat="48.80468" lon="1.48191">
        <ele>137.39999389648</ele>
        <time>2026-06-15T12:47:23.000Z</time>
      </trkpt>
      <trkpt lat="48.80473" lon="1.48177">
        <ele>137.19999694824</ele>
        <time>2026-06-15T12:47:24.000Z</time>
      </trkpt>
      <trkpt lat="48.80486" lon="1.48139">
        <ele>135.60000610352</ele>
        <time>2026-06-15T12:47:27.000Z</time>
      </trkpt>
      <trkpt lat="48.80502" lon="1.48089">
        <ele>134.60000610352</ele>
        <time>2026-06-15T12:47:31.000Z</time>
      </trkpt>
      <trkpt lat="48.80522" lon="1.48027">
        <ele>133.60000610352</ele>
        <time>2026-06-15T12:47:37.000Z</time>
      </trkpt>
      <trkpt lat="48.80534" lon="1.47992">
        <ele>133.80000305176</ele>
        <time>2026-06-15T12:47:41.000Z</time>
      </trkpt>
      <trkpt lat="48.8054" lon="1.47975">
        <ele>134</ele>
        <time>2026-06-15T12:47:43.000Z</time>
      </trkpt>
      <trkpt lat="48.80553" lon="1.47925">
        <ele>135</ele>
        <time>2026-06-15T12:47:49.000Z</time>
      </trkpt>
      <trkpt lat="48.80559" lon="1.4791">
        <ele>136</ele>
        <time>2026-06-15T12:47:51.000Z</time>
      </trkpt>
      <trkpt lat="48.80562" lon="1.47902">
        <ele>136</ele>
        <time>2026-06-15T12:47:52.000Z</time>
      </trkpt>
      <trkpt lat="48.8057" lon="1.47879">
        <ele>136.60000610352</ele>
        <time>2026-06-15T12:47:55.000Z</time>
      </trkpt>
      <trkpt lat="48.80579" lon="1.47849">
        <ele>137</ele>
        <time>2026-06-15T12:47:59.000Z</time>
      </trkpt>
      <trkpt lat="48.80584" lon="1.47835">
        <ele>137.60000610352</ele>
        <time>2026-06-15T12:48:01.000Z</time>
      </trkpt>
      <trkpt lat="48.80589" lon="1.47821">
        <ele>137.80000305176</ele>
        <time>2026-06-15T12:48:03.000Z</time>
      </trkpt>
      <trkpt lat="48.80595" lon="1.47806">
        <ele>138</ele>
        <time>2026-06-15T12:48:05.000Z</time>
      </trkpt>
      <trkpt lat="48.80597" lon="1.47798">
        <ele>138</ele>
        <time>2026-06-15T12:48:06.000Z</time>
      </trkpt>
      <trkpt lat="48.80606" lon="1.4776">
        <ele>138.60000610352</ele>
        <time>2026-06-15T12:48:11.000Z</time>
      </trkpt>
      <trkpt lat="48.80609" lon="1.47753">
        <ele>138.60000610352</ele>
        <time>2026-06-15T12:48:12.000Z</time>
      </trkpt>
      <trkpt lat="48.80613" lon="1.47737">
        <ele>138.80000305176</ele>
        <time>2026-06-15T12:48:14.000Z</time>
      </trkpt>
      <trkpt lat="48.80616" lon="1.47721">
        <ele>139.19999694824</ele>
        <time>2026-06-15T12:48:16.000Z</time>
      </trkpt>
      <trkpt lat="48.80618" lon="1.47715">
        <ele>139.19999694824</ele>
        <time>2026-06-15T12:48:17.000Z</time>
      </trkpt>
      <trkpt lat="48.8062" lon="1.47708">
        <ele>139.19999694824</ele>
        <time>2026-06-15T12:48:18.000Z</time>
      </trkpt>
      <trkpt lat="48.80626" lon="1.47683">
        <ele>139.60000610352</ele>
        <time>2026-06-15T12:48:21.000Z</time>
      </trkpt>
      <trkpt lat="48.80637" lon="1.47651">
        <ele>140.19999694824</ele>
        <time>2026-06-15T12:48:25.000Z</time>
      </trkpt>
      <trkpt lat="48.80646" lon="1.47629">
        <ele>140.39999389648</ele>
        <time>2026-06-15T12:48:28.000Z</time>
      </trkpt>
      <trkpt lat="48.80651" lon="1.47614">
        <ele>140.60000610352</ele>
        <time>2026-06-15T12:48:30.000Z</time>
      </trkpt>
      <trkpt lat="48.80661" lon="1.47593">
        <ele>140.80000305176</ele>
        <time>2026-06-15T12:48:33.000Z</time>
      </trkpt>
      <trkpt lat="48.80672" lon="1.47559">
        <ele>141</ele>
        <time>2026-06-15T12:48:37.000Z</time>
      </trkpt>
      <trkpt lat="48.80679" lon="1.47538">
        <ele>141.19999694824</ele>
        <time>2026-06-15T12:48:39.000Z</time>
      </trkpt>
      <trkpt lat="48.80682" lon="1.47526">
        <ele>141.39999389648</ele>
        <time>2026-06-15T12:48:41.000Z</time>
      </trkpt>
      <trkpt lat="48.80689" lon="1.47498">
        <ele>141.39999389648</ele>
        <time>2026-06-15T12:48:44.000Z</time>
      </trkpt>
      <trkpt lat="48.80697" lon="1.47473">
        <ele>141.39999389648</ele>
        <time>2026-06-15T12:48:47.000Z</time>
      </trkpt>
      <trkpt lat="48.807" lon="1.47464">
        <ele>141.19999694824</ele>
        <time>2026-06-15T12:48:48.000Z</time>
      </trkpt>
      <trkpt lat="48.80707" lon="1.47447">
        <ele>141.19999694824</ele>
        <time>2026-06-15T12:48:50.000Z</time>
      </trkpt>
      <trkpt lat="48.80719" lon="1.47418">
        <ele>141.19999694824</ele>
        <time>2026-06-15T12:48:54.000Z</time>
      </trkpt>
      <trkpt lat="48.80744" lon="1.47342">
        <ele>141</ele>
        <time>2026-06-15T12:49:04.000Z</time>
      </trkpt>
      <trkpt lat="48.80763" lon="1.47277">
        <ele>140.19999694824</ele>
        <time>2026-06-15T12:49:12.000Z</time>
      </trkpt>
      <trkpt lat="48.80765" lon="1.47268">
        <ele>140.19999694824</ele>
        <time>2026-06-15T12:49:13.000Z</time>
      </trkpt>
      <trkpt lat="48.80771" lon="1.47251">
        <ele>140</ele>
        <time>2026-06-15T12:49:15.000Z</time>
      </trkpt>
      <trkpt lat="48.80778" lon="1.47235">
        <ele>140</ele>
        <time>2026-06-15T12:49:17.000Z</time>
      </trkpt>
      <trkpt lat="48.80801" lon="1.47172">
        <ele>139.39999389648</ele>
        <time>2026-06-15T12:49:24.000Z</time>
      </trkpt>
      <trkpt lat="48.80807" lon="1.47155">
        <ele>139.39999389648</ele>
        <time>2026-06-15T12:49:26.000Z</time>
      </trkpt>
      <trkpt lat="48.80808" lon="1.47145">
        <ele>139.39999389648</ele>
        <time>2026-06-15T12:49:27.000Z</time>
      </trkpt>
      <trkpt lat="48.80815" lon="1.47118">
        <ele>139.39999389648</ele>
        <time>2026-06-15T12:49:30.000Z</time>
      </trkpt>
      <trkpt lat="48.80823" lon="1.47089">
        <ele>139.19999694824</ele>
        <time>2026-06-15T12:49:33.000Z</time>
      </trkpt>
      <trkpt lat="48.80827" lon="1.4707">
        <ele>139.19999694824</ele>
        <time>2026-06-15T12:49:35.000Z</time>
      </trkpt>
      <trkpt lat="48.80833" lon="1.47029">
        <ele>139.19999694824</ele>
        <time>2026-06-15T12:49:39.000Z</time>
      </trkpt>
      <trkpt lat="48.80835" lon="1.47019">
        <ele>139.19999694824</ele>
        <time>2026-06-15T12:49:40.000Z</time>
      </trkpt>
      <trkpt lat="48.80843" lon="1.46991">
        <ele>139</ele>
        <time>2026-06-15T12:49:43.000Z</time>
      </trkpt>
      <trkpt lat="48.80852" lon="1.46971">
        <ele>139</ele>
        <time>2026-06-15T12:49:45.000Z</time>
      </trkpt>
      <trkpt lat="48.80856" lon="1.4696">
        <ele>139</ele>
        <time>2026-06-15T12:49:46.000Z</time>
      </trkpt>
      <trkpt lat="48.80864" lon="1.46943">
        <ele>138.80000305176</ele>
        <time>2026-06-15T12:49:48.000Z</time>
      </trkpt>
      <trkpt lat="48.80872" lon="1.46925">
        <ele>138.80000305176</ele>
        <time>2026-06-15T12:49:50.000Z</time>
      </trkpt>
      <trkpt lat="48.80895" lon="1.46842">
        <ele>138.39999389648</ele>
        <time>2026-06-15T12:49:59.000Z</time>
      </trkpt>
      <trkpt lat="48.80901" lon="1.46824">
        <ele>138.19999694824</ele>
        <time>2026-06-15T12:50:01.000Z</time>
      </trkpt>
      <trkpt lat="48.80914" lon="1.46777">
        <ele>137.39999389648</ele>
        <time>2026-06-15T12:50:06.000Z</time>
      </trkpt>
      <trkpt lat="48.80934" lon="1.46707">
        <ele>137.39999389648</ele>
        <time>2026-06-15T12:50:14.000Z</time>
      </trkpt>
      <trkpt lat="48.80951" lon="1.4665">
        <ele>138</ele>
        <time>2026-06-15T12:50:21.000Z</time>
      </trkpt>
      <trkpt lat="48.80969" lon="1.46584">
        <ele>138.39999389648</ele>
        <time>2026-06-15T12:50:29.000Z</time>
      </trkpt>
      <trkpt lat="48.80983" lon="1.46534">
        <ele>138.80000305176</ele>
        <time>2026-06-15T12:50:35.000Z</time>
      </trkpt>
      <trkpt lat="48.80999" lon="1.46483">
        <ele>138.80000305176</ele>
        <time>2026-06-15T12:50:41.000Z</time>
      </trkpt>
      <trkpt lat="48.81022" lon="1.46404">
        <ele>138.60000610352</ele>
        <time>2026-06-15T12:50:50.000Z</time>
      </trkpt>
      <trkpt lat="48.81025" lon="1.46395">
        <ele>138.39999389648</ele>
        <time>2026-06-15T12:50:51.000Z</time>
      </trkpt>
      <trkpt lat="48.81046" lon="1.4632">
        <ele>138.19999694824</ele>
        <time>2026-06-15T12:51:00.000Z</time>
      </trkpt>
      <trkpt lat="48.81051" lon="1.46294">
        <ele>138.19999694824</ele>
        <time>2026-06-15T12:51:03.000Z</time>
      </trkpt>
      <trkpt lat="48.81054" lon="1.46276">
        <ele>138</ele>
        <time>2026-06-15T12:51:05.000Z</time>
      </trkpt>
      <trkpt lat="48.81061" lon="1.46239">
        <ele>137.60000610352</ele>
        <time>2026-06-15T12:51:09.000Z</time>
      </trkpt>
      <trkpt lat="48.81067" lon="1.46219">
        <ele>137.60000610352</ele>
        <time>2026-06-15T12:51:11.000Z</time>
      </trkpt>
      <trkpt lat="48.81072" lon="1.46199">
        <ele>137.60000610352</ele>
        <time>2026-06-15T12:51:13.000Z</time>
      </trkpt>
      <trkpt lat="48.81074" lon="1.46189">
        <ele>137.60000610352</ele>
        <time>2026-06-15T12:51:14.000Z</time>
      </trkpt>
      <trkpt lat="48.81081" lon="1.46169">
        <ele>137.39999389648</ele>
        <time>2026-06-15T12:51:16.000Z</time>
      </trkpt>
      <trkpt lat="48.81101" lon="1.4611">
        <ele>137.19999694824</ele>
        <time>2026-06-15T12:51:22.000Z</time>
      </trkpt>
      <trkpt lat="48.81104" lon="1.461">
        <ele>137.19999694824</ele>
        <time>2026-06-15T12:51:23.000Z</time>
      </trkpt>
      <trkpt lat="48.8111" lon="1.4608">
        <ele>137</ele>
        <time>2026-06-15T12:51:25.000Z</time>
      </trkpt>
      <trkpt lat="48.81122" lon="1.46043">
        <ele>136.60000610352</ele>
        <time>2026-06-15T12:51:29.000Z</time>
      </trkpt>
      <trkpt lat="48.81128" lon="1.46025">
        <ele>136.60000610352</ele>
        <time>2026-06-15T12:51:31.000Z</time>
      </trkpt>
      <trkpt lat="48.81135" lon="1.46008">
        <ele>136.39999389648</ele>
        <time>2026-06-15T12:51:33.000Z</time>
      </trkpt>
      <trkpt lat="48.81138" lon="1.45999">
        <ele>136.39999389648</ele>
        <time>2026-06-15T12:51:34.000Z</time>
      </trkpt>
      <trkpt lat="48.81147" lon="1.4597">
        <ele>136.39999389648</ele>
        <time>2026-06-15T12:51:37.000Z</time>
      </trkpt>
      <trkpt lat="48.81159" lon="1.45933">
        <ele>136</ele>
        <time>2026-06-15T12:51:41.000Z</time>
      </trkpt>
      <trkpt lat="48.81165" lon="1.45916">
        <ele>136</ele>
        <time>2026-06-15T12:51:43.000Z</time>
      </trkpt>
      <trkpt lat="48.81184" lon="1.45853">
        <ele>136</ele>
        <time>2026-06-15T12:51:50.000Z</time>
      </trkpt>
      <trkpt lat="48.81191" lon="1.45817">
        <ele>136.19999694824</ele>
        <time>2026-06-15T12:51:54.000Z</time>
      </trkpt>
      <trkpt lat="48.81205" lon="1.45768">
        <ele>136.39999389648</ele>
        <time>2026-06-15T12:52:00.000Z</time>
      </trkpt>
      <trkpt lat="48.81212" lon="1.45742">
        <ele>136.39999389648</ele>
        <time>2026-06-15T12:52:03.000Z</time>
      </trkpt>
      <trkpt lat="48.81218" lon="1.45725">
        <ele>136.60000610352</ele>
        <time>2026-06-15T12:52:05.000Z</time>
      </trkpt>
      <trkpt lat="48.81243" lon="1.45648">
        <ele>136.39999389648</ele>
        <time>2026-06-15T12:52:14.000Z</time>
      </trkpt>
      <trkpt lat="48.81272" lon="1.45573">
        <ele>136</ele>
        <time>2026-06-15T12:52:23.000Z</time>
      </trkpt>
      <trkpt lat="48.81302" lon="1.45525">
        <ele>135.39999389648</ele>
        <time>2026-06-15T12:52:30.000Z</time>
      </trkpt>
      <trkpt lat="48.81323" lon="1.45494">
        <ele>135.60000610352</ele>
        <time>2026-06-15T12:52:35.000Z</time>
      </trkpt>
      <trkpt lat="48.81327" lon="1.45487">
        <ele>135.60000610352</ele>
        <time>2026-06-15T12:52:36.000Z</time>
      </trkpt>
      <trkpt lat="48.81341" lon="1.45469">
        <ele>135.39999389648</ele>
        <time>2026-06-15T12:52:39.000Z</time>
      </trkpt>
      <trkpt lat="48.81353" lon="1.45453">
        <ele>135.39999389648</ele>
        <time>2026-06-15T12:52:42.000Z</time>
      </trkpt>
      <trkpt lat="48.8137" lon="1.4543">
        <ele>135.60000610352</ele>
        <time>2026-06-15T12:52:46.000Z</time>
      </trkpt>
      <trkpt lat="48.81378" lon="1.45418">
        <ele>135.39999389648</ele>
        <time>2026-06-15T12:52:48.000Z</time>
      </trkpt>
      <trkpt lat="48.81389" lon="1.45399">
        <ele>135.60000610352</ele>
        <time>2026-06-15T12:52:51.000Z</time>
      </trkpt>
      <trkpt lat="48.81397" lon="1.45386">
        <ele>135.80000305176</ele>
        <time>2026-06-15T12:52:53.000Z</time>
      </trkpt>
      <trkpt lat="48.81427" lon="1.45348">
        <ele>135.60000610352</ele>
        <time>2026-06-15T12:52:59.000Z</time>
      </trkpt>
      <trkpt lat="48.81431" lon="1.45341">
        <ele>135.39999389648</ele>
        <time>2026-06-15T12:53:00.000Z</time>
      </trkpt>
      <trkpt lat="48.81435" lon="1.45335">
        <ele>135.39999389648</ele>
        <time>2026-06-15T12:53:01.000Z</time>
      </trkpt>
      <trkpt lat="48.81445" lon="1.45322">
        <ele>135.39999389648</ele>
        <time>2026-06-15T12:53:03.000Z</time>
      </trkpt>
      <trkpt lat="48.8145" lon="1.45315">
        <ele>135.19999694824</ele>
        <time>2026-06-15T12:53:04.000Z</time>
      </trkpt>
      <trkpt lat="48.8148" lon="1.45276">
        <ele>135</ele>
        <time>2026-06-15T12:53:10.000Z</time>
      </trkpt>
      <trkpt lat="48.81485" lon="1.45269">
        <ele>135</ele>
        <time>2026-06-15T12:53:11.000Z</time>
      </trkpt>
      <trkpt lat="48.81516" lon="1.45228">
        <ele>135.60000610352</ele>
        <time>2026-06-15T12:53:18.000Z</time>
      </trkpt>
      <trkpt lat="48.81541" lon="1.45195">
        <ele>136</ele>
        <time>2026-06-15T12:53:24.000Z</time>
      </trkpt>
      <trkpt lat="48.81567" lon="1.4516">
        <ele>136.39999389648</ele>
        <time>2026-06-15T12:53:30.000Z</time>
      </trkpt>
      <trkpt lat="48.81572" lon="1.45154">
        <ele>136.39999389648</ele>
        <time>2026-06-15T12:53:31.000Z</time>
      </trkpt>
      <trkpt lat="48.81605" lon="1.45107">
        <ele>136.80000305176</ele>
        <time>2026-06-15T12:53:38.000Z</time>
      </trkpt>
      <trkpt lat="48.81619" lon="1.4509">
        <ele>136.80000305176</ele>
        <time>2026-06-15T12:53:41.000Z</time>
      </trkpt>
      <trkpt lat="48.81636" lon="1.4507">
        <ele>136.80000305176</ele>
        <time>2026-06-15T12:53:44.000Z</time>
      </trkpt>
      <trkpt lat="48.81665" lon="1.45023">
        <ele>136.60000610352</ele>
        <time>2026-06-15T12:53:50.000Z</time>
      </trkpt>
      <trkpt lat="48.81669" lon="1.45018">
        <ele>136.60000610352</ele>
        <time>2026-06-15T12:53:51.000Z</time>
      </trkpt>
      <trkpt lat="48.81676" lon="1.45011">
        <ele>136.39999389648</ele>
        <time>2026-06-15T12:53:52.000Z</time>
      </trkpt>
      <trkpt lat="48.81691" lon="1.44993">
        <ele>136.39999389648</ele>
        <time>2026-06-15T12:53:55.000Z</time>
      </trkpt>
      <trkpt lat="48.81725" lon="1.44949">
        <ele>135.60000610352</ele>
        <time>2026-06-15T12:54:02.000Z</time>
      </trkpt>
      <trkpt lat="48.81729" lon="1.44943">
        <ele>135.60000610352</ele>
        <time>2026-06-15T12:54:03.000Z</time>
      </trkpt>
      <trkpt lat="48.81748" lon="1.44918">
        <ele>135.39999389648</ele>
        <time>2026-06-15T12:54:07.000Z</time>
      </trkpt>
      <trkpt lat="48.81757" lon="1.44903">
        <ele>135.39999389648</ele>
        <time>2026-06-15T12:54:09.000Z</time>
      </trkpt>
      <trkpt lat="48.81775" lon="1.44876">
        <ele>135.39999389648</ele>
        <time>2026-06-15T12:54:13.000Z</time>
      </trkpt>
      <trkpt lat="48.81797" lon="1.44842">
        <ele>135.60000610352</ele>
        <time>2026-06-15T12:54:18.000Z</time>
      </trkpt>
      <trkpt lat="48.81831" lon="1.44797">
        <ele>134.80000305176</ele>
        <time>2026-06-15T12:54:25.000Z</time>
      </trkpt>
      <trkpt lat="48.81841" lon="1.44782">
        <ele>134.60000610352</ele>
        <time>2026-06-15T12:54:27.000Z</time>
      </trkpt>
      <trkpt lat="48.81854" lon="1.4476">
        <ele>134.39999389648</ele>
        <time>2026-06-15T12:54:30.000Z</time>
      </trkpt>
      <trkpt lat="48.81863" lon="1.44745">
        <ele>134.39999389648</ele>
        <time>2026-06-15T12:54:32.000Z</time>
      </trkpt>
      <trkpt lat="48.81874" lon="1.44734">
        <ele>134.19999694824</ele>
        <time>2026-06-15T12:54:34.000Z</time>
      </trkpt>
      <trkpt lat="48.8188" lon="1.44726">
        <ele>134.19999694824</ele>
        <time>2026-06-15T12:54:35.000Z</time>
      </trkpt>
      <trkpt lat="48.81884" lon="1.44716">
        <ele>134</ele>
        <time>2026-06-15T12:54:36.000Z</time>
      </trkpt>
      <trkpt lat="48.81888" lon="1.44704">
        <ele>133.80000305176</ele>
        <time>2026-06-15T12:54:37.000Z</time>
      </trkpt>
      <trkpt lat="48.81894" lon="1.44697">
        <ele>133.60000610352</ele>
        <time>2026-06-15T12:54:38.000Z</time>
      </trkpt>
      <trkpt lat="48.819" lon="1.44689">
        <ele>133.60000610352</ele>
        <time>2026-06-15T12:54:39.000Z</time>
      </trkpt>
      <trkpt lat="48.81906" lon="1.44681">
        <ele>133.19999694824</ele>
        <time>2026-06-15T12:54:40.000Z</time>
      </trkpt>
      <trkpt lat="48.81926" lon="1.44655">
        <ele>132.39999389648</ele>
        <time>2026-06-15T12:54:43.000Z</time>
      </trkpt>
      <trkpt lat="48.81932" lon="1.44646">
        <ele>132.19999694824</ele>
        <time>2026-06-15T12:54:44.000Z</time>
      </trkpt>
      <trkpt lat="48.81944" lon="1.44626">
        <ele>131.39999389648</ele>
        <time>2026-06-15T12:54:46.000Z</time>
      </trkpt>
      <trkpt lat="48.81957" lon="1.44595">
        <ele>130.60000610352</ele>
        <time>2026-06-15T12:54:49.000Z</time>
      </trkpt>
      <trkpt lat="48.81966" lon="1.44565">
        <ele>130.39999389648</ele>
        <time>2026-06-15T12:54:52.000Z</time>
      </trkpt>
      <trkpt lat="48.8197" lon="1.44545">
        <ele>130.39999389648</ele>
        <time>2026-06-15T12:54:54.000Z</time>
      </trkpt>
      <trkpt lat="48.81976" lon="1.44487">
        <ele>131</ele>
        <time>2026-06-15T12:55:00.000Z</time>
      </trkpt>
      <trkpt lat="48.8198" lon="1.44438">
        <ele>131.19999694824</ele>
        <time>2026-06-15T12:55:05.000Z</time>
      </trkpt>
      <trkpt lat="48.81981" lon="1.44428">
        <ele>131.19999694824</ele>
        <time>2026-06-15T12:55:06.000Z</time>
      </trkpt>
      <trkpt lat="48.8199" lon="1.44359">
        <ele>131.39999389648</ele>
        <time>2026-06-15T12:55:13.000Z</time>
      </trkpt>
      <trkpt lat="48.8199" lon="1.44349">
        <ele>131.39999389648</ele>
        <time>2026-06-15T12:55:14.000Z</time>
      </trkpt>
      <trkpt lat="48.81989" lon="1.44314">
        <ele>131.39999389648</ele>
        <time>2026-06-15T12:55:18.000Z</time>
      </trkpt>
      <trkpt lat="48.8199" lon="1.44305">
        <ele>131.39999389648</ele>
        <time>2026-06-15T12:55:19.000Z</time>
      </trkpt>
      <trkpt lat="48.81991" lon="1.44289">
        <ele>131.80000305176</ele>
        <time>2026-06-15T12:55:21.000Z</time>
      </trkpt>
      <trkpt lat="48.81994" lon="1.44264">
        <ele>132.39999389648</ele>
        <time>2026-06-15T12:55:24.000Z</time>
      </trkpt>
      <trkpt lat="48.81996" lon="1.44256">
        <ele>132.60000610352</ele>
        <time>2026-06-15T12:55:25.000Z</time>
      </trkpt>
      <trkpt lat="48.82001" lon="1.44232">
        <ele>133.19999694824</ele>
        <time>2026-06-15T12:55:28.000Z</time>
      </trkpt>
      <trkpt lat="48.82003" lon="1.44215">
        <ele>133.39999389648</ele>
        <time>2026-06-15T12:55:30.000Z</time>
      </trkpt>
      <trkpt lat="48.82004" lon="1.44206">
        <ele>133.39999389648</ele>
        <time>2026-06-15T12:55:31.000Z</time>
      </trkpt>
      <trkpt lat="48.82005" lon="1.44198">
        <ele>133.60000610352</ele>
        <time>2026-06-15T12:55:32.000Z</time>
      </trkpt>
      <trkpt lat="48.82007" lon="1.4419">
        <ele>133.80000305176</ele>
        <time>2026-06-15T12:55:33.000Z</time>
      </trkpt>
      <trkpt lat="48.82013" lon="1.44158">
        <ele>134.39999389648</ele>
        <time>2026-06-15T12:55:37.000Z</time>
      </trkpt>
      <trkpt lat="48.82015" lon="1.44141">
        <ele>134.60000610352</ele>
        <time>2026-06-15T12:55:39.000Z</time>
      </trkpt>
      <trkpt lat="48.82018" lon="1.44125">
        <ele>134.80000305176</ele>
        <time>2026-06-15T12:55:41.000Z</time>
      </trkpt>
      <trkpt lat="48.82019" lon="1.44116">
        <ele>134.80000305176</ele>
        <time>2026-06-15T12:55:42.000Z</time>
      </trkpt>
      <trkpt lat="48.82023" lon="1.4409">
        <ele>135.19999694824</ele>
        <time>2026-06-15T12:55:45.000Z</time>
      </trkpt>
      <trkpt lat="48.82025" lon="1.44076">
        <ele>135.39999389648</ele>
        <time>2026-06-15T12:55:47.000Z</time>
      </trkpt>
      <trkpt lat="48.82026" lon="1.44059">
        <ele>135.60000610352</ele>
        <time>2026-06-15T12:55:49.000Z</time>
      </trkpt>
      <trkpt lat="48.82026" lon="1.4405">
        <ele>135.60000610352</ele>
        <time>2026-06-15T12:55:50.000Z</time>
      </trkpt>
      <trkpt lat="48.82026" lon="1.44041">
        <ele>135.60000610352</ele>
        <time>2026-06-15T12:55:51.000Z</time>
      </trkpt>
      <trkpt lat="48.8203" lon="1.44024">
        <ele>135.80000305176</ele>
        <time>2026-06-15T12:55:53.000Z</time>
      </trkpt>
      <trkpt lat="48.82036" lon="1.43987">
        <ele>135.80000305176</ele>
        <time>2026-06-15T12:55:57.000Z</time>
      </trkpt>
      <trkpt lat="48.82037" lon="1.43978">
        <ele>136</ele>
        <time>2026-06-15T12:55:58.000Z</time>
      </trkpt>
      <trkpt lat="48.82038" lon="1.43968">
        <ele>136</ele>
        <time>2026-06-15T12:55:59.000Z</time>
      </trkpt>
      <trkpt lat="48.82041" lon="1.43921">
        <ele>136.19999694824</ele>
        <time>2026-06-15T12:56:04.000Z</time>
      </trkpt>
      <trkpt lat="48.82045" lon="1.43895">
        <ele>136.39999389648</ele>
        <time>2026-06-15T12:56:07.000Z</time>
      </trkpt>
      <trkpt lat="48.82045" lon="1.43876">
        <ele>136.60000610352</ele>
        <time>2026-06-15T12:56:09.000Z</time>
      </trkpt>
      <trkpt lat="48.82049" lon="1.43852">
        <ele>136.60000610352</ele>
        <time>2026-06-15T12:56:12.000Z</time>
      </trkpt>
      <trkpt lat="48.82054" lon="1.43836">
        <ele>136.60000610352</ele>
        <time>2026-06-15T12:56:14.000Z</time>
      </trkpt>
      <trkpt lat="48.82055" lon="1.4382">
        <ele>136.60000610352</ele>
        <time>2026-06-15T12:56:16.000Z</time>
      </trkpt>
      <trkpt lat="48.82056" lon="1.43795">
        <ele>136.80000305176</ele>
        <time>2026-06-15T12:56:19.000Z</time>
      </trkpt>
      <trkpt lat="48.82057" lon="1.43777">
        <ele>136.80000305176</ele>
        <time>2026-06-15T12:56:21.000Z</time>
      </trkpt>
      <trkpt lat="48.82062" lon="1.4375">
        <ele>136.80000305176</ele>
        <time>2026-06-15T12:56:24.000Z</time>
      </trkpt>
      <trkpt lat="48.82063" lon="1.43741">
        <ele>136.80000305176</ele>
        <time>2026-06-15T12:56:25.000Z</time>
      </trkpt>
      <trkpt lat="48.82067" lon="1.43699">
        <ele>137</ele>
        <time>2026-06-15T12:56:30.000Z</time>
      </trkpt>
      <trkpt lat="48.82072" lon="1.43642">
        <ele>137.19999694824</ele>
        <time>2026-06-15T12:56:36.000Z</time>
      </trkpt>
      <trkpt lat="48.82072" lon="1.43632">
        <ele>137.19999694824</ele>
        <time>2026-06-15T12:56:37.000Z</time>
      </trkpt>
      <trkpt lat="48.8208" lon="1.43595">
        <ele>137.19999694824</ele>
        <time>2026-06-15T12:56:41.000Z</time>
      </trkpt>
      <trkpt lat="48.82086" lon="1.43564">
        <ele>137.19999694824</ele>
        <time>2026-06-15T12:56:44.000Z</time>
      </trkpt>
      <trkpt lat="48.82089" lon="1.43546">
        <ele>137.19999694824</ele>
        <time>2026-06-15T12:56:46.000Z</time>
      </trkpt>
      <trkpt lat="48.82091" lon="1.43528">
        <ele>137.19999694824</ele>
        <time>2026-06-15T12:56:48.000Z</time>
      </trkpt>
      <trkpt lat="48.82091" lon="1.43509">
        <ele>137.19999694824</ele>
        <time>2026-06-15T12:56:50.000Z</time>
      </trkpt>
      <trkpt lat="48.82093" lon="1.43501">
        <ele>137.19999694824</ele>
        <time>2026-06-15T12:56:51.000Z</time>
      </trkpt>
      <trkpt lat="48.82094" lon="1.43483">
        <ele>137.19999694824</ele>
        <time>2026-06-15T12:56:53.000Z</time>
      </trkpt>
      <trkpt lat="48.82097" lon="1.43465">
        <ele>137.19999694824</ele>
        <time>2026-06-15T12:56:55.000Z</time>
      </trkpt>
      <trkpt lat="48.82098" lon="1.43459">
        <ele>137.19999694824</ele>
        <time>2026-06-15T12:56:56.000Z</time>
      </trkpt>
      <trkpt lat="48.82099" lon="1.43452">
        <ele>137.19999694824</ele>
        <time>2026-06-15T12:56:57.000Z</time>
      </trkpt>
      <trkpt lat="48.82103" lon="1.43429">
        <ele>137.19999694824</ele>
        <time>2026-06-15T12:57:00.000Z</time>
      </trkpt>
      <trkpt lat="48.82105" lon="1.43421">
        <ele>137.19999694824</ele>
        <time>2026-06-15T12:57:01.000Z</time>
      </trkpt>
      <trkpt lat="48.8211" lon="1.43402">
        <ele>137.19999694824</ele>
        <time>2026-06-15T12:57:03.000Z</time>
      </trkpt>
      <trkpt lat="48.82113" lon="1.43385">
        <ele>137.19999694824</ele>
        <time>2026-06-15T12:57:05.000Z</time>
      </trkpt>
      <trkpt lat="48.82116" lon="1.43356">
        <ele>137.19999694824</ele>
        <time>2026-06-15T12:57:08.000Z</time>
      </trkpt>
      <trkpt lat="48.82119" lon="1.43336">
        <ele>137.19999694824</ele>
        <time>2026-06-15T12:57:10.000Z</time>
      </trkpt>
      <trkpt lat="48.8212" lon="1.43327">
        <ele>137.19999694824</ele>
        <time>2026-06-15T12:57:11.000Z</time>
      </trkpt>
      <trkpt lat="48.82121" lon="1.43308">
        <ele>137.19999694824</ele>
        <time>2026-06-15T12:57:13.000Z</time>
      </trkpt>
      <trkpt lat="48.82125" lon="1.43279">
        <ele>137.19999694824</ele>
        <time>2026-06-15T12:57:16.000Z</time>
      </trkpt>
      <trkpt lat="48.82126" lon="1.43258">
        <ele>137</ele>
        <time>2026-06-15T12:57:18.000Z</time>
      </trkpt>
      <trkpt lat="48.82127" lon="1.43247">
        <ele>137</ele>
        <time>2026-06-15T12:57:19.000Z</time>
      </trkpt>
      <trkpt lat="48.82128" lon="1.43236">
        <ele>137</ele>
        <time>2026-06-15T12:57:20.000Z</time>
      </trkpt>
      <trkpt lat="48.82132" lon="1.43207">
        <ele>137</ele>
        <time>2026-06-15T12:57:23.000Z</time>
      </trkpt>
      <trkpt lat="48.82133" lon="1.43187">
        <ele>137</ele>
        <time>2026-06-15T12:57:25.000Z</time>
      </trkpt>
      <trkpt lat="48.82144" lon="1.4312">
        <ele>137</ele>
        <time>2026-06-15T12:57:32.000Z</time>
      </trkpt>
      <trkpt lat="48.82152" lon="1.43048">
        <ele>136.60000610352</ele>
        <time>2026-06-15T12:57:39.000Z</time>
      </trkpt>
      <trkpt lat="48.82163" lon="1.42963">
        <ele>136</ele>
        <time>2026-06-15T12:57:47.000Z</time>
      </trkpt>
      <trkpt lat="48.82167" lon="1.42905">
        <ele>135.19999694824</ele>
        <time>2026-06-15T12:57:52.000Z</time>
      </trkpt>
      <trkpt lat="48.8217" lon="1.42881">
        <ele>134.60000610352</ele>
        <time>2026-06-15T12:57:54.000Z</time>
      </trkpt>
      <trkpt lat="48.82173" lon="1.42857">
        <ele>134.19999694824</ele>
        <time>2026-06-15T12:57:56.000Z</time>
      </trkpt>
      <trkpt lat="48.82175" lon="1.42837">
        <ele>133.60000610352</ele>
        <time>2026-06-15T12:57:58.000Z</time>
      </trkpt>
      <trkpt lat="48.82179" lon="1.42829">
        <ele>133.19999694824</ele>
        <time>2026-06-15T12:57:59.000Z</time>
      </trkpt>
      <trkpt lat="48.82185" lon="1.42824">
        <ele>133</ele>
        <time>2026-06-15T12:58:00.000Z</time>
      </trkpt>
      <trkpt lat="48.82199" lon="1.42821">
        <ele>132.60000610352</ele>
        <time>2026-06-15T12:58:02.000Z</time>
      </trkpt>
      <trkpt lat="48.82221" lon="1.42819">
        <ele>131.80000305176</ele>
        <time>2026-06-15T12:58:05.000Z</time>
      </trkpt>
      <trkpt lat="48.82235" lon="1.42819">
        <ele>131.19999694824</ele>
        <time>2026-06-15T12:58:07.000Z</time>
      </trkpt>
      <trkpt lat="48.82247" lon="1.4282">
        <ele>130.80000305176</ele>
        <time>2026-06-15T12:58:09.000Z</time>
      </trkpt>
      <trkpt lat="48.82257" lon="1.4282">
        <ele>130.60000610352</ele>
        <time>2026-06-15T12:58:11.000Z</time>
      </trkpt>
      <trkpt lat="48.82292" lon="1.4282">
        <ele>130.39999389648</ele>
        <time>2026-06-15T12:58:17.000Z</time>
      </trkpt>
      <trkpt lat="48.82335" lon="1.42816">
        <ele>131.39999389648</ele>
        <time>2026-06-15T12:58:24.000Z</time>
      </trkpt>
      <trkpt lat="48.82349" lon="1.42815">
        <ele>132.19999694824</ele>
        <time>2026-06-15T12:58:27.000Z</time>
      </trkpt>
      <trkpt lat="48.82369" lon="1.42815">
        <ele>132.60000610352</ele>
        <time>2026-06-15T12:58:30.000Z</time>
      </trkpt>
      <trkpt lat="48.82378" lon="1.42818">
        <ele>133.19999694824</ele>
        <time>2026-06-15T12:58:32.000Z</time>
      </trkpt>
      <trkpt lat="48.82403" lon="1.42814">
        <ele>134</ele>
        <time>2026-06-15T12:58:36.000Z</time>
      </trkpt>
      <trkpt lat="48.82414" lon="1.42814">
        <ele>134.39999389648</ele>
        <time>2026-06-15T12:58:38.000Z</time>
      </trkpt>
      <trkpt lat="48.82429" lon="1.42814">
        <ele>134.60000610352</ele>
        <time>2026-06-15T12:58:41.000Z</time>
      </trkpt>
      <trkpt lat="48.82438" lon="1.42811">
        <ele>134.80000305176</ele>
        <time>2026-06-15T12:58:43.000Z</time>
      </trkpt>
      <trkpt lat="48.82466" lon="1.42815">
        <ele>135</ele>
        <time>2026-06-15T12:58:48.000Z</time>
      </trkpt>
      <trkpt lat="48.82505" lon="1.42809">
        <ele>135.39999389648</ele>
        <time>2026-06-15T12:58:55.000Z</time>
      </trkpt>
      <trkpt lat="48.8251" lon="1.42811">
        <ele>135.39999389648</ele>
        <time>2026-06-15T12:58:56.000Z</time>
      </trkpt>
      <trkpt lat="48.82527" lon="1.42812">
        <ele>135.60000610352</ele>
        <time>2026-06-15T12:58:59.000Z</time>
      </trkpt>
      <trkpt lat="48.82548" lon="1.42805">
        <ele>135.80000305176</ele>
        <time>2026-06-15T12:59:03.000Z</time>
      </trkpt>
      <trkpt lat="48.82553" lon="1.42804">
        <ele>135.80000305176</ele>
        <time>2026-06-15T12:59:04.000Z</time>
      </trkpt>
      <trkpt lat="48.82559" lon="1.42804">
        <ele>135.80000305176</ele>
        <time>2026-06-15T12:59:05.000Z</time>
      </trkpt>
      <trkpt lat="48.82565" lon="1.42803">
        <ele>136</ele>
        <time>2026-06-15T12:59:06.000Z</time>
      </trkpt>
      <trkpt lat="48.82581" lon="1.42805">
        <ele>136</ele>
        <time>2026-06-15T12:59:09.000Z</time>
      </trkpt>
      <trkpt lat="48.82613" lon="1.42806">
        <ele>136.19999694824</ele>
        <time>2026-06-15T12:59:14.000Z</time>
      </trkpt>
      <trkpt lat="48.82653" lon="1.42798">
        <ele>136.39999389648</ele>
        <time>2026-06-15T12:59:21.000Z</time>
      </trkpt>
      <trkpt lat="48.82673" lon="1.42797">
        <ele>136.39999389648</ele>
        <time>2026-06-15T12:59:25.000Z</time>
      </trkpt>
      <trkpt lat="48.82695" lon="1.42799">
        <ele>136.60000610352</ele>
        <time>2026-06-15T12:59:29.000Z</time>
      </trkpt>
      <trkpt lat="48.82722" lon="1.42793">
        <ele>136.80000305176</ele>
        <time>2026-06-15T12:59:34.000Z</time>
      </trkpt>
      <trkpt lat="48.82748" lon="1.42797">
        <ele>137.19999694824</ele>
        <time>2026-06-15T12:59:39.000Z</time>
      </trkpt>
      <trkpt lat="48.82767" lon="1.42793">
        <ele>137.19999694824</ele>
        <time>2026-06-15T12:59:42.000Z</time>
      </trkpt>
      <trkpt lat="48.82773" lon="1.42793">
        <ele>137.19999694824</ele>
        <time>2026-06-15T12:59:43.000Z</time>
      </trkpt>
      <trkpt lat="48.82809" lon="1.42799">
        <ele>137.60000610352</ele>
        <time>2026-06-15T12:59:49.000Z</time>
      </trkpt>
      <trkpt lat="48.82826" lon="1.42802">
        <ele>137.80000305176</ele>
        <time>2026-06-15T12:59:52.000Z</time>
      </trkpt>
      <trkpt lat="48.82839" lon="1.42806">
        <ele>137.80000305176</ele>
        <time>2026-06-15T12:59:54.000Z</time>
      </trkpt>
      <trkpt lat="48.82847" lon="1.4281">
        <ele>138</ele>
        <time>2026-06-15T12:59:55.000Z</time>
      </trkpt>
      <trkpt lat="48.82869" lon="1.42813">
        <ele>138</ele>
        <time>2026-06-15T12:59:58.000Z</time>
      </trkpt>
      <trkpt lat="48.82911" lon="1.4282">
        <ele>137.60000610352</ele>
        <time>2026-06-15T13:00:04.000Z</time>
      </trkpt>
      <trkpt lat="48.82967" lon="1.42833">
        <ele>137.19999694824</ele>
        <time>2026-06-15T13:00:12.000Z</time>
      </trkpt>
      <trkpt lat="48.8298" lon="1.42836">
        <ele>137</ele>
        <time>2026-06-15T13:00:15.000Z</time>
      </trkpt>
      <trkpt lat="48.83028" lon="1.42849">
        <ele>136.60000610352</ele>
        <time>2026-06-15T13:00:22.000Z</time>
      </trkpt>
      <trkpt lat="48.83054" lon="1.42856">
        <ele>136.19999694824</ele>
        <time>2026-06-15T13:00:26.000Z</time>
      </trkpt>
      <trkpt lat="48.831" lon="1.42868">
        <ele>136</ele>
        <time>2026-06-15T13:00:33.000Z</time>
      </trkpt>
      <trkpt lat="48.83132" lon="1.42876">
        <ele>136</ele>
        <time>2026-06-15T13:00:38.000Z</time>
      </trkpt>
      <trkpt lat="48.83188" lon="1.42891">
        <ele>135.80000305176</ele>
        <time>2026-06-15T13:00:47.000Z</time>
      </trkpt>
      <trkpt lat="48.83242" lon="1.42906">
        <ele>136.39999389648</ele>
        <time>2026-06-15T13:00:56.000Z</time>
      </trkpt>
      <trkpt lat="48.83248" lon="1.42907">
        <ele>136.39999389648</ele>
        <time>2026-06-15T13:00:57.000Z</time>
      </trkpt>
      <trkpt lat="48.83299" lon="1.4292">
        <ele>136.60000610352</ele>
        <time>2026-06-15T13:01:06.000Z</time>
      </trkpt>
      <trkpt lat="48.83338" lon="1.42933">
        <ele>137</ele>
        <time>2026-06-15T13:01:13.000Z</time>
      </trkpt>
      <trkpt lat="48.83392" lon="1.42946">
        <ele>137.19999694824</ele>
        <time>2026-06-15T13:01:22.000Z</time>
      </trkpt>
      <trkpt lat="48.83396" lon="1.42947">
        <ele>137.19999694824</ele>
        <time>2026-06-15T13:01:23.000Z</time>
      </trkpt>
      <trkpt lat="48.8345" lon="1.42961">
        <ele>137.19999694824</ele>
        <time>2026-06-15T13:01:32.000Z</time>
      </trkpt>
      <trkpt lat="48.83468" lon="1.42965">
        <ele>137.39999389648</ele>
        <time>2026-06-15T13:01:35.000Z</time>
      </trkpt>
      <trkpt lat="48.83497" lon="1.42973">
        <ele>137.60000610352</ele>
        <time>2026-06-15T13:01:40.000Z</time>
      </trkpt>
      <trkpt lat="48.83522" lon="1.4298">
        <ele>137.60000610352</ele>
        <time>2026-06-15T13:01:45.000Z</time>
      </trkpt>
      <trkpt lat="48.83579" lon="1.42995">
        <ele>137.60000610352</ele>
        <time>2026-06-15T13:01:54.000Z</time>
      </trkpt>
      <trkpt lat="48.83584" lon="1.42997">
        <ele>137.80000305176</ele>
        <time>2026-06-15T13:01:55.000Z</time>
      </trkpt>
      <trkpt lat="48.83638" lon="1.43011">
        <ele>137.80000305176</ele>
        <time>2026-06-15T13:02:04.000Z</time>
      </trkpt>
      <trkpt lat="48.8368" lon="1.43023">
        <ele>137.80000305176</ele>
        <time>2026-06-15T13:02:12.000Z</time>
      </trkpt>
      <trkpt lat="48.83713" lon="1.43033">
        <ele>137.80000305176</ele>
        <time>2026-06-15T13:02:19.000Z</time>
      </trkpt>
      <trkpt lat="48.83742" lon="1.43041">
        <ele>137.80000305176</ele>
        <time>2026-06-15T13:02:26.000Z</time>
      </trkpt>
      <trkpt lat="48.83754" lon="1.43045">
        <ele>137.80000305176</ele>
        <time>2026-06-15T13:02:29.000Z</time>
      </trkpt>
      <trkpt lat="48.83768" lon="1.4305">
        <ele>138</ele>
        <time>2026-06-15T13:02:33.000Z</time>
      </trkpt>
      <trkpt lat="48.83781" lon="1.43053">
        <ele>138</ele>
        <time>2026-06-15T13:02:38.000Z</time>
      </trkpt>
      <trkpt lat="48.83788" lon="1.43051">
        <ele>138.19999694824</ele>
        <time>2026-06-15T13:02:43.000Z</time>
      </trkpt>
      <trkpt lat="48.83789" lon="1.43052">
        <ele>138</ele>
        <time>2026-06-15T13:02:48.000Z</time>
      </trkpt>
      <trkpt lat="48.83789" lon="1.43052">
        <ele>138</ele>
        <time>2026-06-15T13:02:56.000Z</time>
      </trkpt>
      <trkpt lat="48.8379" lon="1.43052">
        <ele>137.80000305176</ele>
        <time>2026-06-15T13:03:15.000Z</time>
      </trkpt>
      <trkpt lat="48.83792" lon="1.43053">
        <ele>137.80000305176</ele>
        <time>2026-06-15T13:03:18.000Z</time>
      </trkpt>
      <trkpt lat="48.838" lon="1.43057">
        <ele>138.19999694824</ele>
        <time>2026-06-15T13:03:39.000Z</time>
      </trkpt>
      <trkpt lat="48.83802" lon="1.43057">
        <ele>138.19999694824</ele>
        <time>2026-06-15T13:03:40.000Z</time>
      </trkpt>
      <trkpt lat="48.83816" lon="1.43059">
        <ele>138.19999694824</ele>
        <time>2026-06-15T13:03:45.000Z</time>
      </trkpt>
      <trkpt lat="48.8384" lon="1.43065">
        <ele>138.19999694824</ele>
        <time>2026-06-15T13:03:51.000Z</time>
      </trkpt>
      <trkpt lat="48.83877" lon="1.43078">
        <ele>138</ele>
        <time>2026-06-15T13:03:57.000Z</time>
      </trkpt>
      <trkpt lat="48.83926" lon="1.43092">
        <ele>137.80000305176</ele>
        <time>2026-06-15T13:04:05.000Z</time>
      </trkpt>
      <trkpt lat="48.83976" lon="1.43105">
        <ele>137.80000305176</ele>
        <time>2026-06-15T13:04:13.000Z</time>
      </trkpt>
      <trkpt lat="48.84016" lon="1.43116">
        <ele>137.80000305176</ele>
        <time>2026-06-15T13:04:20.000Z</time>
      </trkpt>
      <trkpt lat="48.84055" lon="1.43125">
        <ele>138</ele>
        <time>2026-06-15T13:04:27.000Z</time>
      </trkpt>
      <trkpt lat="48.8411" lon="1.4314">
        <ele>137.60000610352</ele>
        <time>2026-06-15T13:04:36.000Z</time>
      </trkpt>
      <trkpt lat="48.84151" lon="1.4315">
        <ele>137.19999694824</ele>
        <time>2026-06-15T13:04:43.000Z</time>
      </trkpt>
      <trkpt lat="48.84184" lon="1.43159">
        <ele>137.19999694824</ele>
        <time>2026-06-15T13:04:49.000Z</time>
      </trkpt>
      <trkpt lat="48.84208" lon="1.43168">
        <ele>137.39999389648</ele>
        <time>2026-06-15T13:04:54.000Z</time>
      </trkpt>
      <trkpt lat="48.84218" lon="1.4317">
        <ele>137.39999389648</ele>
        <time>2026-06-15T13:04:56.000Z</time>
      </trkpt>
      <trkpt lat="48.84247" lon="1.43179">
        <ele>136.80000305176</ele>
        <time>2026-06-15T13:05:00.000Z</time>
      </trkpt>
      <trkpt lat="48.84285" lon="1.43189">
        <ele>136.39999389648</ele>
        <time>2026-06-15T13:05:06.000Z</time>
      </trkpt>
      <trkpt lat="48.843" lon="1.43191">
        <ele>136.19999694824</ele>
        <time>2026-06-15T13:05:09.000Z</time>
      </trkpt>
      <trkpt lat="48.84307" lon="1.43194">
        <ele>136</ele>
        <time>2026-06-15T13:05:10.000Z</time>
      </trkpt>
      <trkpt lat="48.84333" lon="1.43199">
        <ele>135.60000610352</ele>
        <time>2026-06-15T13:05:14.000Z</time>
      </trkpt>
      <trkpt lat="48.84373" lon="1.43211">
        <ele>134.80000305176</ele>
        <time>2026-06-15T13:05:19.000Z</time>
      </trkpt>
      <trkpt lat="48.84383" lon="1.43214">
        <ele>134.60000610352</ele>
        <time>2026-06-15T13:05:20.000Z</time>
      </trkpt>
      <trkpt lat="48.84393" lon="1.43218">
        <ele>134</ele>
        <time>2026-06-15T13:05:21.000Z</time>
      </trkpt>
      <trkpt lat="48.84403" lon="1.43222">
        <ele>133.80000305176</ele>
        <time>2026-06-15T13:05:22.000Z</time>
      </trkpt>
      <trkpt lat="48.84424" lon="1.4323">
        <ele>132.60000610352</ele>
        <time>2026-06-15T13:05:24.000Z</time>
      </trkpt>
      <trkpt lat="48.84436" lon="1.43233">
        <ele>132.39999389648</ele>
        <time>2026-06-15T13:05:25.000Z</time>
      </trkpt>
      <trkpt lat="48.84449" lon="1.43236">
        <ele>131.39999389648</ele>
        <time>2026-06-15T13:05:26.000Z</time>
      </trkpt>
      <trkpt lat="48.84475" lon="1.43247">
        <ele>130</ele>
        <time>2026-06-15T13:05:28.000Z</time>
      </trkpt>
      <trkpt lat="48.84486" lon="1.43253">
        <ele>129.60000610352</ele>
        <time>2026-06-15T13:05:29.000Z</time>
      </trkpt>
      <trkpt lat="48.84509" lon="1.43263">
        <ele>128.39999389648</ele>
        <time>2026-06-15T13:05:31.000Z</time>
      </trkpt>
      <trkpt lat="48.84531" lon="1.43273">
        <ele>126.59999847412</ele>
        <time>2026-06-15T13:05:33.000Z</time>
      </trkpt>
      <trkpt lat="48.84553" lon="1.43282">
        <ele>124.80000305176</ele>
        <time>2026-06-15T13:05:35.000Z</time>
      </trkpt>
      <trkpt lat="48.84572" lon="1.43293">
        <ele>123.19999694824</ele>
        <time>2026-06-15T13:05:37.000Z</time>
      </trkpt>
      <trkpt lat="48.84584" lon="1.43303">
        <ele>121.40000152588</ele>
        <time>2026-06-15T13:05:38.000Z</time>
      </trkpt>
      <trkpt lat="48.84603" lon="1.43319">
        <ele>119.59999847412</ele>
        <time>2026-06-15T13:05:40.000Z</time>
      </trkpt>
      <trkpt lat="48.84619" lon="1.43333">
        <ele>117.59999847412</ele>
        <time>2026-06-15T13:05:42.000Z</time>
      </trkpt>
      <trkpt lat="48.84629" lon="1.43339">
        <ele>116.19999694824</ele>
        <time>2026-06-15T13:05:43.000Z</time>
      </trkpt>
      <trkpt lat="48.84646" lon="1.43346">
        <ele>114</ele>
        <time>2026-06-15T13:05:45.000Z</time>
      </trkpt>
      <trkpt lat="48.84662" lon="1.43349">
        <ele>112</ele>
        <time>2026-06-15T13:05:47.000Z</time>
      </trkpt>
      <trkpt lat="48.8467" lon="1.43349">
        <ele>110.80000305176</ele>
        <time>2026-06-15T13:05:48.000Z</time>
      </trkpt>
      <trkpt lat="48.84677" lon="1.43349">
        <ele>110.19999694824</ele>
        <time>2026-06-15T13:05:49.000Z</time>
      </trkpt>
      <trkpt lat="48.84682" lon="1.4335">
        <ele>109.19999694824</ele>
        <time>2026-06-15T13:05:50.000Z</time>
      </trkpt>
      <trkpt lat="48.84695" lon="1.43354">
        <ele>107.59999847412</ele>
        <time>2026-06-15T13:05:52.000Z</time>
      </trkpt>
      <trkpt lat="48.84701" lon="1.43358">
        <ele>106.80000305176</ele>
        <time>2026-06-15T13:05:53.000Z</time>
      </trkpt>
      <trkpt lat="48.84706" lon="1.43362">
        <ele>105.80000305176</ele>
        <time>2026-06-15T13:05:54.000Z</time>
      </trkpt>
      <trkpt lat="48.84711" lon="1.43365">
        <ele>104.80000305176</ele>
        <time>2026-06-15T13:05:55.000Z</time>
      </trkpt>
      <trkpt lat="48.84721" lon="1.43367">
        <ele>103.19999694824</ele>
        <time>2026-06-15T13:05:57.000Z</time>
      </trkpt>
      <trkpt lat="48.84728" lon="1.43365">
        <ele>102.80000305176</ele>
        <time>2026-06-15T13:05:58.000Z</time>
      </trkpt>
      <trkpt lat="48.84743" lon="1.43357">
        <ele>102</ele>
        <time>2026-06-15T13:06:00.000Z</time>
      </trkpt>
      <trkpt lat="48.8476" lon="1.43359">
        <ele>101.19999694824</ele>
        <time>2026-06-15T13:06:02.000Z</time>
      </trkpt>
      <trkpt lat="48.84768" lon="1.43363">
        <ele>100.80000305176</ele>
        <time>2026-06-15T13:06:03.000Z</time>
      </trkpt>
      <trkpt lat="48.84783" lon="1.43372">
        <ele>99.599998474121</ele>
        <time>2026-06-15T13:06:05.000Z</time>
      </trkpt>
      <trkpt lat="48.848" lon="1.43379">
        <ele>98.400001525879</ele>
        <time>2026-06-15T13:06:07.000Z</time>
      </trkpt>
      <trkpt lat="48.8481" lon="1.43381">
        <ele>98</ele>
        <time>2026-06-15T13:06:08.000Z</time>
      </trkpt>
      <trkpt lat="48.84818" lon="1.43384">
        <ele>97.400001525879</ele>
        <time>2026-06-15T13:06:09.000Z</time>
      </trkpt>
      <trkpt lat="48.84841" lon="1.43391">
        <ele>96.199996948242</ele>
        <time>2026-06-15T13:06:12.000Z</time>
      </trkpt>
      <trkpt lat="48.8486" lon="1.43396">
        <ele>95</ele>
        <time>2026-06-15T13:06:14.000Z</time>
      </trkpt>
      <trkpt lat="48.84884" lon="1.43402">
        <ele>94</ele>
        <time>2026-06-15T13:06:17.000Z</time>
      </trkpt>
      <trkpt lat="48.84904" lon="1.43407">
        <ele>93</ele>
        <time>2026-06-15T13:06:19.000Z</time>
      </trkpt>
      <trkpt lat="48.84912" lon="1.4341">
        <ele>92.599998474121</ele>
        <time>2026-06-15T13:06:20.000Z</time>
      </trkpt>
      <trkpt lat="48.84939" lon="1.43418">
        <ele>91.400001525879</ele>
        <time>2026-06-15T13:06:23.000Z</time>
      </trkpt>
      <trkpt lat="48.84963" lon="1.43426">
        <ele>90.400001525879</ele>
        <time>2026-06-15T13:06:26.000Z</time>
      </trkpt>
      <trkpt lat="48.84981" lon="1.43431">
        <ele>89.800003051758</ele>
        <time>2026-06-15T13:06:28.000Z</time>
      </trkpt>
      <trkpt lat="48.84998" lon="1.43436">
        <ele>89.400001525879</ele>
        <time>2026-06-15T13:06:30.000Z</time>
      </trkpt>
      <trkpt lat="48.85025" lon="1.43444">
        <ele>88</ele>
        <time>2026-06-15T13:06:33.000Z</time>
      </trkpt>
      <trkpt lat="48.85053" lon="1.43453">
        <ele>87.400001525879</ele>
        <time>2026-06-15T13:06:36.000Z</time>
      </trkpt>
      <trkpt lat="48.85059" lon="1.43455">
        <ele>87</ele>
        <time>2026-06-15T13:06:37.000Z</time>
      </trkpt>
      <trkpt lat="48.85106" lon="1.43469">
        <ele>86</ele>
        <time>2026-06-15T13:06:42.000Z</time>
      </trkpt>
      <trkpt lat="48.85132" lon="1.43477">
        <ele>85.400001525879</ele>
        <time>2026-06-15T13:06:46.000Z</time>
      </trkpt>
      <trkpt lat="48.85172" lon="1.43487">
        <ele>84.800003051758</ele>
        <time>2026-06-15T13:06:51.000Z</time>
      </trkpt>
      <trkpt lat="48.85186" lon="1.43492">
        <ele>84.400001525879</ele>
        <time>2026-06-15T13:06:53.000Z</time>
      </trkpt>
      <trkpt lat="48.85214" lon="1.43501">
        <ele>83.599998474121</ele>
        <time>2026-06-15T13:06:57.000Z</time>
      </trkpt>
      <trkpt lat="48.8524" lon="1.43509">
        <ele>83</ele>
        <time>2026-06-15T13:07:01.000Z</time>
      </trkpt>
      <trkpt lat="48.85254" lon="1.43513">
        <ele>82.599998474121</ele>
        <time>2026-06-15T13:07:03.000Z</time>
      </trkpt>
      <trkpt lat="48.85274" lon="1.43519">
        <ele>81.800003051758</ele>
        <time>2026-06-15T13:07:07.000Z</time>
      </trkpt>
      <trkpt lat="48.85277" lon="1.43519">
        <ele>81.599998474121</ele>
        <time>2026-06-15T13:07:08.000Z</time>
      </trkpt>
      <trkpt lat="48.85284" lon="1.43521">
        <ele>81.199996948242</ele>
        <time>2026-06-15T13:07:11.000Z</time>
      </trkpt>
      <trkpt lat="48.85291" lon="1.43524">
        <ele>80.599998474121</ele>
        <time>2026-06-15T13:07:15.000Z</time>
      </trkpt>
      <trkpt lat="48.85294" lon="1.43524">
        <ele>80.599998474121</ele>
        <time>2026-06-15T13:07:16.000Z</time>
      </trkpt>
      <trkpt lat="48.85317" lon="1.4353">
        <ele>80</ele>
        <time>2026-06-15T13:07:23.000Z</time>
      </trkpt>
      <trkpt lat="48.85322" lon="1.43532">
        <ele>79.800003051758</ele>
        <time>2026-06-15T13:07:24.000Z</time>
      </trkpt>
      <trkpt lat="48.85326" lon="1.43533">
        <ele>79.599998474121</ele>
        <time>2026-06-15T13:07:25.000Z</time>
      </trkpt>
      <trkpt lat="48.85351" lon="1.4354">
        <ele>78.800003051758</ele>
        <time>2026-06-15T13:07:30.000Z</time>
      </trkpt>
      <trkpt lat="48.85362" lon="1.43544">
        <ele>78.599998474121</ele>
        <time>2026-06-15T13:07:32.000Z</time>
      </trkpt>
      <trkpt lat="48.85393" lon="1.43554">
        <ele>77.400001525879</ele>
        <time>2026-06-15T13:07:37.000Z</time>
      </trkpt>
      <trkpt lat="48.85398" lon="1.43556">
        <ele>77.400001525879</ele>
        <time>2026-06-15T13:07:38.000Z</time>
      </trkpt>
      <trkpt lat="48.85433" lon="1.43565">
        <ele>76.400001525879</ele>
        <time>2026-06-15T13:07:44.000Z</time>
      </trkpt>
      <trkpt lat="48.85455" lon="1.43572">
        <ele>76</ele>
        <time>2026-06-15T13:07:47.000Z</time>
      </trkpt>
      <trkpt lat="48.85479" lon="1.43579">
        <ele>75.199996948242</ele>
        <time>2026-06-15T13:07:51.000Z</time>
      </trkpt>
      <trkpt lat="48.85489" lon="1.4358">
        <ele>75</ele>
        <time>2026-06-15T13:07:53.000Z</time>
      </trkpt>
      <trkpt lat="48.85519" lon="1.43584">
        <ele>74.199996948242</ele>
        <time>2026-06-15T13:07:58.000Z</time>
      </trkpt>
      <trkpt lat="48.85531" lon="1.43584">
        <ele>73.599998474121</ele>
        <time>2026-06-15T13:08:00.000Z</time>
      </trkpt>
      <trkpt lat="48.85549" lon="1.43586">
        <ele>73.199996948242</ele>
        <time>2026-06-15T13:08:03.000Z</time>
      </trkpt>
      <trkpt lat="48.85561" lon="1.4359">
        <ele>73</ele>
        <time>2026-06-15T13:08:05.000Z</time>
      </trkpt>
      <trkpt lat="48.8558" lon="1.43597">
        <ele>72.599998474121</ele>
        <time>2026-06-15T13:08:08.000Z</time>
      </trkpt>
      <trkpt lat="48.85592" lon="1.43598">
        <ele>72.400001525879</ele>
        <time>2026-06-15T13:08:10.000Z</time>
      </trkpt>
      <trkpt lat="48.85604" lon="1.43597">
        <ele>72.400001525879</ele>
        <time>2026-06-15T13:08:12.000Z</time>
      </trkpt>
      <trkpt lat="48.85622" lon="1.43592">
        <ele>72</ele>
        <time>2026-06-15T13:08:15.000Z</time>
      </trkpt>
      <trkpt lat="48.85641" lon="1.43588">
        <ele>71.800003051758</ele>
        <time>2026-06-15T13:08:18.000Z</time>
      </trkpt>
      <trkpt lat="48.85653" lon="1.43588">
        <ele>71.800003051758</ele>
        <time>2026-06-15T13:08:20.000Z</time>
      </trkpt>
      <trkpt lat="48.85663" lon="1.43593">
        <ele>71.599998474121</ele>
        <time>2026-06-15T13:08:22.000Z</time>
      </trkpt>
      <trkpt lat="48.85673" lon="1.43599">
        <ele>71.599998474121</ele>
        <time>2026-06-15T13:08:24.000Z</time>
      </trkpt>
      <trkpt lat="48.85678" lon="1.43604">
        <ele>71.599998474121</ele>
        <time>2026-06-15T13:08:25.000Z</time>
      </trkpt>
      <trkpt lat="48.85685" lon="1.43613">
        <ele>71.599998474121</ele>
        <time>2026-06-15T13:08:27.000Z</time>
      </trkpt>
      <trkpt lat="48.85688" lon="1.43618">
        <ele>71.599998474121</ele>
        <time>2026-06-15T13:08:28.000Z</time>
      </trkpt>
      <trkpt lat="48.85701" lon="1.43632">
        <ele>72</ele>
        <time>2026-06-15T13:08:31.000Z</time>
      </trkpt>
      <trkpt lat="48.85713" lon="1.43647">
        <ele>72.400001525879</ele>
        <time>2026-06-15T13:08:34.000Z</time>
      </trkpt>
      <trkpt lat="48.8573" lon="1.43664">
        <ele>72.800003051758</ele>
        <time>2026-06-15T13:08:38.000Z</time>
      </trkpt>
      <trkpt lat="48.85742" lon="1.43678">
        <ele>73</ele>
        <time>2026-06-15T13:08:41.000Z</time>
      </trkpt>
      <trkpt lat="48.85749" lon="1.43686">
        <ele>73</ele>
        <time>2026-06-15T13:08:42.000Z</time>
      </trkpt>
      <trkpt lat="48.85769" lon="1.43702">
        <ele>72.800003051758</ele>
        <time>2026-06-15T13:08:47.000Z</time>
      </trkpt>
      <trkpt lat="48.85777" lon="1.43709">
        <ele>72.599998474121</ele>
        <time>2026-06-15T13:08:49.000Z</time>
      </trkpt>
      <trkpt lat="48.85787" lon="1.43722">
        <ele>72.400001525879</ele>
        <time>2026-06-15T13:08:52.000Z</time>
      </trkpt>
      <trkpt lat="48.85793" lon="1.43731">
        <ele>72.199996948242</ele>
        <time>2026-06-15T13:08:54.000Z</time>
      </trkpt>
      <trkpt lat="48.85797" lon="1.43741">
        <ele>72.199996948242</ele>
        <time>2026-06-15T13:08:56.000Z</time>
      </trkpt>
      <trkpt lat="48.858" lon="1.43759">
        <ele>72.199996948242</ele>
        <time>2026-06-15T13:09:00.000Z</time>
      </trkpt>
      <trkpt lat="48.85798" lon="1.43767">
        <ele>72</ele>
        <time>2026-06-15T13:09:02.000Z</time>
      </trkpt>
      <trkpt lat="48.85799" lon="1.43774">
        <ele>72</ele>
        <time>2026-06-15T13:09:04.000Z</time>
      </trkpt>
      <trkpt lat="48.85799" lon="1.43774">
        <ele>72</ele>
        <time>2026-06-15T13:09:07.000Z</time>
      </trkpt>
      <trkpt lat="48.85799" lon="1.43774">
        <ele>72</ele>
        <time>2026-06-15T13:09:17.000Z</time>
      </trkpt>
      <trkpt lat="48.85799" lon="1.43775">
        <ele>72</ele>
        <time>2026-06-15T13:09:20.000Z</time>
      </trkpt>
      <trkpt lat="48.85797" lon="1.43782">
        <ele>72</ele>
        <time>2026-06-15T13:09:23.000Z</time>
      </trkpt>
      <trkpt lat="48.85796" lon="1.43806">
        <ele>72</ele>
        <time>2026-06-15T13:09:32.000Z</time>
      </trkpt>
      <trkpt lat="48.85803" lon="1.43822">
        <ele>72.199996948242</ele>
        <time>2026-06-15T13:09:40.000Z</time>
      </trkpt>
      <trkpt lat="48.85804" lon="1.43833">
        <ele>72.199996948242</ele>
        <time>2026-06-15T13:09:45.000Z</time>
      </trkpt>
      <trkpt lat="48.858" lon="1.43843">
        <ele>72.199996948242</ele>
        <time>2026-06-15T13:09:50.000Z</time>
      </trkpt>
      <trkpt lat="48.85806" lon="1.4385">
        <ele>72.400001525879</ele>
        <time>2026-06-15T13:09:53.000Z</time>
      </trkpt>
      <trkpt lat="48.85807" lon="1.43853">
        <ele>72.199996948242</ele>
        <time>2026-06-15T13:09:57.000Z</time>
      </trkpt>
      <trkpt lat="48.8581" lon="1.4386">
        <ele>72.199996948242</ele>
        <time>2026-06-15T13:10:07.000Z</time>
      </trkpt>
      <trkpt lat="48.85813" lon="1.43862">
        <ele>72</ele>
        <time>2026-06-15T13:10:15.000Z</time>
      </trkpt>
      <trkpt lat="48.85813" lon="1.43862">
        <ele>72</ele>
        <time>2026-06-15T13:10:16.000Z</time>
      </trkpt>
      <trkpt lat="48.85815" lon="1.43939">
        <ele>74.400001525879</ele>
        <time>2026-06-15T13:40:59.000Z</time>
      </trkpt>
      <trkpt lat="48.85815" lon="1.43947">
        <ele>74.400001525879</ele>
        <time>2026-06-15T13:41:01.000Z</time>
      </trkpt>
      <trkpt lat="48.85816" lon="1.43975">
        <ele>74.800003051758</ele>
        <time>2026-06-15T13:41:07.000Z</time>
      </trkpt>
      <trkpt lat="48.85817" lon="1.43985">
        <ele>75</ele>
        <time>2026-06-15T13:41:09.000Z</time>
      </trkpt>
      <trkpt lat="48.85819" lon="1.44005">
        <ele>75.400001525879</ele>
        <time>2026-06-15T13:41:13.000Z</time>
      </trkpt>
      <trkpt lat="48.8582" lon="1.44008">
        <ele>75.599998474121</ele>
        <time>2026-06-15T13:41:14.000Z</time>
      </trkpt>
      <trkpt lat="48.85825" lon="1.44012">
        <ele>75.599998474121</ele>
        <time>2026-06-15T13:41:16.000Z</time>
      </trkpt>
      <trkpt lat="48.85846" lon="1.44014">
        <ele>75.800003051758</ele>
        <time>2026-06-15T13:41:24.000Z</time>
      </trkpt>
      <trkpt lat="48.85853" lon="1.44015">
        <ele>75.599998474121</ele>
        <time>2026-06-15T13:41:27.000Z</time>
      </trkpt>
      <trkpt lat="48.85865" lon="1.44016">
        <ele>75.599998474121</ele>
        <time>2026-06-15T13:41:31.000Z</time>
      </trkpt>
      <trkpt lat="48.85892" lon="1.44021">
        <ele>75.400001525879</ele>
        <time>2026-06-15T13:41:39.000Z</time>
      </trkpt>
      <trkpt lat="48.85903" lon="1.4404">
        <ele>75.400001525879</ele>
        <time>2026-06-15T13:41:44.000Z</time>
      </trkpt>
      <trkpt lat="48.85904" lon="1.44044">
        <ele>75.400001525879</ele>
        <time>2026-06-15T13:41:45.000Z</time>
      </trkpt>
      <trkpt lat="48.85908" lon="1.4405">
        <ele>75.599998474121</ele>
        <time>2026-06-15T13:41:47.000Z</time>
      </trkpt>
      <trkpt lat="48.85911" lon="1.44054">
        <ele>75.800003051758</ele>
        <time>2026-06-15T13:41:51.000Z</time>
      </trkpt>
      <trkpt lat="48.85914" lon="1.44055">
        <ele>76</ele>
        <time>2026-06-15T13:41:57.000Z</time>
      </trkpt>
      <trkpt lat="48.85915" lon="1.44056">
        <ele>76</ele>
        <time>2026-06-15T13:42:06.000Z</time>
      </trkpt>
      <trkpt lat="48.85915" lon="1.44056">
        <ele>75.800003051758</ele>
        <time>2026-06-15T13:42:15.000Z</time>
      </trkpt>
      <trkpt lat="48.85914" lon="1.44061">
        <ele>75.800003051758</ele>
        <time>2026-06-15T13:42:17.000Z</time>
      </trkpt>
      <trkpt lat="48.85913" lon="1.44076">
        <ele>76</ele>
        <time>2026-06-15T13:42:23.000Z</time>
      </trkpt>
      <trkpt lat="48.85914" lon="1.44101">
        <ele>76</ele>
        <time>2026-06-15T13:42:29.000Z</time>
      </trkpt>
      <trkpt lat="48.85917" lon="1.44131">
        <ele>76.199996948242</ele>
        <time>2026-06-15T13:42:34.000Z</time>
      </trkpt>
      <trkpt lat="48.85919" lon="1.4414">
        <ele>76.199996948242</ele>
        <time>2026-06-15T13:42:36.000Z</time>
      </trkpt>
      <trkpt lat="48.85921" lon="1.44159">
        <ele>76.199996948242</ele>
        <time>2026-06-15T13:42:39.000Z</time>
      </trkpt>
      <trkpt lat="48.85926" lon="1.44214">
        <ele>76.199996948242</ele>
        <time>2026-06-15T13:42:46.000Z</time>
      </trkpt>
      <trkpt lat="48.8593" lon="1.44275">
        <ele>76.400001525879</ele>
        <time>2026-06-15T13:42:55.000Z</time>
      </trkpt>
      <trkpt lat="48.85932" lon="1.44282">
        <ele>76.199996948242</ele>
        <time>2026-06-15T13:42:57.000Z</time>
      </trkpt>
      <trkpt lat="48.85934" lon="1.44284">
        <ele>76.199996948242</ele>
        <time>2026-06-15T13:42:58.000Z</time>
      </trkpt>
      <trkpt lat="48.85944" lon="1.44293">
        <ele>76</ele>
        <time>2026-06-15T13:43:01.000Z</time>
      </trkpt>
      <trkpt lat="48.85949" lon="1.44295">
        <ele>75.800003051758</ele>
        <time>2026-06-15T13:43:02.000Z</time>
      </trkpt>
      <trkpt lat="48.85954" lon="1.44295">
        <ele>75.800003051758</ele>
        <time>2026-06-15T13:43:03.000Z</time>
      </trkpt>
      <trkpt lat="48.8597" lon="1.44291">
        <ele>75.199996948242</ele>
        <time>2026-06-15T13:43:06.000Z</time>
      </trkpt>
      <trkpt lat="48.85976" lon="1.44289">
        <ele>75</ele>
        <time>2026-06-15T13:43:07.000Z</time>
      </trkpt>
      <trkpt lat="48.86012" lon="1.44279">
        <ele>74</ele>
        <time>2026-06-15T13:43:13.000Z</time>
      </trkpt>
      <trkpt lat="48.86019" lon="1.44277">
        <ele>73.800003051758</ele>
        <time>2026-06-15T13:43:14.000Z</time>
      </trkpt>
      <trkpt lat="48.86061" lon="1.44263">
        <ele>73</ele>
        <time>2026-06-15T13:43:21.000Z</time>
      </trkpt>
      <trkpt lat="48.86067" lon="1.44262">
        <ele>72.800003051758</ele>
        <time>2026-06-15T13:43:22.000Z</time>
      </trkpt>
      <trkpt lat="48.86113" lon="1.44248">
        <ele>72.400001525879</ele>
        <time>2026-06-15T13:43:30.000Z</time>
      </trkpt>
      <trkpt lat="48.86119" lon="1.44246">
        <ele>72.400001525879</ele>
        <time>2026-06-15T13:43:31.000Z</time>
      </trkpt>
      <trkpt lat="48.86139" lon="1.4424">
        <ele>72.199996948242</ele>
        <time>2026-06-15T13:43:35.000Z</time>
      </trkpt>
      <trkpt lat="48.86165" lon="1.4423">
        <ele>72.199996948242</ele>
        <time>2026-06-15T13:43:41.000Z</time>
      </trkpt>
      <trkpt lat="48.8617" lon="1.44228">
        <ele>72.199996948242</ele>
        <time>2026-06-15T13:43:42.000Z</time>
      </trkpt>
      <trkpt lat="48.86175" lon="1.44228">
        <ele>72.199996948242</ele>
        <time>2026-06-15T13:43:43.000Z</time>
      </trkpt>
      <trkpt lat="48.86185" lon="1.44231">
        <ele>72</ele>
        <time>2026-06-15T13:43:45.000Z</time>
      </trkpt>
      <trkpt lat="48.8619" lon="1.44236">
        <ele>72</ele>
        <time>2026-06-15T13:43:46.000Z</time>
      </trkpt>
      <trkpt lat="48.86199" lon="1.4425">
        <ele>72</ele>
        <time>2026-06-15T13:43:48.000Z</time>
      </trkpt>
      <trkpt lat="48.86203" lon="1.44257">
        <ele>72</ele>
        <time>2026-06-15T13:43:49.000Z</time>
      </trkpt>
      <trkpt lat="48.8621" lon="1.44272">
        <ele>72</ele>
        <time>2026-06-15T13:43:51.000Z</time>
      </trkpt>
      <trkpt lat="48.86218" lon="1.44287">
        <ele>71.800003051758</ele>
        <time>2026-06-15T13:43:53.000Z</time>
      </trkpt>
      <trkpt lat="48.86234" lon="1.44322">
        <ele>71.800003051758</ele>
        <time>2026-06-15T13:43:58.000Z</time>
      </trkpt>
      <trkpt lat="48.86261" lon="1.44377">
        <ele>71.800003051758</ele>
        <time>2026-06-15T13:44:06.000Z</time>
      </trkpt>
      <trkpt lat="48.86285" lon="1.44429">
        <ele>72</ele>
        <time>2026-06-15T13:44:14.000Z</time>
      </trkpt>
      <trkpt lat="48.86306" lon="1.44473">
        <ele>72</ele>
        <time>2026-06-15T13:44:21.000Z</time>
      </trkpt>
      <trkpt lat="48.86334" lon="1.44532">
        <ele>72</ele>
        <time>2026-06-15T13:44:30.000Z</time>
      </trkpt>
      <trkpt lat="48.86337" lon="1.4454">
        <ele>72.199996948242</ele>
        <time>2026-06-15T13:44:31.000Z</time>
      </trkpt>
      <trkpt lat="48.86363" lon="1.44591">
        <ele>72</ele>
        <time>2026-06-15T13:44:38.000Z</time>
      </trkpt>
      <trkpt lat="48.86386" lon="1.44642">
        <ele>71.800003051758</ele>
        <time>2026-06-15T13:44:45.000Z</time>
      </trkpt>
      <trkpt lat="48.86414" lon="1.44695">
        <ele>72</ele>
        <time>2026-06-15T13:44:53.000Z</time>
      </trkpt>
      <trkpt lat="48.86446" lon="1.44758">
        <ele>72</ele>
        <time>2026-06-15T13:45:02.000Z</time>
      </trkpt>
      <trkpt lat="48.86484" lon="1.44826">
        <ele>72</ele>
        <time>2026-06-15T13:45:12.000Z</time>
      </trkpt>
      <trkpt lat="48.86488" lon="1.44833">
        <ele>72</ele>
        <time>2026-06-15T13:45:13.000Z</time>
      </trkpt>
      <trkpt lat="48.86523" lon="1.44884">
        <ele>72.199996948242</ele>
        <time>2026-06-15T13:45:21.000Z</time>
      </trkpt>
      <trkpt lat="48.86551" lon="1.44933">
        <ele>71.800003051758</ele>
        <time>2026-06-15T13:45:28.000Z</time>
      </trkpt>
      <trkpt lat="48.86581" lon="1.44989">
        <ele>71.800003051758</ele>
        <time>2026-06-15T13:45:36.000Z</time>
      </trkpt>
      <trkpt lat="48.8661" lon="1.45046">
        <ele>71.800003051758</ele>
        <time>2026-06-15T13:45:44.000Z</time>
      </trkpt>
      <trkpt lat="48.8664" lon="1.45102">
        <ele>71.800003051758</ele>
        <time>2026-06-15T13:45:52.000Z</time>
      </trkpt>
      <trkpt lat="48.86663" lon="1.45146">
        <ele>71.400001525879</ele>
        <time>2026-06-15T13:45:59.000Z</time>
      </trkpt>
      <trkpt lat="48.86691" lon="1.45197">
        <ele>71.599998474121</ele>
        <time>2026-06-15T13:46:07.000Z</time>
      </trkpt>
      <trkpt lat="48.86728" lon="1.45263">
        <ele>71.599998474121</ele>
        <time>2026-06-15T13:46:17.000Z</time>
      </trkpt>
      <trkpt lat="48.86759" lon="1.4532">
        <ele>71.800003051758</ele>
        <time>2026-06-15T13:46:25.000Z</time>
      </trkpt>
      <trkpt lat="48.8679" lon="1.45383">
        <ele>72</ele>
        <time>2026-06-15T13:46:34.000Z</time>
      </trkpt>
      <trkpt lat="48.86817" lon="1.45461">
        <ele>71.800003051758</ele>
        <time>2026-06-15T13:46:44.000Z</time>
      </trkpt>
      <trkpt lat="48.86829" lon="1.45498">
        <ele>71.800003051758</ele>
        <time>2026-06-15T13:46:49.000Z</time>
      </trkpt>
      <trkpt lat="48.86848" lon="1.45558">
        <ele>72</ele>
        <time>2026-06-15T13:46:57.000Z</time>
      </trkpt>
      <trkpt lat="48.86871" lon="1.45624">
        <ele>72</ele>
        <time>2026-06-15T13:47:06.000Z</time>
      </trkpt>
      <trkpt lat="48.86895" lon="1.45677">
        <ele>72.199996948242</ele>
        <time>2026-06-15T13:47:13.000Z</time>
      </trkpt>
      <trkpt lat="48.86928" lon="1.45743">
        <ele>71.800003051758</ele>
        <time>2026-06-15T13:47:22.000Z</time>
      </trkpt>
      <trkpt lat="48.86961" lon="1.45808">
        <ele>71.800003051758</ele>
        <time>2026-06-15T13:47:31.000Z</time>
      </trkpt>
      <trkpt lat="48.86976" lon="1.45838">
        <ele>71.599998474121</ele>
        <time>2026-06-15T13:47:35.000Z</time>
      </trkpt>
      <trkpt lat="48.86994" lon="1.45874">
        <ele>71.199996948242</ele>
        <time>2026-06-15T13:47:40.000Z</time>
      </trkpt>
      <trkpt lat="48.87028" lon="1.45929">
        <ele>71</ele>
        <time>2026-06-15T13:47:48.000Z</time>
      </trkpt>
      <trkpt lat="48.87068" lon="1.45983">
        <ele>70.800003051758</ele>
        <time>2026-06-15T13:47:57.000Z</time>
      </trkpt>
      <trkpt lat="48.87077" lon="1.45996">
        <ele>70.800003051758</ele>
        <time>2026-06-15T13:47:59.000Z</time>
      </trkpt>
      <trkpt lat="48.87108" lon="1.46039">
        <ele>70.599998474121</ele>
        <time>2026-06-15T13:48:06.000Z</time>
      </trkpt>
      <trkpt lat="48.87113" lon="1.46045">
        <ele>70.400001525879</ele>
        <time>2026-06-15T13:48:07.000Z</time>
      </trkpt>
      <trkpt lat="48.87154" lon="1.461">
        <ele>70.400001525879</ele>
        <time>2026-06-15T13:48:16.000Z</time>
      </trkpt>
      <trkpt lat="48.87158" lon="1.46106">
        <ele>70.400001525879</ele>
        <time>2026-06-15T13:48:17.000Z</time>
      </trkpt>
      <trkpt lat="48.87189" lon="1.46149">
        <ele>70.800003051758</ele>
        <time>2026-06-15T13:48:24.000Z</time>
      </trkpt>
      <trkpt lat="48.87217" lon="1.46188">
        <ele>71.400001525879</ele>
        <time>2026-06-15T13:48:30.000Z</time>
      </trkpt>
      <trkpt lat="48.87253" lon="1.46238">
        <ele>71.400001525879</ele>
        <time>2026-06-15T13:48:37.000Z</time>
      </trkpt>
      <trkpt lat="48.87298" lon="1.463">
        <ele>70.599998474121</ele>
        <time>2026-06-15T13:48:46.000Z</time>
      </trkpt>
      <trkpt lat="48.87302" lon="1.46306">
        <ele>70.599998474121</ele>
        <time>2026-06-15T13:48:47.000Z</time>
      </trkpt>
      <trkpt lat="48.87346" lon="1.46367">
        <ele>70.800003051758</ele>
        <time>2026-06-15T13:48:56.000Z</time>
      </trkpt>
      <trkpt lat="48.87356" lon="1.4638">
        <ele>70.599998474121</ele>
        <time>2026-06-15T13:48:58.000Z</time>
      </trkpt>
      <trkpt lat="48.87394" lon="1.46431">
        <ele>70.599998474121</ele>
        <time>2026-06-15T13:49:06.000Z</time>
      </trkpt>
      <trkpt lat="48.87435" lon="1.46489">
        <ele>70.400001525879</ele>
        <time>2026-06-15T13:49:15.000Z</time>
      </trkpt>
      <trkpt lat="48.87455" lon="1.4651">
        <ele>70.400001525879</ele>
        <time>2026-06-15T13:49:19.000Z</time>
      </trkpt>
      <trkpt lat="48.87471" lon="1.46525">
        <ele>70.400001525879</ele>
        <time>2026-06-15T13:49:22.000Z</time>
      </trkpt>
      <trkpt lat="48.87519" lon="1.46567">
        <ele>70.199996948242</ele>
        <time>2026-06-15T13:49:31.000Z</time>
      </trkpt>
      <trkpt lat="48.87569" lon="1.46604">
        <ele>70.199996948242</ele>
        <time>2026-06-15T13:49:40.000Z</time>
      </trkpt>
      <trkpt lat="48.87619" lon="1.46638">
        <ele>70.199996948242</ele>
        <time>2026-06-15T13:49:49.000Z</time>
      </trkpt>
      <trkpt lat="48.87652" lon="1.46652">
        <ele>70</ele>
        <time>2026-06-15T13:49:55.000Z</time>
      </trkpt>
      <trkpt lat="48.87688" lon="1.46652">
        <ele>70</ele>
        <time>2026-06-15T13:50:01.000Z</time>
      </trkpt>
      <trkpt lat="48.87694" lon="1.4665">
        <ele>70</ele>
        <time>2026-06-15T13:50:02.000Z</time>
      </trkpt>
      <trkpt lat="48.877" lon="1.46646">
        <ele>70</ele>
        <time>2026-06-15T13:50:03.000Z</time>
      </trkpt>
      <trkpt lat="48.87722" lon="1.46629">
        <ele>69.800003051758</ele>
        <time>2026-06-15T13:50:07.000Z</time>
      </trkpt>
      <trkpt lat="48.87733" lon="1.46624">
        <ele>69.800003051758</ele>
        <time>2026-06-15T13:50:09.000Z</time>
      </trkpt>
      <trkpt lat="48.87746" lon="1.46624">
        <ele>69.800003051758</ele>
        <time>2026-06-15T13:50:11.000Z</time>
      </trkpt>
      <trkpt lat="48.87796" lon="1.46631">
        <ele>70</ele>
        <time>2026-06-15T13:50:19.000Z</time>
      </trkpt>
      <trkpt lat="48.87853" lon="1.46633">
        <ele>70</ele>
        <time>2026-06-15T13:50:28.000Z</time>
      </trkpt>
      <trkpt lat="48.87859" lon="1.46633">
        <ele>70</ele>
        <time>2026-06-15T13:50:29.000Z</time>
      </trkpt>
      <trkpt lat="48.87901" lon="1.46635">
        <ele>70</ele>
        <time>2026-06-15T13:50:36.000Z</time>
      </trkpt>
      <trkpt lat="48.87911" lon="1.46631">
        <ele>70</ele>
        <time>2026-06-15T13:50:38.000Z</time>
      </trkpt>
      <trkpt lat="48.87916" lon="1.46625">
        <ele>70</ele>
        <time>2026-06-15T13:50:39.000Z</time>
      </trkpt>
      <trkpt lat="48.8792" lon="1.46618">
        <ele>70</ele>
        <time>2026-06-15T13:50:40.000Z</time>
      </trkpt>
      <trkpt lat="48.87923" lon="1.46601">
        <ele>70</ele>
        <time>2026-06-15T13:50:42.000Z</time>
      </trkpt>
      <trkpt lat="48.87928" lon="1.46557">
        <ele>70</ele>
        <time>2026-06-15T13:50:47.000Z</time>
      </trkpt>
      <trkpt lat="48.8793" lon="1.46549">
        <ele>70</ele>
        <time>2026-06-15T13:50:48.000Z</time>
      </trkpt>
      <trkpt lat="48.87934" lon="1.46544">
        <ele>70</ele>
        <time>2026-06-15T13:50:49.000Z</time>
      </trkpt>
      <trkpt lat="48.87944" lon="1.46539">
        <ele>70</ele>
        <time>2026-06-15T13:50:51.000Z</time>
      </trkpt>
      <trkpt lat="48.87978" lon="1.46546">
        <ele>69.800003051758</ele>
        <time>2026-06-15T13:50:57.000Z</time>
      </trkpt>
      <trkpt lat="48.88029" lon="1.46554">
        <ele>70.199996948242</ele>
        <time>2026-06-15T13:51:05.000Z</time>
      </trkpt>
      <trkpt lat="48.88069" lon="1.46561">
        <ele>70</ele>
        <time>2026-06-15T13:51:11.000Z</time>
      </trkpt>
      <trkpt lat="48.88108" lon="1.46575">
        <ele>70</ele>
        <time>2026-06-15T13:51:17.000Z</time>
      </trkpt>
      <trkpt lat="48.88127" lon="1.46582">
        <ele>69.800003051758</ele>
        <time>2026-06-15T13:51:20.000Z</time>
      </trkpt>
      <trkpt lat="48.88171" lon="1.46597">
        <ele>69.800003051758</ele>
        <time>2026-06-15T13:51:27.000Z</time>
      </trkpt>
      <trkpt lat="48.8822" lon="1.46609">
        <ele>69.599998474121</ele>
        <time>2026-06-15T13:51:35.000Z</time>
      </trkpt>
      <trkpt lat="48.88235" lon="1.46621">
        <ele>69.599998474121</ele>
        <time>2026-06-15T13:51:38.000Z</time>
      </trkpt>
      <trkpt lat="48.88239" lon="1.46627">
        <ele>69.599998474121</ele>
        <time>2026-06-15T13:51:39.000Z</time>
      </trkpt>
      <trkpt lat="48.88242" lon="1.46633">
        <ele>69.400001525879</ele>
        <time>2026-06-15T13:51:40.000Z</time>
      </trkpt>
      <trkpt lat="48.88248" lon="1.46649">
        <ele>69.400001525879</ele>
        <time>2026-06-15T13:51:42.000Z</time>
      </trkpt>
      <trkpt lat="48.8825" lon="1.46657">
        <ele>69.400001525879</ele>
        <time>2026-06-15T13:51:43.000Z</time>
      </trkpt>
      <trkpt lat="48.88254" lon="1.46673">
        <ele>69.400001525879</ele>
        <time>2026-06-15T13:51:45.000Z</time>
      </trkpt>
      <trkpt lat="48.88262" lon="1.46687">
        <ele>69.400001525879</ele>
        <time>2026-06-15T13:51:47.000Z</time>
      </trkpt>
      <trkpt lat="48.88272" lon="1.46696">
        <ele>69.199996948242</ele>
        <time>2026-06-15T13:51:49.000Z</time>
      </trkpt>
      <trkpt lat="48.88277" lon="1.46699">
        <ele>69.400001525879</ele>
        <time>2026-06-15T13:51:50.000Z</time>
      </trkpt>
      <trkpt lat="48.88297" lon="1.46706">
        <ele>69.400001525879</ele>
        <time>2026-06-15T13:51:55.000Z</time>
      </trkpt>
      <trkpt lat="48.88308" lon="1.46709">
        <ele>69.400001525879</ele>
        <time>2026-06-15T13:52:00.000Z</time>
      </trkpt>
      <trkpt lat="48.88313" lon="1.46709">
        <ele>69.400001525879</ele>
        <time>2026-06-15T13:52:03.000Z</time>
      </trkpt>
      <trkpt lat="48.88317" lon="1.46703">
        <ele>69.800003051758</ele>
        <time>2026-06-15T13:52:05.000Z</time>
      </trkpt>
      <trkpt lat="48.8832" lon="1.46685">
        <ele>69.800003051758</ele>
        <time>2026-06-15T13:52:08.000Z</time>
      </trkpt>
      <trkpt lat="48.88322" lon="1.46678">
        <ele>69.800003051758</ele>
        <time>2026-06-15T13:52:09.000Z</time>
      </trkpt>
      <trkpt lat="48.88323" lon="1.46671">
        <ele>69.800003051758</ele>
        <time>2026-06-15T13:52:10.000Z</time>
      </trkpt>
      <trkpt lat="48.88326" lon="1.46647">
        <ele>69.599998474121</ele>
        <time>2026-06-15T13:52:13.000Z</time>
      </trkpt>
      <trkpt lat="48.88327" lon="1.46639">
        <ele>69.400001525879</ele>
        <time>2026-06-15T13:52:14.000Z</time>
      </trkpt>
      <trkpt lat="48.88329" lon="1.4663">
        <ele>69.400001525879</ele>
        <time>2026-06-15T13:52:15.000Z</time>
      </trkpt>
      <trkpt lat="48.88331" lon="1.46605">
        <ele>69.400001525879</ele>
        <time>2026-06-15T13:52:18.000Z</time>
      </trkpt>
      <trkpt lat="48.88331" lon="1.46554">
        <ele>69.599998474121</ele>
        <time>2026-06-15T13:52:24.000Z</time>
      </trkpt>
      <trkpt lat="48.88328" lon="1.46504">
        <ele>69.800003051758</ele>
        <time>2026-06-15T13:52:30.000Z</time>
      </trkpt>
      <trkpt lat="48.88318" lon="1.46445">
        <ele>69.800003051758</ele>
        <time>2026-06-15T13:52:37.000Z</time>
      </trkpt>
      <trkpt lat="48.88315" lon="1.46437">
        <ele>69.800003051758</ele>
        <time>2026-06-15T13:52:38.000Z</time>
      </trkpt>
      <trkpt lat="48.88307" lon="1.46404">
        <ele>69.599998474121</ele>
        <time>2026-06-15T13:52:42.000Z</time>
      </trkpt>
      <trkpt lat="48.883" lon="1.46345">
        <ele>69</ele>
        <time>2026-06-15T13:52:49.000Z</time>
      </trkpt>
      <trkpt lat="48.88304" lon="1.46279">
        <ele>69.199996948242</ele>
        <time>2026-06-15T13:52:57.000Z</time>
      </trkpt>
      <trkpt lat="48.88308" lon="1.46264">
        <ele>69.400001525879</ele>
        <time>2026-06-15T13:52:59.000Z</time>
      </trkpt>
      <trkpt lat="48.8831" lon="1.46248">
        <ele>69.400001525879</ele>
        <time>2026-06-15T13:53:01.000Z</time>
      </trkpt>
      <trkpt lat="48.88316" lon="1.46172">
        <ele>69.599998474121</ele>
        <time>2026-06-15T13:53:10.000Z</time>
      </trkpt>
      <trkpt lat="48.8832" lon="1.46116">
        <ele>69.599998474121</ele>
        <time>2026-06-15T13:53:17.000Z</time>
      </trkpt>
      <trkpt lat="48.88321" lon="1.46102">
        <ele>69.800003051758</ele>
        <time>2026-06-15T13:53:19.000Z</time>
      </trkpt>
      <trkpt lat="48.88323" lon="1.46089">
        <ele>69.800003051758</ele>
        <time>2026-06-15T13:53:21.000Z</time>
      </trkpt>
      <trkpt lat="48.88324" lon="1.46082">
        <ele>70</ele>
        <time>2026-06-15T13:53:22.000Z</time>
      </trkpt>
      <trkpt lat="48.88326" lon="1.46068">
        <ele>70.199996948242</ele>
        <time>2026-06-15T13:53:24.000Z</time>
      </trkpt>
      <trkpt lat="48.88327" lon="1.46037">
        <ele>70.199996948242</ele>
        <time>2026-06-15T13:53:28.000Z</time>
      </trkpt>
      <trkpt lat="48.88327" lon="1.4603">
        <ele>70.199996948242</ele>
        <time>2026-06-15T13:53:29.000Z</time>
      </trkpt>
      <trkpt lat="48.88327" lon="1.46022">
        <ele>70.199996948242</ele>
        <time>2026-06-15T13:53:30.000Z</time>
      </trkpt>
      <trkpt lat="48.88325" lon="1.45993">
        <ele>70.199996948242</ele>
        <time>2026-06-15T13:53:34.000Z</time>
      </trkpt>
      <trkpt lat="48.88325" lon="1.45938">
        <ele>70.400001525879</ele>
        <time>2026-06-15T13:53:42.000Z</time>
      </trkpt>
      <trkpt lat="48.88325" lon="1.45931">
        <ele>70.400001525879</ele>
        <time>2026-06-15T13:53:43.000Z</time>
      </trkpt>
      <trkpt lat="48.88322" lon="1.45894">
        <ele>70.800003051758</ele>
        <time>2026-06-15T13:53:49.000Z</time>
      </trkpt>
      <trkpt lat="48.8832" lon="1.45879">
        <ele>71.199996948242</ele>
        <time>2026-06-15T13:53:52.000Z</time>
      </trkpt>
      <trkpt lat="48.88317" lon="1.45876">
        <ele>71.400001525879</ele>
        <time>2026-06-15T13:53:53.000Z</time>
      </trkpt>
      <trkpt lat="48.88313" lon="1.45875">
        <ele>71.400001525879</ele>
        <time>2026-06-15T13:53:54.000Z</time>
      </trkpt>
      <trkpt lat="48.88292" lon="1.45869">
        <ele>72.199996948242</ele>
        <time>2026-06-15T13:53:59.000Z</time>
      </trkpt>
      <trkpt lat="48.88271" lon="1.45864">
        <ele>73.400001525879</ele>
        <time>2026-06-15T13:54:04.000Z</time>
      </trkpt>
      <trkpt lat="48.88243" lon="1.45864">
        <ele>74.199996948242</ele>
        <time>2026-06-15T13:54:10.000Z</time>
      </trkpt>
      <trkpt lat="48.88202" lon="1.45872">
        <ele>74.199996948242</ele>
        <time>2026-06-15T13:54:17.000Z</time>
      </trkpt>
      <trkpt lat="48.88144" lon="1.45871">
        <ele>72.800003051758</ele>
        <time>2026-06-15T13:54:26.000Z</time>
      </trkpt>
      <trkpt lat="48.88098" lon="1.45866">
        <ele>72.400001525879</ele>
        <time>2026-06-15T13:54:33.000Z</time>
      </trkpt>
      <trkpt lat="48.88092" lon="1.45865">
        <ele>72.400001525879</ele>
        <time>2026-06-15T13:54:34.000Z</time>
      </trkpt>
      <trkpt lat="48.88039" lon="1.45859">
        <ele>72.199996948242</ele>
        <time>2026-06-15T13:54:42.000Z</time>
      </trkpt>
      <trkpt lat="48.87983" lon="1.45855">
        <ele>71.800003051758</ele>
        <time>2026-06-15T13:54:51.000Z</time>
      </trkpt>
      <trkpt lat="48.87977" lon="1.45855">
        <ele>71.800003051758</ele>
        <time>2026-06-15T13:54:52.000Z</time>
      </trkpt>
      <trkpt lat="48.87959" lon="1.45853">
        <ele>71.800003051758</ele>
        <time>2026-06-15T13:54:55.000Z</time>
      </trkpt>
      <trkpt lat="48.87943" lon="1.45848">
        <ele>72</ele>
        <time>2026-06-15T13:54:58.000Z</time>
      </trkpt>
      <trkpt lat="48.87899" lon="1.45835">
        <ele>72.199996948242</ele>
        <time>2026-06-15T13:55:06.000Z</time>
      </trkpt>
      <trkpt lat="48.87859" lon="1.45821">
        <ele>73</ele>
        <time>2026-06-15T13:55:14.000Z</time>
      </trkpt>
      <trkpt lat="48.87818" lon="1.45806">
        <ele>73</ele>
        <time>2026-06-15T13:55:22.000Z</time>
      </trkpt>
      <trkpt lat="48.87774" lon="1.45787">
        <ele>73</ele>
        <time>2026-06-15T13:55:30.000Z</time>
      </trkpt>
      <trkpt lat="48.87757" lon="1.45781">
        <ele>73</ele>
        <time>2026-06-15T13:55:33.000Z</time>
      </trkpt>
      <trkpt lat="48.87735" lon="1.45769">
        <ele>72.800003051758</ele>
        <time>2026-06-15T13:55:37.000Z</time>
      </trkpt>
      <trkpt lat="48.87729" lon="1.45766">
        <ele>72.599998474121</ele>
        <time>2026-06-15T13:55:38.000Z</time>
      </trkpt>
      <trkpt lat="48.87707" lon="1.45752">
        <ele>72.199996948242</ele>
        <time>2026-06-15T13:55:42.000Z</time>
      </trkpt>
      <trkpt lat="48.87667" lon="1.45723">
        <ele>71.599998474121</ele>
        <time>2026-06-15T13:55:49.000Z</time>
      </trkpt>
      <trkpt lat="48.87656" lon="1.45714">
        <ele>71.199996948242</ele>
        <time>2026-06-15T13:55:51.000Z</time>
      </trkpt>
      <trkpt lat="48.87619" lon="1.45682">
        <ele>70.599998474121</ele>
        <time>2026-06-15T13:55:58.000Z</time>
      </trkpt>
      <trkpt lat="48.87613" lon="1.45678">
        <ele>70.599998474121</ele>
        <time>2026-06-15T13:55:59.000Z</time>
      </trkpt>
      <trkpt lat="48.87566" lon="1.45629">
        <ele>70.400001525879</ele>
        <time>2026-06-15T13:56:08.000Z</time>
      </trkpt>
      <trkpt lat="48.87561" lon="1.45623">
        <ele>70.400001525879</ele>
        <time>2026-06-15T13:56:09.000Z</time>
      </trkpt>
      <trkpt lat="48.87517" lon="1.45571">
        <ele>70.400001525879</ele>
        <time>2026-06-15T13:56:18.000Z</time>
      </trkpt>
      <trkpt lat="48.87476" lon="1.4551">
        <ele>70.599998474121</ele>
        <time>2026-06-15T13:56:27.000Z</time>
      </trkpt>
      <trkpt lat="48.87435" lon="1.45445">
        <ele>70.400001525879</ele>
        <time>2026-06-15T13:56:36.000Z</time>
      </trkpt>
      <trkpt lat="48.87399" lon="1.45382">
        <ele>70.400001525879</ele>
        <time>2026-06-15T13:56:45.000Z</time>
      </trkpt>
      <trkpt lat="48.87391" lon="1.45367">
        <ele>70.400001525879</ele>
        <time>2026-06-15T13:56:47.000Z</time>
      </trkpt>
      <trkpt lat="48.87358" lon="1.45301">
        <ele>71</ele>
        <time>2026-06-15T13:56:56.000Z</time>
      </trkpt>
      <trkpt lat="48.87355" lon="1.45294">
        <ele>71</ele>
        <time>2026-06-15T13:56:57.000Z</time>
      </trkpt>
      <trkpt lat="48.87321" lon="1.4522">
        <ele>71.199996948242</ele>
        <time>2026-06-15T13:57:07.000Z</time>
      </trkpt>
      <trkpt lat="48.8729" lon="1.4515">
        <ele>71</ele>
        <time>2026-06-15T13:57:16.000Z</time>
      </trkpt>
      <trkpt lat="48.87284" lon="1.45134">
        <ele>71</ele>
        <time>2026-06-15T13:57:18.000Z</time>
      </trkpt>
      <trkpt lat="48.87256" lon="1.45058">
        <ele>71.800003051758</ele>
        <time>2026-06-15T13:57:28.000Z</time>
      </trkpt>
      <trkpt lat="48.87254" lon="1.4505">
        <ele>72</ele>
        <time>2026-06-15T13:57:29.000Z</time>
      </trkpt>
      <trkpt lat="48.87251" lon="1.45042">
        <ele>72</ele>
        <time>2026-06-15T13:57:30.000Z</time>
      </trkpt>
      <trkpt lat="48.87231" lon="1.44978">
        <ele>72.800003051758</ele>
        <time>2026-06-15T13:57:38.000Z</time>
      </trkpt>
      <trkpt lat="48.87223" lon="1.44953">
        <ele>73.199996948242</ele>
        <time>2026-06-15T13:57:41.000Z</time>
      </trkpt>
      <trkpt lat="48.8721" lon="1.44912">
        <ele>73.199996948242</ele>
        <time>2026-06-15T13:57:46.000Z</time>
      </trkpt>
      <trkpt lat="48.87189" lon="1.44839">
        <ele>73.800003051758</ele>
        <time>2026-06-15T13:57:55.000Z</time>
      </trkpt>
      <trkpt lat="48.87167" lon="1.44758">
        <ele>74.199996948242</ele>
        <time>2026-06-15T13:58:05.000Z</time>
      </trkpt>
      <trkpt lat="48.87152" lon="1.44691">
        <ele>74.400001525879</ele>
        <time>2026-06-15T13:58:14.000Z</time>
      </trkpt>
      <trkpt lat="48.87139" lon="1.44622">
        <ele>75</ele>
        <time>2026-06-15T13:58:22.000Z</time>
      </trkpt>
      <trkpt lat="48.87137" lon="1.44614">
        <ele>75</ele>
        <time>2026-06-15T13:58:23.000Z</time>
      </trkpt>
      <trkpt lat="48.87127" lon="1.44558">
        <ele>75.199996948242</ele>
        <time>2026-06-15T13:58:30.000Z</time>
      </trkpt>
      <trkpt lat="48.87117" lon="1.44503">
        <ele>75.400001525879</ele>
        <time>2026-06-15T13:58:37.000Z</time>
      </trkpt>
      <trkpt lat="48.87112" lon="1.44467">
        <ele>75.599998474121</ele>
        <time>2026-06-15T13:58:41.000Z</time>
      </trkpt>
      <trkpt lat="48.87107" lon="1.4444">
        <ele>75.800003051758</ele>
        <time>2026-06-15T13:58:44.000Z</time>
      </trkpt>
      <trkpt lat="48.87095" lon="1.44364">
        <ele>76</ele>
        <time>2026-06-15T13:58:52.000Z</time>
      </trkpt>
      <trkpt lat="48.87092" lon="1.44345">
        <ele>76</ele>
        <time>2026-06-15T13:58:54.000Z</time>
      </trkpt>
      <trkpt lat="48.87087" lon="1.44298">
        <ele>75.800003051758</ele>
        <time>2026-06-15T13:58:59.000Z</time>
      </trkpt>
      <trkpt lat="48.87079" lon="1.44225">
        <ele>75.599998474121</ele>
        <time>2026-06-15T13:59:07.000Z</time>
      </trkpt>
      <trkpt lat="48.87069" lon="1.44141">
        <ele>75.800003051758</ele>
        <time>2026-06-15T13:59:16.000Z</time>
      </trkpt>
      <trkpt lat="48.87069" lon="1.44131">
        <ele>75.800003051758</ele>
        <time>2026-06-15T13:59:17.000Z</time>
      </trkpt>
      <trkpt lat="48.87061" lon="1.44047">
        <ele>76</ele>
        <time>2026-06-15T13:59:26.000Z</time>
      </trkpt>
      <trkpt lat="48.87059" lon="1.44028">
        <ele>76</ele>
        <time>2026-06-15T13:59:28.000Z</time>
      </trkpt>
      <trkpt lat="48.87054" lon="1.43973">
        <ele>76.199996948242</ele>
        <time>2026-06-15T13:59:34.000Z</time>
      </trkpt>
      <trkpt lat="48.87048" lon="1.43909">
        <ele>76.400001525879</ele>
        <time>2026-06-15T13:59:41.000Z</time>
      </trkpt>
      <trkpt lat="48.87041" lon="1.4384">
        <ele>76.800003051758</ele>
        <time>2026-06-15T13:59:49.000Z</time>
      </trkpt>
      <trkpt lat="48.87039" lon="1.43823">
        <ele>76.800003051758</ele>
        <time>2026-06-15T13:59:51.000Z</time>
      </trkpt>
      <trkpt lat="48.87036" lon="1.43784">
        <ele>77</ele>
        <time>2026-06-15T13:59:56.000Z</time>
      </trkpt>
      <trkpt lat="48.87029" lon="1.43706">
        <ele>76.800003051758</ele>
        <time>2026-06-15T14:00:05.000Z</time>
      </trkpt>
      <trkpt lat="48.87021" lon="1.43628">
        <ele>77</ele>
        <time>2026-06-15T14:00:14.000Z</time>
      </trkpt>
      <trkpt lat="48.87014" lon="1.43538">
        <ele>77</ele>
        <time>2026-06-15T14:00:23.000Z</time>
      </trkpt>
      <trkpt lat="48.87013" lon="1.43519">
        <ele>77</ele>
        <time>2026-06-15T14:00:25.000Z</time>
      </trkpt>
      <trkpt lat="48.87008" lon="1.43455">
        <ele>77</ele>
        <time>2026-06-15T14:00:32.000Z</time>
      </trkpt>
      <trkpt lat="48.87003" lon="1.43373">
        <ele>76.599998474121</ele>
        <time>2026-06-15T14:00:41.000Z</time>
      </trkpt>
      <trkpt lat="48.86997" lon="1.43289">
        <ele>76.199996948242</ele>
        <time>2026-06-15T14:00:50.000Z</time>
      </trkpt>
      <trkpt lat="48.86992" lon="1.43212">
        <ele>76</ele>
        <time>2026-06-15T14:00:58.000Z</time>
      </trkpt>
      <trkpt lat="48.86988" lon="1.43154">
        <ele>76</ele>
        <time>2026-06-15T14:01:04.000Z</time>
      </trkpt>
      <trkpt lat="48.86982" lon="1.43075">
        <ele>76.199996948242</ele>
        <time>2026-06-15T14:01:12.000Z</time>
      </trkpt>
      <trkpt lat="48.86978" lon="1.42997">
        <ele>75.800003051758</ele>
        <time>2026-06-15T14:01:20.000Z</time>
      </trkpt>
      <trkpt lat="48.86977" lon="1.42969">
        <ele>75.599998474121</ele>
        <time>2026-06-15T14:01:23.000Z</time>
      </trkpt>
      <trkpt lat="48.86975" lon="1.42935">
        <ele>75.400001525879</ele>
        <time>2026-06-15T14:01:27.000Z</time>
      </trkpt>
      <trkpt lat="48.86972" lon="1.42912">
        <ele>75.199996948242</ele>
        <time>2026-06-15T14:01:31.000Z</time>
      </trkpt>
      <trkpt lat="48.86969" lon="1.42896">
        <ele>74.599998474121</ele>
        <time>2026-06-15T14:01:34.000Z</time>
      </trkpt>
      <trkpt lat="48.86969" lon="1.42886">
        <ele>74.400001525879</ele>
        <time>2026-06-15T14:01:36.000Z</time>
      </trkpt>
      <trkpt lat="48.86969" lon="1.42868">
        <ele>73.599998474121</ele>
        <time>2026-06-15T14:01:40.000Z</time>
      </trkpt>
      <trkpt lat="48.86963" lon="1.42857">
        <ele>73.400001525879</ele>
        <time>2026-06-15T14:01:42.000Z</time>
      </trkpt>
      <trkpt lat="48.86958" lon="1.42854">
        <ele>73.400001525879</ele>
        <time>2026-06-15T14:01:43.000Z</time>
      </trkpt>
      <trkpt lat="48.86953" lon="1.42851">
        <ele>73.400001525879</ele>
        <time>2026-06-15T14:01:44.000Z</time>
      </trkpt>
      <trkpt lat="48.86948" lon="1.42849">
        <ele>73.400001525879</ele>
        <time>2026-06-15T14:01:45.000Z</time>
      </trkpt>
      <trkpt lat="48.86942" lon="1.42847">
        <ele>73.400001525879</ele>
        <time>2026-06-15T14:01:46.000Z</time>
      </trkpt>
      <trkpt lat="48.86936" lon="1.42842">
        <ele>73.199996948242</ele>
        <time>2026-06-15T14:01:47.000Z</time>
      </trkpt>
      <trkpt lat="48.86931" lon="1.42835">
        <ele>73.199996948242</ele>
        <time>2026-06-15T14:01:48.000Z</time>
      </trkpt>
      <trkpt lat="48.8692" lon="1.42811">
        <ele>73</ele>
        <time>2026-06-15T14:01:51.000Z</time>
      </trkpt>
      <trkpt lat="48.86906" lon="1.42778">
        <ele>72.400001525879</ele>
        <time>2026-06-15T14:01:55.000Z</time>
      </trkpt>
      <trkpt lat="48.86896" lon="1.42753">
        <ele>72</ele>
        <time>2026-06-15T14:01:58.000Z</time>
      </trkpt>
      <trkpt lat="48.86879" lon="1.42713">
        <ele>71.400001525879</ele>
        <time>2026-06-15T14:02:03.000Z</time>
      </trkpt>
      <trkpt lat="48.86873" lon="1.42698">
        <ele>71.199996948242</ele>
        <time>2026-06-15T14:02:05.000Z</time>
      </trkpt>
      <trkpt lat="48.86863" lon="1.42674">
        <ele>71</ele>
        <time>2026-06-15T14:02:08.000Z</time>
      </trkpt>
      <trkpt lat="48.8685" lon="1.42636">
        <ele>71</ele>
        <time>2026-06-15T14:02:13.000Z</time>
      </trkpt>
      <trkpt lat="48.86847" lon="1.42629">
        <ele>71</ele>
        <time>2026-06-15T14:02:14.000Z</time>
      </trkpt>
      <trkpt lat="48.8682" lon="1.42565">
        <ele>71.199996948242</ele>
        <time>2026-06-15T14:02:22.000Z</time>
      </trkpt>
      <trkpt lat="48.86801" lon="1.42519">
        <ele>71.599998474121</ele>
        <time>2026-06-15T14:02:28.000Z</time>
      </trkpt>
      <trkpt lat="48.86771" lon="1.42448">
        <ele>72.199996948242</ele>
        <time>2026-06-15T14:02:37.000Z</time>
      </trkpt>
      <trkpt lat="48.86768" lon="1.4244">
        <ele>72.400001525879</ele>
        <time>2026-06-15T14:02:38.000Z</time>
      </trkpt>
      <trkpt lat="48.86765" lon="1.42431">
        <ele>72.400001525879</ele>
        <time>2026-06-15T14:02:39.000Z</time>
      </trkpt>
      <trkpt lat="48.86746" lon="1.42383">
        <ele>72.400001525879</ele>
        <time>2026-06-15T14:02:45.000Z</time>
      </trkpt>
      <trkpt lat="48.86722" lon="1.42326">
        <ele>72.599998474121</ele>
        <time>2026-06-15T14:02:52.000Z</time>
      </trkpt>
      <trkpt lat="48.86696" lon="1.4226">
        <ele>73</ele>
        <time>2026-06-15T14:03:00.000Z</time>
      </trkpt>
      <trkpt lat="48.86666" lon="1.42195">
        <ele>73</ele>
        <time>2026-06-15T14:03:08.000Z</time>
      </trkpt>
      <trkpt lat="48.86643" lon="1.42139">
        <ele>73</ele>
        <time>2026-06-15T14:03:15.000Z</time>
      </trkpt>
      <trkpt lat="48.86623" lon="1.42094">
        <ele>73.199996948242</ele>
        <time>2026-06-15T14:03:21.000Z</time>
      </trkpt>
      <trkpt lat="48.8662" lon="1.42085">
        <ele>73.400001525879</ele>
        <time>2026-06-15T14:03:22.000Z</time>
      </trkpt>
      <trkpt lat="48.86615" lon="1.42069">
        <ele>73.400001525879</ele>
        <time>2026-06-15T14:03:24.000Z</time>
      </trkpt>
      <trkpt lat="48.86601" lon="1.42019">
        <ele>73.599998474121</ele>
        <time>2026-06-15T14:03:30.000Z</time>
      </trkpt>
      <trkpt lat="48.86599" lon="1.42011">
        <ele>73.599998474121</ele>
        <time>2026-06-15T14:03:31.000Z</time>
      </trkpt>
      <trkpt lat="48.86594" lon="1.41987">
        <ele>73.400001525879</ele>
        <time>2026-06-15T14:03:34.000Z</time>
      </trkpt>
      <trkpt lat="48.86575" lon="1.41914">
        <ele>73.400001525879</ele>
        <time>2026-06-15T14:03:42.000Z</time>
      </trkpt>
      <trkpt lat="48.86556" lon="1.41839">
        <ele>73</ele>
        <time>2026-06-15T14:03:50.000Z</time>
      </trkpt>
      <trkpt lat="48.86543" lon="1.41787">
        <ele>73</ele>
        <time>2026-06-15T14:03:56.000Z</time>
      </trkpt>
      <trkpt lat="48.86539" lon="1.4177">
        <ele>73</ele>
        <time>2026-06-15T14:03:58.000Z</time>
      </trkpt>
      <trkpt lat="48.86516" lon="1.41692">
        <ele>73.400001525879</ele>
        <time>2026-06-15T14:04:07.000Z</time>
      </trkpt>
      <trkpt lat="48.86512" lon="1.41674">
        <ele>73.400001525879</ele>
        <time>2026-06-15T14:04:09.000Z</time>
      </trkpt>
      <trkpt lat="48.86505" lon="1.41648">
        <ele>73.400001525879</ele>
        <time>2026-06-15T14:04:12.000Z</time>
      </trkpt>
      <trkpt lat="48.86487" lon="1.4158">
        <ele>73.400001525879</ele>
        <time>2026-06-15T14:04:20.000Z</time>
      </trkpt>
      <trkpt lat="48.86471" lon="1.41524">
        <ele>73.599998474121</ele>
        <time>2026-06-15T14:04:27.000Z</time>
      </trkpt>
      <trkpt lat="48.86468" lon="1.41517">
        <ele>73.599998474121</ele>
        <time>2026-06-15T14:04:28.000Z</time>
      </trkpt>
      <trkpt lat="48.86465" lon="1.415">
        <ele>73.599998474121</ele>
        <time>2026-06-15T14:04:30.000Z</time>
      </trkpt>
      <trkpt lat="48.86465" lon="1.41492">
        <ele>73.599998474121</ele>
        <time>2026-06-15T14:04:31.000Z</time>
      </trkpt>
      <trkpt lat="48.86465" lon="1.41465">
        <ele>73.599998474121</ele>
        <time>2026-06-15T14:04:34.000Z</time>
      </trkpt>
      <trkpt lat="48.86464" lon="1.41447">
        <ele>73.599998474121</ele>
        <time>2026-06-15T14:04:36.000Z</time>
      </trkpt>
      <trkpt lat="48.86462" lon="1.41438">
        <ele>73.599998474121</ele>
        <time>2026-06-15T14:04:37.000Z</time>
      </trkpt>
      <trkpt lat="48.86459" lon="1.41415">
        <ele>73.800003051758</ele>
        <time>2026-06-15T14:04:40.000Z</time>
      </trkpt>
      <trkpt lat="48.86456" lon="1.41403">
        <ele>74</ele>
        <time>2026-06-15T14:04:42.000Z</time>
      </trkpt>
      <trkpt lat="48.86452" lon="1.41385">
        <ele>74</ele>
        <time>2026-06-15T14:04:44.000Z</time>
      </trkpt>
      <trkpt lat="48.8645" lon="1.41377">
        <ele>74</ele>
        <time>2026-06-15T14:04:45.000Z</time>
      </trkpt>
      <trkpt lat="48.86438" lon="1.41327">
        <ele>74.199996948242</ele>
        <time>2026-06-15T14:04:51.000Z</time>
      </trkpt>
      <trkpt lat="48.86436" lon="1.41319">
        <ele>74.199996948242</ele>
        <time>2026-06-15T14:04:52.000Z</time>
      </trkpt>
      <trkpt lat="48.86419" lon="1.4125">
        <ele>74.400001525879</ele>
        <time>2026-06-15T14:05:00.000Z</time>
      </trkpt>
      <trkpt lat="48.8641" lon="1.41204">
        <ele>74.599998474121</ele>
        <time>2026-06-15T14:05:05.000Z</time>
      </trkpt>
      <trkpt lat="48.86406" lon="1.41178">
        <ele>74.800003051758</ele>
        <time>2026-06-15T14:05:08.000Z</time>
      </trkpt>
      <trkpt lat="48.86394" lon="1.41094">
        <ele>75</ele>
        <time>2026-06-15T14:05:18.000Z</time>
      </trkpt>
      <trkpt lat="48.86384" lon="1.4102">
        <ele>74.599998474121</ele>
        <time>2026-06-15T14:05:27.000Z</time>
      </trkpt>
      <trkpt lat="48.8638" lon="1.40968">
        <ele>75</ele>
        <time>2026-06-15T14:05:33.000Z</time>
      </trkpt>
      <trkpt lat="48.86374" lon="1.40885">
        <ele>75.199996948242</ele>
        <time>2026-06-15T14:05:43.000Z</time>
      </trkpt>
      <trkpt lat="48.86373" lon="1.40864">
        <ele>75.199996948242</ele>
        <time>2026-06-15T14:05:45.000Z</time>
      </trkpt>
      <trkpt lat="48.86366" lon="1.40788">
        <ele>75.599998474121</ele>
        <time>2026-06-15T14:05:54.000Z</time>
      </trkpt>
      <trkpt lat="48.86356" lon="1.40715">
        <ele>75.800003051758</ele>
        <time>2026-06-15T14:06:02.000Z</time>
      </trkpt>
      <trkpt lat="48.86354" lon="1.40696">
        <ele>75.800003051758</ele>
        <time>2026-06-15T14:06:04.000Z</time>
      </trkpt>
      <trkpt lat="48.86344" lon="1.40651">
        <ele>76</ele>
        <time>2026-06-15T14:06:09.000Z</time>
      </trkpt>
      <trkpt lat="48.86343" lon="1.40642">
        <ele>76</ele>
        <time>2026-06-15T14:06:10.000Z</time>
      </trkpt>
      <trkpt lat="48.86332" lon="1.40595">
        <ele>76.199996948242</ele>
        <time>2026-06-15T14:06:16.000Z</time>
      </trkpt>
      <trkpt lat="48.86317" lon="1.40542">
        <ele>76.599998474121</ele>
        <time>2026-06-15T14:06:23.000Z</time>
      </trkpt>
      <trkpt lat="48.86292" lon="1.40469">
        <ele>76.800003051758</ele>
        <time>2026-06-15T14:06:32.000Z</time>
      </trkpt>
      <trkpt lat="48.8629" lon="1.40461">
        <ele>76.800003051758</ele>
        <time>2026-06-15T14:06:33.000Z</time>
      </trkpt>
      <trkpt lat="48.86267" lon="1.40396">
        <ele>77</ele>
        <time>2026-06-15T14:06:41.000Z</time>
      </trkpt>
      <trkpt lat="48.86249" lon="1.40344">
        <ele>76.800003051758</ele>
        <time>2026-06-15T14:06:47.000Z</time>
      </trkpt>
      <trkpt lat="48.86238" lon="1.40308">
        <ele>76.800003051758</ele>
        <time>2026-06-15T14:06:52.000Z</time>
      </trkpt>
      <trkpt lat="48.86226" lon="1.40271">
        <ele>77</ele>
        <time>2026-06-15T14:06:58.000Z</time>
      </trkpt>
      <trkpt lat="48.86224" lon="1.40265">
        <ele>77</ele>
        <time>2026-06-15T14:06:59.000Z</time>
      </trkpt>
      <trkpt lat="48.86213" lon="1.40235">
        <ele>77.199996948242</ele>
        <time>2026-06-15T14:07:05.000Z</time>
      </trkpt>
      <trkpt lat="48.8621" lon="1.40225">
        <ele>77.199996948242</ele>
        <time>2026-06-15T14:07:10.000Z</time>
      </trkpt>
      <trkpt lat="48.8621" lon="1.40225">
        <ele>77</ele>
        <time>2026-06-15T14:07:16.000Z</time>
      </trkpt>
      <trkpt lat="48.8621" lon="1.40225">
        <ele>76.599998474121</ele>
        <time>2026-06-15T14:07:29.000Z</time>
      </trkpt>
      <trkpt lat="48.86208" lon="1.40218">
        <ele>76.400001525879</ele>
        <time>2026-06-15T14:07:37.000Z</time>
      </trkpt>
      <trkpt lat="48.86208" lon="1.40215">
        <ele>76.400001525879</ele>
        <time>2026-06-15T14:07:38.000Z</time>
      </trkpt>
      <trkpt lat="48.86204" lon="1.40203">
        <ele>76.400001525879</ele>
        <time>2026-06-15T14:07:41.000Z</time>
      </trkpt>
      <trkpt lat="48.86202" lon="1.40197">
        <ele>76.199996948242</ele>
        <time>2026-06-15T14:07:42.000Z</time>
      </trkpt>
      <trkpt lat="48.86196" lon="1.4018">
        <ele>76.199996948242</ele>
        <time>2026-06-15T14:07:45.000Z</time>
      </trkpt>
      <trkpt lat="48.86194" lon="1.40173">
        <ele>76.199996948242</ele>
        <time>2026-06-15T14:07:46.000Z</time>
      </trkpt>
      <trkpt lat="48.86177" lon="1.40125">
        <ele>76.599998474121</ele>
        <time>2026-06-15T14:07:53.000Z</time>
      </trkpt>
      <trkpt lat="48.86153" lon="1.40055">
        <ele>76.800003051758</ele>
        <time>2026-06-15T14:08:02.000Z</time>
      </trkpt>
      <trkpt lat="48.8615" lon="1.40048">
        <ele>77</ele>
        <time>2026-06-15T14:08:03.000Z</time>
      </trkpt>
      <trkpt lat="48.86143" lon="1.40032">
        <ele>77</ele>
        <time>2026-06-15T14:08:05.000Z</time>
      </trkpt>
      <trkpt lat="48.86135" lon="1.40017">
        <ele>77</ele>
        <time>2026-06-15T14:08:07.000Z</time>
      </trkpt>
      <trkpt lat="48.861" lon="1.39971">
        <ele>77</ele>
        <time>2026-06-15T14:08:14.000Z</time>
      </trkpt>
      <trkpt lat="48.8606" lon="1.39922">
        <ele>76.599998474121</ele>
        <time>2026-06-15T14:08:22.000Z</time>
      </trkpt>
      <trkpt lat="48.86031" lon="1.39887">
        <ele>76.599998474121</ele>
        <time>2026-06-15T14:08:28.000Z</time>
      </trkpt>
      <trkpt lat="48.85987" lon="1.39834">
        <ele>77</ele>
        <time>2026-06-15T14:08:37.000Z</time>
      </trkpt>
      <trkpt lat="48.85962" lon="1.39806">
        <ele>77.199996948242</ele>
        <time>2026-06-15T14:08:42.000Z</time>
      </trkpt>
      <trkpt lat="48.85955" lon="1.39799">
        <ele>77.199996948242</ele>
        <time>2026-06-15T14:08:44.000Z</time>
      </trkpt>
      <trkpt lat="48.85911" lon="1.39753">
        <ele>77</ele>
        <time>2026-06-15T14:08:52.000Z</time>
      </trkpt>
      <trkpt lat="48.85875" lon="1.39718">
        <ele>77.199996948242</ele>
        <time>2026-06-15T14:08:59.000Z</time>
      </trkpt>
      <trkpt lat="48.85834" lon="1.39695">
        <ele>77.199996948242</ele>
        <time>2026-06-15T14:09:06.000Z</time>
      </trkpt>
      <trkpt lat="48.85828" lon="1.3969">
        <ele>77.199996948242</ele>
        <time>2026-06-15T14:09:07.000Z</time>
      </trkpt>
      <trkpt lat="48.85807" lon="1.39666">
        <ele>76.800003051758</ele>
        <time>2026-06-15T14:09:11.000Z</time>
      </trkpt>
      <trkpt lat="48.85798" lon="1.39651">
        <ele>76.599998474121</ele>
        <time>2026-06-15T14:09:13.000Z</time>
      </trkpt>
      <trkpt lat="48.85785" lon="1.39619">
        <ele>76.599998474121</ele>
        <time>2026-06-15T14:09:17.000Z</time>
      </trkpt>
      <trkpt lat="48.85756" lon="1.39545">
        <ele>77</ele>
        <time>2026-06-15T14:09:26.000Z</time>
      </trkpt>
      <trkpt lat="48.85739" lon="1.39498">
        <ele>77.400001525879</ele>
        <time>2026-06-15T14:09:32.000Z</time>
      </trkpt>
      <trkpt lat="48.85728" lon="1.3947">
        <ele>77.400001525879</ele>
        <time>2026-06-15T14:09:36.000Z</time>
      </trkpt>
      <trkpt lat="48.85721" lon="1.39449">
        <ele>77.800003051758</ele>
        <time>2026-06-15T14:09:39.000Z</time>
      </trkpt>
      <trkpt lat="48.85699" lon="1.39382">
        <ele>78.199996948242</ele>
        <time>2026-06-15T14:09:47.000Z</time>
      </trkpt>
      <trkpt lat="48.85673" lon="1.39305">
        <ele>77.400001525879</ele>
        <time>2026-06-15T14:09:55.000Z</time>
      </trkpt>
      <trkpt lat="48.85651" lon="1.39243">
        <ele>76.800003051758</ele>
        <time>2026-06-15T14:10:02.000Z</time>
      </trkpt>
      <trkpt lat="48.85626" lon="1.39175">
        <ele>76.800003051758</ele>
        <time>2026-06-15T14:10:10.000Z</time>
      </trkpt>
      <trkpt lat="48.85599" lon="1.39104">
        <ele>77.199996948242</ele>
        <time>2026-06-15T14:10:18.000Z</time>
      </trkpt>
      <trkpt lat="48.85592" lon="1.39086">
        <ele>77.199996948242</ele>
        <time>2026-06-15T14:10:20.000Z</time>
      </trkpt>
      <trkpt lat="48.85564" lon="1.39011">
        <ele>77</ele>
        <time>2026-06-15T14:10:29.000Z</time>
      </trkpt>
      <trkpt lat="48.85552" lon="1.38979">
        <ele>76.800003051758</ele>
        <time>2026-06-15T14:10:33.000Z</time>
      </trkpt>
      <trkpt lat="48.85529" lon="1.3892">
        <ele>76.800003051758</ele>
        <time>2026-06-15T14:10:40.000Z</time>
      </trkpt>
      <trkpt lat="48.85525" lon="1.38912">
        <ele>76.800003051758</ele>
        <time>2026-06-15T14:10:41.000Z</time>
      </trkpt>
      <trkpt lat="48.85496" lon="1.38842">
        <ele>77.599998474121</ele>
        <time>2026-06-15T14:10:50.000Z</time>
      </trkpt>
      <trkpt lat="48.85489" lon="1.38827">
        <ele>77.800003051758</ele>
        <time>2026-06-15T14:10:52.000Z</time>
      </trkpt>
      <trkpt lat="48.85464" lon="1.38762">
        <ele>78.199996948242</ele>
        <time>2026-06-15T14:11:00.000Z</time>
      </trkpt>
      <trkpt lat="48.8544" lon="1.38717">
        <ele>78.199996948242</ele>
        <time>2026-06-15T14:11:06.000Z</time>
      </trkpt>
      <trkpt lat="48.85408" lon="1.38686">
        <ele>78</ele>
        <time>2026-06-15T14:11:12.000Z</time>
      </trkpt>
      <trkpt lat="48.85361" lon="1.38641">
        <ele>78</ele>
        <time>2026-06-15T14:11:21.000Z</time>
      </trkpt>
      <trkpt lat="48.8533" lon="1.38604">
        <ele>78.599998474121</ele>
        <time>2026-06-15T14:11:28.000Z</time>
      </trkpt>
      <trkpt lat="48.85291" lon="1.38554">
        <ele>79</ele>
        <time>2026-06-15T14:11:37.000Z</time>
      </trkpt>
      <trkpt lat="48.85265" lon="1.38519">
        <ele>78.800003051758</ele>
        <time>2026-06-15T14:11:43.000Z</time>
      </trkpt>
      <trkpt lat="48.85223" lon="1.38458">
        <ele>78.599998474121</ele>
        <time>2026-06-15T14:11:53.000Z</time>
      </trkpt>
      <trkpt lat="48.85184" lon="1.38413">
        <ele>79</ele>
        <time>2026-06-15T14:12:01.000Z</time>
      </trkpt>
      <trkpt lat="48.85148" lon="1.38377">
        <ele>79</ele>
        <time>2026-06-15T14:12:08.000Z</time>
      </trkpt>
      <trkpt lat="48.85133" lon="1.38362">
        <ele>79.199996948242</ele>
        <time>2026-06-15T14:12:11.000Z</time>
      </trkpt>
      <trkpt lat="48.85095" lon="1.38323">
        <ele>79.400001525879</ele>
        <time>2026-06-15T14:12:19.000Z</time>
      </trkpt>
      <trkpt lat="48.85063" lon="1.38283">
        <ele>79.400001525879</ele>
        <time>2026-06-15T14:12:26.000Z</time>
      </trkpt>
      <trkpt lat="48.85035" lon="1.38231">
        <ele>79.599998474121</ele>
        <time>2026-06-15T14:12:33.000Z</time>
      </trkpt>
      <trkpt lat="48.85011" lon="1.38174">
        <ele>79.400001525879</ele>
        <time>2026-06-15T14:12:40.000Z</time>
      </trkpt>
      <trkpt lat="48.84988" lon="1.38105">
        <ele>79.400001525879</ele>
        <time>2026-06-15T14:12:48.000Z</time>
      </trkpt>
      <trkpt lat="48.84983" lon="1.38089">
        <ele>79.599998474121</ele>
        <time>2026-06-15T14:12:50.000Z</time>
      </trkpt>
      <trkpt lat="48.84968" lon="1.38029">
        <ele>79.400001525879</ele>
        <time>2026-06-15T14:12:57.000Z</time>
      </trkpt>
      <trkpt lat="48.84948" lon="1.37963">
        <ele>79.199996948242</ele>
        <time>2026-06-15T14:13:05.000Z</time>
      </trkpt>
      <trkpt lat="48.84925" lon="1.379">
        <ele>79</ele>
        <time>2026-06-15T14:13:13.000Z</time>
      </trkpt>
      <trkpt lat="48.84895" lon="1.37833">
        <ele>79</ele>
        <time>2026-06-15T14:13:22.000Z</time>
      </trkpt>
      <trkpt lat="48.84864" lon="1.37772">
        <ele>79.199996948242</ele>
        <time>2026-06-15T14:13:31.000Z</time>
      </trkpt>
      <trkpt lat="48.84845" lon="1.37716">
        <ele>79.400001525879</ele>
        <time>2026-06-15T14:13:38.000Z</time>
      </trkpt>
      <trkpt lat="48.84826" lon="1.37658">
        <ele>79.199996948242</ele>
        <time>2026-06-15T14:13:45.000Z</time>
      </trkpt>
      <trkpt lat="48.84818" lon="1.37633">
        <ele>79.199996948242</ele>
        <time>2026-06-15T14:13:48.000Z</time>
      </trkpt>
      <trkpt lat="48.8479" lon="1.37569">
        <ele>78.800003051758</ele>
        <time>2026-06-15T14:13:56.000Z</time>
      </trkpt>
      <trkpt lat="48.84758" lon="1.37511">
        <ele>78.800003051758</ele>
        <time>2026-06-15T14:14:04.000Z</time>
      </trkpt>
      <trkpt lat="48.84722" lon="1.37465">
        <ele>79</ele>
        <time>2026-06-15T14:14:12.000Z</time>
      </trkpt>
      <trkpt lat="48.84696" lon="1.37436">
        <ele>79.199996948242</ele>
        <time>2026-06-15T14:14:18.000Z</time>
      </trkpt>
      <trkpt lat="48.84665" lon="1.3741">
        <ele>79</ele>
        <time>2026-06-15T14:14:24.000Z</time>
      </trkpt>
      <trkpt lat="48.84659" lon="1.37407">
        <ele>79</ele>
        <time>2026-06-15T14:14:25.000Z</time>
      </trkpt>
      <trkpt lat="48.84654" lon="1.37406">
        <ele>79</ele>
        <time>2026-06-15T14:14:26.000Z</time>
      </trkpt>
      <trkpt lat="48.84635" lon="1.37406">
        <ele>79</ele>
        <time>2026-06-15T14:14:29.000Z</time>
      </trkpt>
      <trkpt lat="48.84592" lon="1.374">
        <ele>79</ele>
        <time>2026-06-15T14:14:36.000Z</time>
      </trkpt>
      <trkpt lat="48.84565" lon="1.37381">
        <ele>78.800003051758</ele>
        <time>2026-06-15T14:14:41.000Z</time>
      </trkpt>
      <trkpt lat="48.8456" lon="1.37376">
        <ele>78.800003051758</ele>
        <time>2026-06-15T14:14:42.000Z</time>
      </trkpt>
      <trkpt lat="48.84543" lon="1.37359">
        <ele>78.800003051758</ele>
        <time>2026-06-15T14:14:45.000Z</time>
      </trkpt>
      <trkpt lat="48.84518" lon="1.37331">
        <ele>78.800003051758</ele>
        <time>2026-06-15T14:14:50.000Z</time>
      </trkpt>
      <trkpt lat="48.8447" lon="1.3728">
        <ele>79</ele>
        <time>2026-06-15T14:14:59.000Z</time>
      </trkpt>
      <trkpt lat="48.84424" lon="1.37231">
        <ele>79.199996948242</ele>
        <time>2026-06-15T14:15:08.000Z</time>
      </trkpt>
      <trkpt lat="48.84388" lon="1.37187">
        <ele>79.400001525879</ele>
        <time>2026-06-15T14:15:16.000Z</time>
      </trkpt>
      <trkpt lat="48.84362" lon="1.3715">
        <ele>79.800003051758</ele>
        <time>2026-06-15T14:15:22.000Z</time>
      </trkpt>
      <trkpt lat="48.84321" lon="1.37091">
        <ele>79.800003051758</ele>
        <time>2026-06-15T14:15:32.000Z</time>
      </trkpt>
      <trkpt lat="48.84306" lon="1.37069">
        <ele>79.800003051758</ele>
        <time>2026-06-15T14:15:36.000Z</time>
      </trkpt>
      <trkpt lat="48.84297" lon="1.3706">
        <ele>80</ele>
        <time>2026-06-15T14:15:38.000Z</time>
      </trkpt>
      <trkpt lat="48.8426" lon="1.37025">
        <ele>80.199996948242</ele>
        <time>2026-06-15T14:15:46.000Z</time>
      </trkpt>
      <trkpt lat="48.84244" lon="1.37011">
        <ele>80.199996948242</ele>
        <time>2026-06-15T14:15:49.000Z</time>
      </trkpt>
      <trkpt lat="48.84223" lon="1.36994">
        <ele>80</ele>
        <time>2026-06-15T14:15:53.000Z</time>
      </trkpt>
      <trkpt lat="48.84172" lon="1.36949">
        <ele>79.800003051758</ele>
        <time>2026-06-15T14:16:03.000Z</time>
      </trkpt>
      <trkpt lat="48.84161" lon="1.36939">
        <ele>79.599998474121</ele>
        <time>2026-06-15T14:16:05.000Z</time>
      </trkpt>
      <trkpt lat="48.84112" lon="1.36888">
        <ele>79.599998474121</ele>
        <time>2026-06-15T14:16:15.000Z</time>
      </trkpt>
      <trkpt lat="48.84082" lon="1.36847">
        <ele>80</ele>
        <time>2026-06-15T14:16:22.000Z</time>
      </trkpt>
      <trkpt lat="48.84048" lon="1.36794">
        <ele>80.199996948242</ele>
        <time>2026-06-15T14:16:31.000Z</time>
      </trkpt>
      <trkpt lat="48.84017" lon="1.36731">
        <ele>80.199996948242</ele>
        <time>2026-06-15T14:16:40.000Z</time>
      </trkpt>
      <trkpt lat="48.83988" lon="1.36662">
        <ele>79.800003051758</ele>
        <time>2026-06-15T14:16:49.000Z</time>
      </trkpt>
      <trkpt lat="48.83965" lon="1.36607">
        <ele>79.400001525879</ele>
        <time>2026-06-15T14:16:56.000Z</time>
      </trkpt>
      <trkpt lat="48.83936" lon="1.36537">
        <ele>79.199996948242</ele>
        <time>2026-06-15T14:17:05.000Z</time>
      </trkpt>
      <trkpt lat="48.83929" lon="1.36522">
        <ele>79.400001525879</ele>
        <time>2026-06-15T14:17:07.000Z</time>
      </trkpt>
      <trkpt lat="48.83901" lon="1.3645">
        <ele>80.199996948242</ele>
        <time>2026-06-15T14:17:16.000Z</time>
      </trkpt>
      <trkpt lat="48.83898" lon="1.36442">
        <ele>80.199996948242</ele>
        <time>2026-06-15T14:17:17.000Z</time>
      </trkpt>
      <trkpt lat="48.83865" lon="1.36372">
        <ele>80</ele>
        <time>2026-06-15T14:17:26.000Z</time>
      </trkpt>
      <trkpt lat="48.83827" lon="1.3631">
        <ele>79.800003051758</ele>
        <time>2026-06-15T14:17:35.000Z</time>
      </trkpt>
      <trkpt lat="48.83802" lon="1.36275">
        <ele>80</ele>
        <time>2026-06-15T14:17:41.000Z</time>
      </trkpt>
      <trkpt lat="48.83795" lon="1.36266">
        <ele>80</ele>
        <time>2026-06-15T14:17:43.000Z</time>
      </trkpt>
      <trkpt lat="48.83753" lon="1.36211">
        <ele>80.199996948242</ele>
        <time>2026-06-15T14:17:52.000Z</time>
      </trkpt>
      <trkpt lat="48.83749" lon="1.36205">
        <ele>80.199996948242</ele>
        <time>2026-06-15T14:17:53.000Z</time>
      </trkpt>
      <trkpt lat="48.83708" lon="1.36153">
        <ele>80.199996948242</ele>
        <time>2026-06-15T14:18:02.000Z</time>
      </trkpt>
      <trkpt lat="48.83663" lon="1.36104">
        <ele>80.599998474121</ele>
        <time>2026-06-15T14:18:11.000Z</time>
      </trkpt>
      <trkpt lat="48.83658" lon="1.361">
        <ele>80.599998474121</ele>
        <time>2026-06-15T14:18:12.000Z</time>
      </trkpt>
      <trkpt lat="48.83608" lon="1.36057">
        <ele>80.400001525879</ele>
        <time>2026-06-15T14:18:21.000Z</time>
      </trkpt>
      <trkpt lat="48.83561" lon="1.36011">
        <ele>80.199996948242</ele>
        <time>2026-06-15T14:18:30.000Z</time>
      </trkpt>
      <trkpt lat="48.83531" lon="1.35965">
        <ele>80.199996948242</ele>
        <time>2026-06-15T14:18:37.000Z</time>
      </trkpt>
      <trkpt lat="48.83504" lon="1.35905">
        <ele>80.400001525879</ele>
        <time>2026-06-15T14:18:45.000Z</time>
      </trkpt>
      <trkpt lat="48.83478" lon="1.35829">
        <ele>80.400001525879</ele>
        <time>2026-06-15T14:18:54.000Z</time>
      </trkpt>
      <trkpt lat="48.83467" lon="1.35778">
        <ele>80.400001525879</ele>
        <time>2026-06-15T14:19:00.000Z</time>
      </trkpt>
      <trkpt lat="48.83461" lon="1.35718">
        <ele>80.599998474121</ele>
        <time>2026-06-15T14:19:07.000Z</time>
      </trkpt>
      <trkpt lat="48.8346" lon="1.35709">
        <ele>80.599998474121</ele>
        <time>2026-06-15T14:19:08.000Z</time>
      </trkpt>
      <trkpt lat="48.8346" lon="1.35669">
        <ele>80.599998474121</ele>
        <time>2026-06-15T14:19:13.000Z</time>
      </trkpt>
      <trkpt lat="48.83461" lon="1.35583">
        <ele>81</ele>
        <time>2026-06-15T14:19:22.000Z</time>
      </trkpt>
      <trkpt lat="48.83461" lon="1.35574">
        <ele>81.199996948242</ele>
        <time>2026-06-15T14:19:23.000Z</time>
      </trkpt>
      <trkpt lat="48.83464" lon="1.35491">
        <ele>81</ele>
        <time>2026-06-15T14:19:32.000Z</time>
      </trkpt>
      <trkpt lat="48.83468" lon="1.35408">
        <ele>81.400001525879</ele>
        <time>2026-06-15T14:19:41.000Z</time>
      </trkpt>
      <trkpt lat="48.83471" lon="1.35345">
        <ele>81.400001525879</ele>
        <time>2026-06-15T14:19:48.000Z</time>
      </trkpt>
      <trkpt lat="48.83472" lon="1.35307">
        <ele>81.599998474121</ele>
        <time>2026-06-15T14:19:52.000Z</time>
      </trkpt>
      <trkpt lat="48.83471" lon="1.35278">
        <ele>81.800003051758</ele>
        <time>2026-06-15T14:19:55.000Z</time>
      </trkpt>
      <trkpt lat="48.83465" lon="1.3522">
        <ele>82</ele>
        <time>2026-06-15T14:20:01.000Z</time>
      </trkpt>
      <trkpt lat="48.83445" lon="1.35147">
        <ele>82.199996948242</ele>
        <time>2026-06-15T14:20:09.000Z</time>
      </trkpt>
      <trkpt lat="48.83423" lon="1.35094">
        <ele>82.400001525879</ele>
        <time>2026-06-15T14:20:16.000Z</time>
      </trkpt>
      <trkpt lat="48.83405" lon="1.35061">
        <ele>82.400001525879</ele>
        <time>2026-06-15T14:20:21.000Z</time>
      </trkpt>
      <trkpt lat="48.83402" lon="1.35054">
        <ele>82.400001525879</ele>
        <time>2026-06-15T14:20:22.000Z</time>
      </trkpt>
      <trkpt lat="48.83369" lon="1.35008">
        <ele>82.400001525879</ele>
        <time>2026-06-15T14:20:30.000Z</time>
      </trkpt>
      <trkpt lat="48.83334" lon="1.34973">
        <ele>82.400001525879</ele>
        <time>2026-06-15T14:20:37.000Z</time>
      </trkpt>
      <trkpt lat="48.83323" lon="1.34965">
        <ele>82.599998474121</ele>
        <time>2026-06-15T14:20:40.000Z</time>
      </trkpt>
      <trkpt lat="48.83284" lon="1.34936">
        <ele>82.800003051758</ele>
        <time>2026-06-15T14:20:46.000Z</time>
      </trkpt>
      <trkpt lat="48.83243" lon="1.34905">
        <ele>83.400001525879</ele>
        <time>2026-06-15T14:20:54.000Z</time>
      </trkpt>
      <trkpt lat="48.83213" lon="1.34883">
        <ele>83.599998474121</ele>
        <time>2026-06-15T14:21:00.000Z</time>
      </trkpt>
      <trkpt lat="48.83189" lon="1.34862">
        <ele>83.800003051758</ele>
        <time>2026-06-15T14:21:05.000Z</time>
      </trkpt>
      <trkpt lat="48.83158" lon="1.34836">
        <ele>84</ele>
        <time>2026-06-15T14:21:12.000Z</time>
      </trkpt>
      <trkpt lat="48.83126" lon="1.34811">
        <ele>84.199996948242</ele>
        <time>2026-06-15T14:21:19.000Z</time>
      </trkpt>
      <trkpt lat="48.83081" lon="1.3479">
        <ele>84.199996948242</ele>
        <time>2026-06-15T14:21:27.000Z</time>
      </trkpt>
      <trkpt lat="48.83037" lon="1.34781">
        <ele>84.199996948242</ele>
        <time>2026-06-15T14:21:34.000Z</time>
      </trkpt>
      <trkpt lat="48.82983" lon="1.34776">
        <ele>84.199996948242</ele>
        <time>2026-06-15T14:21:43.000Z</time>
      </trkpt>
      <trkpt lat="48.82927" lon="1.34775">
        <ele>83.599998474121</ele>
        <time>2026-06-15T14:21:51.000Z</time>
      </trkpt>
      <trkpt lat="48.82913" lon="1.34774">
        <ele>83.599998474121</ele>
        <time>2026-06-15T14:21:53.000Z</time>
      </trkpt>
      <trkpt lat="48.82858" lon="1.34774">
        <ele>83</ele>
        <time>2026-06-15T14:22:01.000Z</time>
      </trkpt>
      <trkpt lat="48.82831" lon="1.34773">
        <ele>82.800003051758</ele>
        <time>2026-06-15T14:22:05.000Z</time>
      </trkpt>
      <trkpt lat="48.82825" lon="1.34773">
        <ele>82.800003051758</ele>
        <time>2026-06-15T14:22:06.000Z</time>
      </trkpt>
      <trkpt lat="48.82792" lon="1.34777">
        <ele>82.800003051758</ele>
        <time>2026-06-15T14:22:11.000Z</time>
      </trkpt>
      <trkpt lat="48.82749" lon="1.34795">
        <ele>83.199996948242</ele>
        <time>2026-06-15T14:22:18.000Z</time>
      </trkpt>
      <trkpt lat="48.82736" lon="1.348">
        <ele>83.400001525879</ele>
        <time>2026-06-15T14:22:20.000Z</time>
      </trkpt>
      <trkpt lat="48.82717" lon="1.34802">
        <ele>83.400001525879</ele>
        <time>2026-06-15T14:22:23.000Z</time>
      </trkpt>
      <trkpt lat="48.8271" lon="1.348">
        <ele>83.599998474121</ele>
        <time>2026-06-15T14:22:24.000Z</time>
      </trkpt>
      <trkpt lat="48.82693" lon="1.34795">
        <ele>83.599998474121</ele>
        <time>2026-06-15T14:22:27.000Z</time>
      </trkpt>
      <trkpt lat="48.8267" lon="1.34785">
        <ele>83.599998474121</ele>
        <time>2026-06-15T14:22:31.000Z</time>
      </trkpt>
      <trkpt lat="48.82655" lon="1.34775">
        <ele>83.599998474121</ele>
        <time>2026-06-15T14:22:34.000Z</time>
      </trkpt>
      <trkpt lat="48.82644" lon="1.34768">
        <ele>83.599998474121</ele>
        <time>2026-06-15T14:22:36.000Z</time>
      </trkpt>
      <trkpt lat="48.82596" lon="1.34728">
        <ele>83.400001525879</ele>
        <time>2026-06-15T14:22:46.000Z</time>
      </trkpt>
      <trkpt lat="48.82587" lon="1.34721">
        <ele>83.400001525879</ele>
        <time>2026-06-15T14:22:48.000Z</time>
      </trkpt>
      <trkpt lat="48.82577" lon="1.34718">
        <ele>83.400001525879</ele>
        <time>2026-06-15T14:22:50.000Z</time>
      </trkpt>
      <trkpt lat="48.82573" lon="1.34718">
        <ele>83.199996948242</ele>
        <time>2026-06-15T14:22:51.000Z</time>
      </trkpt>
      <trkpt lat="48.82569" lon="1.34718">
        <ele>83.199996948242</ele>
        <time>2026-06-15T14:22:52.000Z</time>
      </trkpt>
      <trkpt lat="48.8256" lon="1.34715">
        <ele>82.599998474121</ele>
        <time>2026-06-15T14:22:54.000Z</time>
      </trkpt>
      <trkpt lat="48.82556" lon="1.34715">
        <ele>82.599998474121</ele>
        <time>2026-06-15T14:22:55.000Z</time>
      </trkpt>
      <trkpt lat="48.82551" lon="1.34717">
        <ele>82.400001525879</ele>
        <time>2026-06-15T14:22:56.000Z</time>
      </trkpt>
      <trkpt lat="48.82537" lon="1.34728">
        <ele>82</ele>
        <time>2026-06-15T14:22:59.000Z</time>
      </trkpt>
      <trkpt lat="48.8251" lon="1.34748">
        <ele>81.800003051758</ele>
        <time>2026-06-15T14:23:04.000Z</time>
      </trkpt>
      <trkpt lat="48.82498" lon="1.34756">
        <ele>81.800003051758</ele>
        <time>2026-06-15T14:23:06.000Z</time>
      </trkpt>
      <trkpt lat="48.82456" lon="1.34792">
        <ele>81.599998474121</ele>
        <time>2026-06-15T14:23:14.000Z</time>
      </trkpt>
      <trkpt lat="48.82424" lon="1.34822">
        <ele>81.400001525879</ele>
        <time>2026-06-15T14:23:20.000Z</time>
      </trkpt>
      <trkpt lat="48.82379" lon="1.34877">
        <ele>81.599998474121</ele>
        <time>2026-06-15T14:23:29.000Z</time>
      </trkpt>
      <trkpt lat="48.8234" lon="1.34944">
        <ele>81.599998474121</ele>
        <time>2026-06-15T14:23:38.000Z</time>
      </trkpt>
      <trkpt lat="48.82303" lon="1.34996">
        <ele>81.599998474121</ele>
        <time>2026-06-15T14:23:46.000Z</time>
      </trkpt>
      <trkpt lat="48.82299" lon="1.35003">
        <ele>81.599998474121</ele>
        <time>2026-06-15T14:23:47.000Z</time>
      </trkpt>
      <trkpt lat="48.82292" lon="1.35019">
        <ele>81.599998474121</ele>
        <time>2026-06-15T14:23:49.000Z</time>
      </trkpt>
      <trkpt lat="48.82289" lon="1.35027">
        <ele>81.599998474121</ele>
        <time>2026-06-15T14:23:50.000Z</time>
      </trkpt>
      <trkpt lat="48.82273" lon="1.35082">
        <ele>81.400001525879</ele>
        <time>2026-06-15T14:23:56.000Z</time>
      </trkpt>
      <trkpt lat="48.82252" lon="1.35165">
        <ele>81.400001525879</ele>
        <time>2026-06-15T14:24:05.000Z</time>
      </trkpt>
      <trkpt lat="48.82241" lon="1.35201">
        <ele>81.199996948242</ele>
        <time>2026-06-15T14:24:09.000Z</time>
      </trkpt>
      <trkpt lat="48.82217" lon="1.35277">
        <ele>81.800003051758</ele>
        <time>2026-06-15T14:24:18.000Z</time>
      </trkpt>
      <trkpt lat="48.82214" lon="1.35285">
        <ele>81.800003051758</ele>
        <time>2026-06-15T14:24:19.000Z</time>
      </trkpt>
      <trkpt lat="48.8219" lon="1.35361">
        <ele>82</ele>
        <time>2026-06-15T14:24:28.000Z</time>
      </trkpt>
      <trkpt lat="48.82187" lon="1.3537">
        <ele>82</ele>
        <time>2026-06-15T14:24:29.000Z</time>
      </trkpt>
      <trkpt lat="48.82165" lon="1.35443">
        <ele>81.800003051758</ele>
        <time>2026-06-15T14:24:38.000Z</time>
      </trkpt>
      <trkpt lat="48.82142" lon="1.35513">
        <ele>81.800003051758</ele>
        <time>2026-06-15T14:24:46.000Z</time>
      </trkpt>
      <trkpt lat="48.82134" lon="1.35539">
        <ele>81.599998474121</ele>
        <time>2026-06-15T14:24:49.000Z</time>
      </trkpt>
      <trkpt lat="48.82126" lon="1.35564">
        <ele>81.599998474121</ele>
        <time>2026-06-15T14:24:52.000Z</time>
      </trkpt>
      <trkpt lat="48.82106" lon="1.35632">
        <ele>81.800003051758</ele>
        <time>2026-06-15T14:25:00.000Z</time>
      </trkpt>
      <trkpt lat="48.82091" lon="1.3568">
        <ele>81.800003051758</ele>
        <time>2026-06-15T14:25:06.000Z</time>
      </trkpt>
      <trkpt lat="48.82076" lon="1.3573">
        <ele>81.800003051758</ele>
        <time>2026-06-15T14:25:12.000Z</time>
      </trkpt>
      <trkpt lat="48.82048" lon="1.3581">
        <ele>82.199996948242</ele>
        <time>2026-06-15T14:25:22.000Z</time>
      </trkpt>
      <trkpt lat="48.82044" lon="1.35825">
        <ele>82.199996948242</ele>
        <time>2026-06-15T14:25:24.000Z</time>
      </trkpt>
      <trkpt lat="48.82037" lon="1.35847">
        <ele>82.599998474121</ele>
        <time>2026-06-15T14:25:27.000Z</time>
      </trkpt>
      <trkpt lat="48.8203" lon="1.35867">
        <ele>82.800003051758</ele>
        <time>2026-06-15T14:25:30.000Z</time>
      </trkpt>
      <trkpt lat="48.82024" lon="1.35889">
        <ele>83.199996948242</ele>
        <time>2026-06-15T14:25:33.000Z</time>
      </trkpt>
      <trkpt lat="48.82015" lon="1.35923">
        <ele>83.800003051758</ele>
        <time>2026-06-15T14:25:38.000Z</time>
      </trkpt>
      <trkpt lat="48.82011" lon="1.35944">
        <ele>84.199996948242</ele>
        <time>2026-06-15T14:25:41.000Z</time>
      </trkpt>
      <trkpt lat="48.82008" lon="1.35958">
        <ele>84.400001525879</ele>
        <time>2026-06-15T14:25:43.000Z</time>
      </trkpt>
      <trkpt lat="48.82008" lon="1.35964">
        <ele>84.400001525879</ele>
        <time>2026-06-15T14:25:44.000Z</time>
      </trkpt>
      <trkpt lat="48.82" lon="1.35996">
        <ele>85</ele>
        <time>2026-06-15T14:25:50.000Z</time>
      </trkpt>
      <trkpt lat="48.81988" lon="1.36009">
        <ele>85.199996948242</ele>
        <time>2026-06-15T14:25:54.000Z</time>
      </trkpt>
      <trkpt lat="48.8198" lon="1.36011">
        <ele>85.400001525879</ele>
        <time>2026-06-15T14:25:56.000Z</time>
      </trkpt>
      <trkpt lat="48.81964" lon="1.36013">
        <ele>85.800003051758</ele>
        <time>2026-06-15T14:26:00.000Z</time>
      </trkpt>
      <trkpt lat="48.8194" lon="1.36015">
        <ele>86.400001525879</ele>
        <time>2026-06-15T14:26:05.000Z</time>
      </trkpt>
      <trkpt lat="48.81934" lon="1.36015">
        <ele>86.400001525879</ele>
        <time>2026-06-15T14:26:06.000Z</time>
      </trkpt>
      <trkpt lat="48.81895" lon="1.36017">
        <ele>86.599998474121</ele>
        <time>2026-06-15T14:26:12.000Z</time>
      </trkpt>
      <trkpt lat="48.81855" lon="1.36012">
        <ele>86.199996948242</ele>
        <time>2026-06-15T14:26:18.000Z</time>
      </trkpt>
      <trkpt lat="48.81805" lon="1.36004">
        <ele>85.199996948242</ele>
        <time>2026-06-15T14:26:25.000Z</time>
      </trkpt>
      <trkpt lat="48.81748" lon="1.35998">
        <ele>84.599998474121</ele>
        <time>2026-06-15T14:26:33.000Z</time>
      </trkpt>
      <trkpt lat="48.81726" lon="1.35997">
        <ele>84.199996948242</ele>
        <time>2026-06-15T14:26:36.000Z</time>
      </trkpt>
      <trkpt lat="48.81678" lon="1.35998">
        <ele>84.199996948242</ele>
        <time>2026-06-15T14:26:43.000Z</time>
      </trkpt>
      <trkpt lat="48.81625" lon="1.36006">
        <ele>83.800003051758</ele>
        <time>2026-06-15T14:26:51.000Z</time>
      </trkpt>
      <trkpt lat="48.81577" lon="1.36019">
        <ele>83.599998474121</ele>
        <time>2026-06-15T14:26:59.000Z</time>
      </trkpt>
      <trkpt lat="48.81541" lon="1.36025">
        <ele>84.400001525879</ele>
        <time>2026-06-15T14:27:06.000Z</time>
      </trkpt>
      <trkpt lat="48.81495" lon="1.36029">
        <ele>84.800003051758</ele>
        <time>2026-06-15T14:27:14.000Z</time>
      </trkpt>
      <trkpt lat="48.81452" lon="1.36035">
        <ele>84.800003051758</ele>
        <time>2026-06-15T14:27:21.000Z</time>
      </trkpt>
      <trkpt lat="48.81395" lon="1.36051">
        <ele>85</ele>
        <time>2026-06-15T14:27:30.000Z</time>
      </trkpt>
      <trkpt lat="48.81354" lon="1.36065">
        <ele>85</ele>
        <time>2026-06-15T14:27:37.000Z</time>
      </trkpt>
      <trkpt lat="48.81348" lon="1.36066">
        <ele>85.199996948242</ele>
        <time>2026-06-15T14:27:38.000Z</time>
      </trkpt>
      <trkpt lat="48.81312" lon="1.36075">
        <ele>85.599998474121</ele>
        <time>2026-06-15T14:27:45.000Z</time>
      </trkpt>
      <trkpt lat="48.81268" lon="1.36085">
        <ele>86</ele>
        <time>2026-06-15T14:27:52.000Z</time>
      </trkpt>
      <trkpt lat="48.81223" lon="1.361">
        <ele>85.199996948242</ele>
        <time>2026-06-15T14:27:59.000Z</time>
      </trkpt>
      <trkpt lat="48.81194" lon="1.36113">
        <ele>85</ele>
        <time>2026-06-15T14:28:04.000Z</time>
      </trkpt>
      <trkpt lat="48.81147" lon="1.36137">
        <ele>85</ele>
        <time>2026-06-15T14:28:12.000Z</time>
      </trkpt>
      <trkpt lat="48.81104" lon="1.36163">
        <ele>85.199996948242</ele>
        <time>2026-06-15T14:28:19.000Z</time>
      </trkpt>
      <trkpt lat="48.81073" lon="1.36185">
        <ele>85.199996948242</ele>
        <time>2026-06-15T14:28:24.000Z</time>
      </trkpt>
      <trkpt lat="48.81036" lon="1.36214">
        <ele>85</ele>
        <time>2026-06-15T14:28:30.000Z</time>
      </trkpt>
      <trkpt lat="48.80991" lon="1.36253">
        <ele>84.800003051758</ele>
        <time>2026-06-15T14:28:37.000Z</time>
      </trkpt>
      <trkpt lat="48.8094" lon="1.36299">
        <ele>84.800003051758</ele>
        <time>2026-06-15T14:28:46.000Z</time>
      </trkpt>
      <trkpt lat="48.80934" lon="1.36305">
        <ele>84.800003051758</ele>
        <time>2026-06-15T14:28:47.000Z</time>
      </trkpt>
      <trkpt lat="48.80914" lon="1.36326">
        <ele>85</ele>
        <time>2026-06-15T14:28:51.000Z</time>
      </trkpt>
      <trkpt lat="48.80878" lon="1.36365">
        <ele>85</ele>
        <time>2026-06-15T14:28:59.000Z</time>
      </trkpt>
      <trkpt lat="48.80869" lon="1.36376">
        <ele>85.199996948242</ele>
        <time>2026-06-15T14:29:01.000Z</time>
      </trkpt>
      <trkpt lat="48.80855" lon="1.36399">
        <ele>85.599998474121</ele>
        <time>2026-06-15T14:29:05.000Z</time>
      </trkpt>
      <trkpt lat="48.80837" lon="1.36428">
        <ele>86</ele>
        <time>2026-06-15T14:29:10.000Z</time>
      </trkpt>
      <trkpt lat="48.80821" lon="1.36451">
        <ele>86.599998474121</ele>
        <time>2026-06-15T14:29:14.000Z</time>
      </trkpt>
      <trkpt lat="48.80817" lon="1.36456">
        <ele>86.599998474121</ele>
        <time>2026-06-15T14:29:15.000Z</time>
      </trkpt>
      <trkpt lat="48.80807" lon="1.36464">
        <ele>86.800003051758</ele>
        <time>2026-06-15T14:29:17.000Z</time>
      </trkpt>
      <trkpt lat="48.80802" lon="1.36467">
        <ele>87</ele>
        <time>2026-06-15T14:29:18.000Z</time>
      </trkpt>
      <trkpt lat="48.80798" lon="1.36469">
        <ele>87</ele>
        <time>2026-06-15T14:29:19.000Z</time>
      </trkpt>
      <trkpt lat="48.80764" lon="1.36478">
        <ele>87</ele>
        <time>2026-06-15T14:29:25.000Z</time>
      </trkpt>
      <trkpt lat="48.80723" lon="1.36491">
        <ele>86.199996948242</ele>
        <time>2026-06-15T14:29:31.000Z</time>
      </trkpt>
      <trkpt lat="48.80703" lon="1.36501">
        <ele>85.800003051758</ele>
        <time>2026-06-15T14:29:34.000Z</time>
      </trkpt>
      <trkpt lat="48.8069" lon="1.3651">
        <ele>85.400001525879</ele>
        <time>2026-06-15T14:29:36.000Z</time>
      </trkpt>
      <trkpt lat="48.80677" lon="1.36518">
        <ele>85.400001525879</ele>
        <time>2026-06-15T14:29:38.000Z</time>
      </trkpt>
      <trkpt lat="48.80642" lon="1.36541">
        <ele>84.800003051758</ele>
        <time>2026-06-15T14:29:44.000Z</time>
      </trkpt>
      <trkpt lat="48.80632" lon="1.36547">
        <ele>84.800003051758</ele>
        <time>2026-06-15T14:29:46.000Z</time>
      </trkpt>
      <trkpt lat="48.80608" lon="1.36563">
        <ele>84.599998474121</ele>
        <time>2026-06-15T14:29:51.000Z</time>
      </trkpt>
      <trkpt lat="48.80581" lon="1.36591">
        <ele>85</ele>
        <time>2026-06-15T14:29:57.000Z</time>
      </trkpt>
      <trkpt lat="48.80544" lon="1.36629">
        <ele>86</ele>
        <time>2026-06-15T14:30:05.000Z</time>
      </trkpt>
      <trkpt lat="48.80491" lon="1.36666">
        <ele>86.400001525879</ele>
        <time>2026-06-15T14:30:15.000Z</time>
      </trkpt>
      <trkpt lat="48.80456" lon="1.36692">
        <ele>85.800003051758</ele>
        <time>2026-06-15T14:30:21.000Z</time>
      </trkpt>
      <trkpt lat="48.80421" lon="1.36724">
        <ele>85.199996948242</ele>
        <time>2026-06-15T14:30:27.000Z</time>
      </trkpt>
      <trkpt lat="48.80415" lon="1.36729">
        <ele>85</ele>
        <time>2026-06-15T14:30:28.000Z</time>
      </trkpt>
      <trkpt lat="48.80383" lon="1.36762">
        <ele>84.599998474121</ele>
        <time>2026-06-15T14:30:34.000Z</time>
      </trkpt>
      <trkpt lat="48.80344" lon="1.36801">
        <ele>84.800003051758</ele>
        <time>2026-06-15T14:30:42.000Z</time>
      </trkpt>
      <trkpt lat="48.80303" lon="1.36841">
        <ele>84.599998474121</ele>
        <time>2026-06-15T14:30:50.000Z</time>
      </trkpt>
      <trkpt lat="48.80272" lon="1.36873">
        <ele>84.800003051758</ele>
        <time>2026-06-15T14:30:56.000Z</time>
      </trkpt>
      <trkpt lat="48.80256" lon="1.3689">
        <ele>84.800003051758</ele>
        <time>2026-06-15T14:30:59.000Z</time>
      </trkpt>
      <trkpt lat="48.80221" lon="1.36926">
        <ele>84.800003051758</ele>
        <time>2026-06-15T14:31:06.000Z</time>
      </trkpt>
      <trkpt lat="48.80211" lon="1.36937">
        <ele>85.199996948242</ele>
        <time>2026-06-15T14:31:08.000Z</time>
      </trkpt>
      <trkpt lat="48.80188" lon="1.36968">
        <ele>85.199996948242</ele>
        <time>2026-06-15T14:31:13.000Z</time>
      </trkpt>
      <trkpt lat="48.80164" lon="1.36998">
        <ele>85.599998474121</ele>
        <time>2026-06-15T14:31:19.000Z</time>
      </trkpt>
      <trkpt lat="48.80153" lon="1.37015">
        <ele>85.800003051758</ele>
        <time>2026-06-15T14:31:22.000Z</time>
      </trkpt>
      <trkpt lat="48.80142" lon="1.3703">
        <ele>86.199996948242</ele>
        <time>2026-06-15T14:31:25.000Z</time>
      </trkpt>
      <trkpt lat="48.80127" lon="1.37055">
        <ele>86.800003051758</ele>
        <time>2026-06-15T14:31:30.000Z</time>
      </trkpt>
      <trkpt lat="48.80123" lon="1.3706">
        <ele>87</ele>
        <time>2026-06-15T14:31:31.000Z</time>
      </trkpt>
      <trkpt lat="48.80111" lon="1.37076">
        <ele>87.800003051758</ele>
        <time>2026-06-15T14:31:34.000Z</time>
      </trkpt>
      <trkpt lat="48.80107" lon="1.37081">
        <ele>88</ele>
        <time>2026-06-15T14:31:35.000Z</time>
      </trkpt>
      <trkpt lat="48.801" lon="1.3709">
        <ele>88.400001525879</ele>
        <time>2026-06-15T14:31:37.000Z</time>
      </trkpt>
      <trkpt lat="48.80074" lon="1.37123">
        <ele>89.199996948242</ele>
        <time>2026-06-15T14:31:43.000Z</time>
      </trkpt>
      <trkpt lat="48.80034" lon="1.37165">
        <ele>89.599998474121</ele>
        <time>2026-06-15T14:31:51.000Z</time>
      </trkpt>
      <trkpt lat="48.79992" lon="1.37201">
        <ele>89.800003051758</ele>
        <time>2026-06-15T14:31:59.000Z</time>
      </trkpt>
      <trkpt lat="48.79945" lon="1.37247">
        <ele>90</ele>
        <time>2026-06-15T14:32:08.000Z</time>
      </trkpt>
      <trkpt lat="48.79933" lon="1.37259">
        <ele>90.199996948242</ele>
        <time>2026-06-15T14:32:10.000Z</time>
      </trkpt>
      <trkpt lat="48.79912" lon="1.37276">
        <ele>90.400001525879</ele>
        <time>2026-06-15T14:32:15.000Z</time>
      </trkpt>
      <trkpt lat="48.79879" lon="1.37312">
        <ele>90.800003051758</ele>
        <time>2026-06-15T14:32:22.000Z</time>
      </trkpt>
      <trkpt lat="48.7986" lon="1.37333">
        <ele>91.199996948242</ele>
        <time>2026-06-15T14:32:26.000Z</time>
      </trkpt>
      <trkpt lat="48.79846" lon="1.37347">
        <ele>91.400001525879</ele>
        <time>2026-06-15T14:32:29.000Z</time>
      </trkpt>
      <trkpt lat="48.79833" lon="1.37363">
        <ele>91.800003051758</ele>
        <time>2026-06-15T14:32:32.000Z</time>
      </trkpt>
      <trkpt lat="48.7982" lon="1.37379">
        <ele>92.199996948242</ele>
        <time>2026-06-15T14:32:35.000Z</time>
      </trkpt>
      <trkpt lat="48.79816" lon="1.37385">
        <ele>92.400001525879</ele>
        <time>2026-06-15T14:32:36.000Z</time>
      </trkpt>
      <trkpt lat="48.79806" lon="1.37393">
        <ele>92.599998474121</ele>
        <time>2026-06-15T14:32:38.000Z</time>
      </trkpt>
      <trkpt lat="48.79788" lon="1.37401">
        <ele>92.800003051758</ele>
        <time>2026-06-15T14:32:41.000Z</time>
      </trkpt>
      <trkpt lat="48.79752" lon="1.37413">
        <ele>92.800003051758</ele>
        <time>2026-06-15T14:32:46.000Z</time>
      </trkpt>
      <trkpt lat="48.79746" lon="1.37416">
        <ele>92.599998474121</ele>
        <time>2026-06-15T14:32:47.000Z</time>
      </trkpt>
      <trkpt lat="48.79727" lon="1.37428">
        <ele>92</ele>
        <time>2026-06-15T14:32:50.000Z</time>
      </trkpt>
      <trkpt lat="48.79721" lon="1.37431">
        <ele>91.800003051758</ele>
        <time>2026-06-15T14:32:51.000Z</time>
      </trkpt>
      <trkpt lat="48.79687" lon="1.37452">
        <ele>91.199996948242</ele>
        <time>2026-06-15T14:32:56.000Z</time>
      </trkpt>
      <trkpt lat="48.79653" lon="1.37477">
        <ele>90.800003051758</ele>
        <time>2026-06-15T14:33:02.000Z</time>
      </trkpt>
      <trkpt lat="48.7963" lon="1.37494">
        <ele>90.599998474121</ele>
        <time>2026-06-15T14:33:07.000Z</time>
      </trkpt>
      <trkpt lat="48.79602" lon="1.37511">
        <ele>90.800003051758</ele>
        <time>2026-06-15T14:33:12.000Z</time>
      </trkpt>
      <trkpt lat="48.79554" lon="1.37542">
        <ele>90.800003051758</ele>
        <time>2026-06-15T14:33:20.000Z</time>
      </trkpt>
      <trkpt lat="48.7953" lon="1.37554">
        <ele>90.599998474121</ele>
        <time>2026-06-15T14:33:24.000Z</time>
      </trkpt>
      <trkpt lat="48.79518" lon="1.3756">
        <ele>90.400001525879</ele>
        <time>2026-06-15T14:33:26.000Z</time>
      </trkpt>
      <trkpt lat="48.79474" lon="1.37572">
        <ele>90</ele>
        <time>2026-06-15T14:33:33.000Z</time>
      </trkpt>
      <trkpt lat="48.79434" lon="1.37587">
        <ele>89</ele>
        <time>2026-06-15T14:33:39.000Z</time>
      </trkpt>
      <trkpt lat="48.79423" lon="1.37591">
        <ele>89</ele>
        <time>2026-06-15T14:33:40.000Z</time>
      </trkpt>
      <trkpt lat="48.794" lon="1.37604">
        <ele>88.400001525879</ele>
        <time>2026-06-15T14:33:44.000Z</time>
      </trkpt>
      <trkpt lat="48.79367" lon="1.37622">
        <ele>87.800003051758</ele>
        <time>2026-06-15T14:33:49.000Z</time>
      </trkpt>
      <trkpt lat="48.79337" lon="1.3764">
        <ele>87.400001525879</ele>
        <time>2026-06-15T14:33:54.000Z</time>
      </trkpt>
      <trkpt lat="48.79302" lon="1.37661">
        <ele>87</ele>
        <time>2026-06-15T14:34:00.000Z</time>
      </trkpt>
      <trkpt lat="48.79297" lon="1.37666">
        <ele>87</ele>
        <time>2026-06-15T14:34:01.000Z</time>
      </trkpt>
      <trkpt lat="48.79291" lon="1.3767">
        <ele>86.800003051758</ele>
        <time>2026-06-15T14:34:02.000Z</time>
      </trkpt>
      <trkpt lat="48.79275" lon="1.37681">
        <ele>86.599998474121</ele>
        <time>2026-06-15T14:34:05.000Z</time>
      </trkpt>
      <trkpt lat="48.79265" lon="1.37688">
        <ele>86.599998474121</ele>
        <time>2026-06-15T14:34:07.000Z</time>
      </trkpt>
      <trkpt lat="48.79249" lon="1.37701">
        <ele>86.599998474121</ele>
        <time>2026-06-15T14:34:10.000Z</time>
      </trkpt>
      <trkpt lat="48.79234" lon="1.37714">
        <ele>86.800003051758</ele>
        <time>2026-06-15T14:34:14.000Z</time>
      </trkpt>
      <trkpt lat="48.79225" lon="1.37722">
        <ele>87</ele>
        <time>2026-06-15T14:34:18.000Z</time>
      </trkpt>
      <trkpt lat="48.79221" lon="1.37727">
        <ele>87.199996948242</ele>
        <time>2026-06-15T14:34:20.000Z</time>
      </trkpt>
      <trkpt lat="48.7922" lon="1.37736">
        <ele>87.400001525879</ele>
        <time>2026-06-15T14:34:22.000Z</time>
      </trkpt>
      <trkpt lat="48.79227" lon="1.3776">
        <ele>87.800003051758</ele>
        <time>2026-06-15T14:34:27.000Z</time>
      </trkpt>
      <trkpt lat="48.7923" lon="1.37769">
        <ele>88.199996948242</ele>
        <time>2026-06-15T14:34:29.000Z</time>
      </trkpt>
      <trkpt lat="48.79235" lon="1.37784">
        <ele>89</ele>
        <time>2026-06-15T14:34:32.000Z</time>
      </trkpt>
      <trkpt lat="48.79244" lon="1.37808">
        <ele>90</ele>
        <time>2026-06-15T14:34:37.000Z</time>
      </trkpt>
      <trkpt lat="48.79246" lon="1.37813">
        <ele>90.199996948242</ele>
        <time>2026-06-15T14:34:38.000Z</time>
      </trkpt>
      <trkpt lat="48.79252" lon="1.37833">
        <ele>91.199996948242</ele>
        <time>2026-06-15T14:34:42.000Z</time>
      </trkpt>
      <trkpt lat="48.79254" lon="1.37843">
        <ele>91.599998474121</ele>
        <time>2026-06-15T14:34:44.000Z</time>
      </trkpt>
      <trkpt lat="48.79257" lon="1.37858">
        <ele>92.400001525879</ele>
        <time>2026-06-15T14:34:47.000Z</time>
      </trkpt>
      <trkpt lat="48.79261" lon="1.3788">
        <ele>93.199996948242</ele>
        <time>2026-06-15T14:34:51.000Z</time>
      </trkpt>
      <trkpt lat="48.79263" lon="1.3789">
        <ele>93.400001525879</ele>
        <time>2026-06-15T14:34:53.000Z</time>
      </trkpt>
      <trkpt lat="48.79265" lon="1.3791">
        <ele>94.400001525879</ele>
        <time>2026-06-15T14:34:57.000Z</time>
      </trkpt>
      <trkpt lat="48.79267" lon="1.37919">
        <ele>95</ele>
        <time>2026-06-15T14:34:59.000Z</time>
      </trkpt>
      <trkpt lat="48.7927" lon="1.37938">
        <ele>95.599998474121</ele>
        <time>2026-06-15T14:35:03.000Z</time>
      </trkpt>
      <trkpt lat="48.79274" lon="1.37961">
        <ele>96.800003051758</ele>
        <time>2026-06-15T14:35:08.000Z</time>
      </trkpt>
      <trkpt lat="48.79278" lon="1.37993">
        <ele>97.800003051758</ele>
        <time>2026-06-15T14:35:15.000Z</time>
      </trkpt>
      <trkpt lat="48.79279" lon="1.38">
        <ele>98</ele>
        <time>2026-06-15T14:35:16.000Z</time>
      </trkpt>
      <trkpt lat="48.79282" lon="1.38021">
        <ele>99</ele>
        <time>2026-06-15T14:35:20.000Z</time>
      </trkpt>
      <trkpt lat="48.79285" lon="1.38053">
        <ele>100</ele>
        <time>2026-06-15T14:35:26.000Z</time>
      </trkpt>
      <trkpt lat="48.79285" lon="1.38058">
        <ele>100.19999694824</ele>
        <time>2026-06-15T14:35:27.000Z</time>
      </trkpt>
      <trkpt lat="48.79286" lon="1.38085">
        <ele>101.19999694824</ele>
        <time>2026-06-15T14:35:32.000Z</time>
      </trkpt>
      <trkpt lat="48.79286" lon="1.38091">
        <ele>101.19999694824</ele>
        <time>2026-06-15T14:35:33.000Z</time>
      </trkpt>
      <trkpt lat="48.79287" lon="1.38119">
        <ele>102.19999694824</ele>
        <time>2026-06-15T14:35:38.000Z</time>
      </trkpt>
      <trkpt lat="48.79286" lon="1.38142">
        <ele>102.80000305176</ele>
        <time>2026-06-15T14:35:42.000Z</time>
      </trkpt>
      <trkpt lat="48.79285" lon="1.38155">
        <ele>103.19999694824</ele>
        <time>2026-06-15T14:35:44.000Z</time>
      </trkpt>
      <trkpt lat="48.79283" lon="1.38192">
        <ele>104</ele>
        <time>2026-06-15T14:35:50.000Z</time>
      </trkpt>
      <trkpt lat="48.79281" lon="1.38219">
        <ele>104.19999694824</ele>
        <time>2026-06-15T14:35:54.000Z</time>
      </trkpt>
      <trkpt lat="48.79276" lon="1.38258">
        <ele>104.80000305176</ele>
        <time>2026-06-15T14:36:00.000Z</time>
      </trkpt>
      <trkpt lat="48.7927" lon="1.38284">
        <ele>105.19999694824</ele>
        <time>2026-06-15T14:36:04.000Z</time>
      </trkpt>
      <trkpt lat="48.79261" lon="1.38315">
        <ele>105.59999847412</ele>
        <time>2026-06-15T14:36:09.000Z</time>
      </trkpt>
      <trkpt lat="48.79247" lon="1.38364">
        <ele>105.80000305176</ele>
        <time>2026-06-15T14:36:17.000Z</time>
      </trkpt>
      <trkpt lat="48.79245" lon="1.38371">
        <ele>105.80000305176</ele>
        <time>2026-06-15T14:36:18.000Z</time>
      </trkpt>
      <trkpt lat="48.79239" lon="1.3839">
        <ele>106.19999694824</ele>
        <time>2026-06-15T14:36:21.000Z</time>
      </trkpt>
      <trkpt lat="48.79237" lon="1.38395">
        <ele>106.19999694824</ele>
        <time>2026-06-15T14:36:22.000Z</time>
      </trkpt>
      <trkpt lat="48.79226" lon="1.38424">
        <ele>106.59999847412</ele>
        <time>2026-06-15T14:36:27.000Z</time>
      </trkpt>
      <trkpt lat="48.79217" lon="1.38445">
        <ele>107</ele>
        <time>2026-06-15T14:36:31.000Z</time>
      </trkpt>
      <trkpt lat="48.79211" lon="1.38457">
        <ele>107.19999694824</ele>
        <time>2026-06-15T14:36:33.000Z</time>
      </trkpt>
      <trkpt lat="48.79196" lon="1.38485">
        <ele>107.80000305176</ele>
        <time>2026-06-15T14:36:38.000Z</time>
      </trkpt>
      <trkpt lat="48.79187" lon="1.38503">
        <ele>108.19999694824</ele>
        <time>2026-06-15T14:36:41.000Z</time>
      </trkpt>
      <trkpt lat="48.79181" lon="1.38515">
        <ele>108.40000152588</ele>
        <time>2026-06-15T14:36:43.000Z</time>
      </trkpt>
      <trkpt lat="48.79163" lon="1.38551">
        <ele>109.19999694824</ele>
        <time>2026-06-15T14:36:49.000Z</time>
      </trkpt>
      <trkpt lat="48.7916" lon="1.38557">
        <ele>109.40000152588</ele>
        <time>2026-06-15T14:36:50.000Z</time>
      </trkpt>
      <trkpt lat="48.79157" lon="1.38563">
        <ele>109.40000152588</ele>
        <time>2026-06-15T14:36:51.000Z</time>
      </trkpt>
      <trkpt lat="48.79151" lon="1.38574">
        <ele>109.59999847412</ele>
        <time>2026-06-15T14:36:53.000Z</time>
      </trkpt>
      <trkpt lat="48.79137" lon="1.38592">
        <ele>110.19999694824</ele>
        <time>2026-06-15T14:36:57.000Z</time>
      </trkpt>
      <trkpt lat="48.79133" lon="1.38595">
        <ele>110.40000152588</ele>
        <time>2026-06-15T14:36:58.000Z</time>
      </trkpt>
      <trkpt lat="48.79112" lon="1.3861">
        <ele>111</ele>
        <time>2026-06-15T14:37:03.000Z</time>
      </trkpt>
      <trkpt lat="48.79099" lon="1.38618">
        <ele>111.40000152588</ele>
        <time>2026-06-15T14:37:06.000Z</time>
      </trkpt>
      <trkpt lat="48.79082" lon="1.38627">
        <ele>112</ele>
        <time>2026-06-15T14:37:10.000Z</time>
      </trkpt>
      <trkpt lat="48.79072" lon="1.38631">
        <ele>112.59999847412</ele>
        <time>2026-06-15T14:37:13.000Z</time>
      </trkpt>
      <trkpt lat="48.79065" lon="1.38636">
        <ele>113.19999694824</ele>
        <time>2026-06-15T14:37:16.000Z</time>
      </trkpt>
      <trkpt lat="48.79064" lon="1.38636">
        <ele>113.80000305176</ele>
        <time>2026-06-15T14:37:18.000Z</time>
      </trkpt>
      <trkpt lat="48.79065" lon="1.38636">
        <ele>113.80000305176</ele>
        <time>2026-06-15T14:37:19.000Z</time>
      </trkpt>
      <trkpt lat="48.79065" lon="1.38636">
        <ele>114</ele>
        <time>2026-06-15T14:37:26.000Z</time>
      </trkpt>
      <trkpt lat="48.79065" lon="1.38636">
        <ele>114</ele>
        <time>2026-06-15T14:37:27.000Z</time>
      </trkpt>
      <trkpt lat="48.79066" lon="1.38636">
        <ele>113.59999847412</ele>
        <time>2026-06-15T14:37:37.000Z</time>
      </trkpt>
      <trkpt lat="48.79057" lon="1.38642">
        <ele>113.80000305176</ele>
        <time>2026-06-15T14:37:45.000Z</time>
      </trkpt>
      <trkpt lat="48.79043" lon="1.38652">
        <ele>114</ele>
        <time>2026-06-15T14:37:48.000Z</time>
      </trkpt>
      <trkpt lat="48.79038" lon="1.38656">
        <ele>114.40000152588</ele>
        <time>2026-06-15T14:37:49.000Z</time>
      </trkpt>
      <trkpt lat="48.79029" lon="1.38663">
        <ele>114.80000305176</ele>
        <time>2026-06-15T14:37:51.000Z</time>
      </trkpt>
      <trkpt lat="48.79015" lon="1.38679">
        <ele>115.19999694824</ele>
        <time>2026-06-15T14:37:54.000Z</time>
      </trkpt>
      <trkpt lat="48.79004" lon="1.38696">
        <ele>116</ele>
        <time>2026-06-15T14:37:58.000Z</time>
      </trkpt>
      <trkpt lat="48.78999" lon="1.38709">
        <ele>116.19999694824</ele>
        <time>2026-06-15T14:38:00.000Z</time>
      </trkpt>
      <trkpt lat="48.78994" lon="1.38724">
        <ele>116.40000152588</ele>
        <time>2026-06-15T14:38:02.000Z</time>
      </trkpt>
      <trkpt lat="48.78992" lon="1.38733">
        <ele>116.59999847412</ele>
        <time>2026-06-15T14:38:03.000Z</time>
      </trkpt>
      <trkpt lat="48.7899" lon="1.38742">
        <ele>116.59999847412</ele>
        <time>2026-06-15T14:38:04.000Z</time>
      </trkpt>
      <trkpt lat="48.78986" lon="1.38781">
        <ele>117</ele>
        <time>2026-06-15T14:38:08.000Z</time>
      </trkpt>
      <trkpt lat="48.78982" lon="1.38809">
        <ele>117.40000152588</ele>
        <time>2026-06-15T14:38:11.000Z</time>
      </trkpt>
      <trkpt lat="48.78983" lon="1.38828">
        <ele>117.59999847412</ele>
        <time>2026-06-15T14:38:13.000Z</time>
      </trkpt>
      <trkpt lat="48.78983" lon="1.38846">
        <ele>117.59999847412</ele>
        <time>2026-06-15T14:38:15.000Z</time>
      </trkpt>
      <trkpt lat="48.78981" lon="1.38874">
        <ele>117.80000305176</ele>
        <time>2026-06-15T14:38:18.000Z</time>
      </trkpt>
      <trkpt lat="48.78982" lon="1.38933">
        <ele>119</ele>
        <time>2026-06-15T14:38:25.000Z</time>
      </trkpt>
      <trkpt lat="48.78983" lon="1.38949">
        <ele>119.19999694824</ele>
        <time>2026-06-15T14:38:27.000Z</time>
      </trkpt>
      <trkpt lat="48.78983" lon="1.38965">
        <ele>119.59999847412</ele>
        <time>2026-06-15T14:38:29.000Z</time>
      </trkpt>
      <trkpt lat="48.78983" lon="1.38982">
        <ele>120</ele>
        <time>2026-06-15T14:38:31.000Z</time>
      </trkpt>
      <trkpt lat="48.78984" lon="1.39024">
        <ele>120.59999847412</ele>
        <time>2026-06-15T14:38:36.000Z</time>
      </trkpt>
      <trkpt lat="48.78985" lon="1.39032">
        <ele>120.80000305176</ele>
        <time>2026-06-15T14:38:37.000Z</time>
      </trkpt>
      <trkpt lat="48.78986" lon="1.3904">
        <ele>121</ele>
        <time>2026-06-15T14:38:38.000Z</time>
      </trkpt>
      <trkpt lat="48.78987" lon="1.39057">
        <ele>121.40000152588</ele>
        <time>2026-06-15T14:38:40.000Z</time>
      </trkpt>
      <trkpt lat="48.7899" lon="1.39078">
        <ele>121.80000305176</ele>
        <time>2026-06-15T14:38:42.000Z</time>
      </trkpt>
      <trkpt lat="48.78993" lon="1.39107">
        <ele>122</ele>
        <time>2026-06-15T14:38:46.000Z</time>
      </trkpt>
      <trkpt lat="48.78995" lon="1.3914">
        <ele>122.80000305176</ele>
        <time>2026-06-15T14:38:50.000Z</time>
      </trkpt>
      <trkpt lat="48.78995" lon="1.39157">
        <ele>123.19999694824</ele>
        <time>2026-06-15T14:38:52.000Z</time>
      </trkpt>
      <trkpt lat="48.78995" lon="1.39181">
        <ele>123.40000152588</ele>
        <time>2026-06-15T14:38:55.000Z</time>
      </trkpt>
      <trkpt lat="48.78996" lon="1.39197">
        <ele>123.80000305176</ele>
        <time>2026-06-15T14:38:57.000Z</time>
      </trkpt>
      <trkpt lat="48.78995" lon="1.39205">
        <ele>123.80000305176</ele>
        <time>2026-06-15T14:38:58.000Z</time>
      </trkpt>
      <trkpt lat="48.78995" lon="1.39213">
        <ele>124</ele>
        <time>2026-06-15T14:38:59.000Z</time>
      </trkpt>
      <trkpt lat="48.78996" lon="1.39221">
        <ele>124.19999694824</ele>
        <time>2026-06-15T14:39:00.000Z</time>
      </trkpt>
      <trkpt lat="48.78995" lon="1.39228">
        <ele>124.40000152588</ele>
        <time>2026-06-15T14:39:01.000Z</time>
      </trkpt>
      <trkpt lat="48.78995" lon="1.39236">
        <ele>124.59999847412</ele>
        <time>2026-06-15T14:39:02.000Z</time>
      </trkpt>
      <trkpt lat="48.78999" lon="1.39276">
        <ele>125</ele>
        <time>2026-06-15T14:39:07.000Z</time>
      </trkpt>
      <trkpt lat="48.78999" lon="1.39292">
        <ele>125.40000152588</ele>
        <time>2026-06-15T14:39:09.000Z</time>
      </trkpt>
      <trkpt lat="48.79001" lon="1.39324">
        <ele>126</ele>
        <time>2026-06-15T14:39:13.000Z</time>
      </trkpt>
      <trkpt lat="48.79004" lon="1.39348">
        <ele>126.40000152588</ele>
        <time>2026-06-15T14:39:16.000Z</time>
      </trkpt>
      <trkpt lat="48.79006" lon="1.39364">
        <ele>126.59999847412</ele>
        <time>2026-06-15T14:39:18.000Z</time>
      </trkpt>
      <trkpt lat="48.79007" lon="1.3938">
        <ele>126.80000305176</ele>
        <time>2026-06-15T14:39:20.000Z</time>
      </trkpt>
      <trkpt lat="48.79009" lon="1.39416">
        <ele>127.40000152588</ele>
        <time>2026-06-15T14:39:25.000Z</time>
      </trkpt>
      <trkpt lat="48.7901" lon="1.3943">
        <ele>127.59999847412</ele>
        <time>2026-06-15T14:39:27.000Z</time>
      </trkpt>
      <trkpt lat="48.79011" lon="1.39447">
        <ele>128</ele>
        <time>2026-06-15T14:39:29.000Z</time>
      </trkpt>
      <trkpt lat="48.79012" lon="1.39462">
        <ele>128.39999389648</ele>
        <time>2026-06-15T14:39:31.000Z</time>
      </trkpt>
      <trkpt lat="48.79013" lon="1.3947">
        <ele>128.60000610352</ele>
        <time>2026-06-15T14:39:32.000Z</time>
      </trkpt>
      <trkpt lat="48.79014" lon="1.39478">
        <ele>128.60000610352</ele>
        <time>2026-06-15T14:39:33.000Z</time>
      </trkpt>
      <trkpt lat="48.79018" lon="1.39511">
        <ele>129.19999694824</ele>
        <time>2026-06-15T14:39:37.000Z</time>
      </trkpt>
      <trkpt lat="48.79023" lon="1.39535">
        <ele>129.39999389648</ele>
        <time>2026-06-15T14:39:40.000Z</time>
      </trkpt>
      <trkpt lat="48.79026" lon="1.39558">
        <ele>129.80000305176</ele>
        <time>2026-06-15T14:39:43.000Z</time>
      </trkpt>
      <trkpt lat="48.79028" lon="1.39573">
        <ele>130</ele>
        <time>2026-06-15T14:39:45.000Z</time>
      </trkpt>
      <trkpt lat="48.7903" lon="1.39581">
        <ele>130.19999694824</ele>
        <time>2026-06-15T14:39:46.000Z</time>
      </trkpt>
      <trkpt lat="48.79031" lon="1.39588">
        <ele>130.39999389648</ele>
        <time>2026-06-15T14:39:47.000Z</time>
      </trkpt>
      <trkpt lat="48.79033" lon="1.39609">
        <ele>130.80000305176</ele>
        <time>2026-06-15T14:39:50.000Z</time>
      </trkpt>
      <trkpt lat="48.79036" lon="1.39624">
        <ele>131</ele>
        <time>2026-06-15T14:39:52.000Z</time>
      </trkpt>
      <trkpt lat="48.79039" lon="1.39637">
        <ele>131.19999694824</ele>
        <time>2026-06-15T14:39:54.000Z</time>
      </trkpt>
      <trkpt lat="48.79041" lon="1.3965">
        <ele>131.39999389648</ele>
        <time>2026-06-15T14:39:56.000Z</time>
      </trkpt>
      <trkpt lat="48.79049" lon="1.3968">
        <ele>132.19999694824</ele>
        <time>2026-06-15T14:40:01.000Z</time>
      </trkpt>
      <trkpt lat="48.79052" lon="1.39705">
        <ele>132.60000610352</ele>
        <time>2026-06-15T14:40:05.000Z</time>
      </trkpt>
      <trkpt lat="48.79054" lon="1.39717">
        <ele>132.80000305176</ele>
        <time>2026-06-15T14:40:07.000Z</time>
      </trkpt>
      <trkpt lat="48.79065" lon="1.39734">
        <ele>133.39999389648</ele>
        <time>2026-06-15T14:40:12.000Z</time>
      </trkpt>
      <trkpt lat="48.79071" lon="1.3974">
        <ele>133.60000610352</ele>
        <time>2026-06-15T14:40:14.000Z</time>
      </trkpt>
      <trkpt lat="48.79081" lon="1.39748">
        <ele>134.19999694824</ele>
        <time>2026-06-15T14:40:17.000Z</time>
      </trkpt>
      <trkpt lat="48.79085" lon="1.39748">
        <ele>134.19999694824</ele>
        <time>2026-06-15T14:40:18.000Z</time>
      </trkpt>
      <trkpt lat="48.7909" lon="1.3975">
        <ele>134.60000610352</ele>
        <time>2026-06-15T14:40:20.000Z</time>
      </trkpt>
      <trkpt lat="48.791" lon="1.39756">
        <ele>135.19999694824</ele>
        <time>2026-06-15T14:40:23.000Z</time>
      </trkpt>
      <trkpt lat="48.79111" lon="1.39759">
        <ele>135.80000305176</ele>
        <time>2026-06-15T14:40:26.000Z</time>
      </trkpt>
      <trkpt lat="48.79128" lon="1.39763">
        <ele>136.80000305176</ele>
        <time>2026-06-15T14:40:31.000Z</time>
      </trkpt>
      <trkpt lat="48.79135" lon="1.39766">
        <ele>137</ele>
        <time>2026-06-15T14:40:33.000Z</time>
      </trkpt>
      <trkpt lat="48.79153" lon="1.39774">
        <ele>138.19999694824</ele>
        <time>2026-06-15T14:40:39.000Z</time>
      </trkpt>
      <trkpt lat="48.79157" lon="1.39774">
        <ele>138.19999694824</ele>
        <time>2026-06-15T14:40:40.000Z</time>
      </trkpt>
      <trkpt lat="48.79172" lon="1.39782">
        <ele>139.19999694824</ele>
        <time>2026-06-15T14:40:45.000Z</time>
      </trkpt>
      <trkpt lat="48.79191" lon="1.3979">
        <ele>140.39999389648</ele>
        <time>2026-06-15T14:40:50.000Z</time>
      </trkpt>
      <trkpt lat="48.79201" lon="1.39798">
        <ele>141</ele>
        <time>2026-06-15T14:40:53.000Z</time>
      </trkpt>
      <trkpt lat="48.79213" lon="1.39807">
        <ele>141.39999389648</ele>
        <time>2026-06-15T14:40:56.000Z</time>
      </trkpt>
      <trkpt lat="48.79223" lon="1.39818">
        <ele>141.80000305176</ele>
        <time>2026-06-15T14:40:59.000Z</time>
      </trkpt>
      <trkpt lat="48.79236" lon="1.39843">
        <ele>142.19999694824</ele>
        <time>2026-06-15T14:41:03.000Z</time>
      </trkpt>
      <trkpt lat="48.79238" lon="1.39851">
        <ele>142.39999389648</ele>
        <time>2026-06-15T14:41:04.000Z</time>
      </trkpt>
      <trkpt lat="48.79252" lon="1.39897">
        <ele>143.19999694824</ele>
        <time>2026-06-15T14:41:11.000Z</time>
      </trkpt>
      <trkpt lat="48.79262" lon="1.39926">
        <ele>144</ele>
        <time>2026-06-15T14:41:16.000Z</time>
      </trkpt>
      <trkpt lat="48.79263" lon="1.39932">
        <ele>144</ele>
        <time>2026-06-15T14:41:17.000Z</time>
      </trkpt>
      <trkpt lat="48.7927" lon="1.39952">
        <ele>144.39999389648</ele>
        <time>2026-06-15T14:41:21.000Z</time>
      </trkpt>
      <trkpt lat="48.79275" lon="1.39962">
        <ele>144.39999389648</ele>
        <time>2026-06-15T14:41:23.000Z</time>
      </trkpt>
      <trkpt lat="48.79288" lon="1.40003">
        <ele>145.19999694824</ele>
        <time>2026-06-15T14:41:30.000Z</time>
      </trkpt>
      <trkpt lat="48.7929" lon="1.40009">
        <ele>145.39999389648</ele>
        <time>2026-06-15T14:41:31.000Z</time>
      </trkpt>
      <trkpt lat="48.79294" lon="1.40021">
        <ele>145.39999389648</ele>
        <time>2026-06-15T14:41:33.000Z</time>
      </trkpt>
      <trkpt lat="48.79299" lon="1.40033">
        <ele>145.80000305176</ele>
        <time>2026-06-15T14:41:35.000Z</time>
      </trkpt>
      <trkpt lat="48.79302" lon="1.40039">
        <ele>145.80000305176</ele>
        <time>2026-06-15T14:41:36.000Z</time>
      </trkpt>
      <trkpt lat="48.79303" lon="1.40045">
        <ele>146</ele>
        <time>2026-06-15T14:41:37.000Z</time>
      </trkpt>
      <trkpt lat="48.79306" lon="1.40058">
        <ele>146</ele>
        <time>2026-06-15T14:41:39.000Z</time>
      </trkpt>
      <trkpt lat="48.79306" lon="1.40071">
        <ele>146</ele>
        <time>2026-06-15T14:41:41.000Z</time>
      </trkpt>
      <trkpt lat="48.79306" lon="1.40086">
        <ele>146.39999389648</ele>
        <time>2026-06-15T14:41:43.000Z</time>
      </trkpt>
      <trkpt lat="48.79306" lon="1.40094">
        <ele>146.60000610352</ele>
        <time>2026-06-15T14:41:45.000Z</time>
      </trkpt>
      <trkpt lat="48.79306" lon="1.40115">
        <ele>146.80000305176</ele>
        <time>2026-06-15T14:41:48.000Z</time>
      </trkpt>
      <trkpt lat="48.79303" lon="1.40137">
        <ele>147</ele>
        <time>2026-06-15T14:41:51.000Z</time>
      </trkpt>
      <trkpt lat="48.793" lon="1.40152">
        <ele>147</ele>
        <time>2026-06-15T14:41:53.000Z</time>
      </trkpt>
      <trkpt lat="48.79293" lon="1.40186">
        <ele>147.19999694824</ele>
        <time>2026-06-15T14:41:58.000Z</time>
      </trkpt>
      <trkpt lat="48.79292" lon="1.40192">
        <ele>147.39999389648</ele>
        <time>2026-06-15T14:41:59.000Z</time>
      </trkpt>
      <trkpt lat="48.79292" lon="1.40198">
        <ele>147.39999389648</ele>
        <time>2026-06-15T14:42:00.000Z</time>
      </trkpt>
      <trkpt lat="48.7929" lon="1.40205">
        <ele>147.39999389648</ele>
        <time>2026-06-15T14:42:01.000Z</time>
      </trkpt>
      <trkpt lat="48.79284" lon="1.40234">
        <ele>147.60000610352</ele>
        <time>2026-06-15T14:42:05.000Z</time>
      </trkpt>
      <trkpt lat="48.79284" lon="1.40242">
        <ele>147.60000610352</ele>
        <time>2026-06-15T14:42:06.000Z</time>
      </trkpt>
      <trkpt lat="48.79281" lon="1.40258">
        <ele>147.60000610352</ele>
        <time>2026-06-15T14:42:08.000Z</time>
      </trkpt>
      <trkpt lat="48.79279" lon="1.40266">
        <ele>147.60000610352</ele>
        <time>2026-06-15T14:42:09.000Z</time>
      </trkpt>
      <trkpt lat="48.79276" lon="1.40274">
        <ele>147.60000610352</ele>
        <time>2026-06-15T14:42:10.000Z</time>
      </trkpt>
      <trkpt lat="48.79273" lon="1.40291">
        <ele>147.60000610352</ele>
        <time>2026-06-15T14:42:12.000Z</time>
      </trkpt>
      <trkpt lat="48.79257" lon="1.40346">
        <ele>148</ele>
        <time>2026-06-15T14:42:18.000Z</time>
      </trkpt>
      <trkpt lat="48.79245" lon="1.4039">
        <ele>147.80000305176</ele>
        <time>2026-06-15T14:42:23.000Z</time>
      </trkpt>
      <trkpt lat="48.79235" lon="1.40424">
        <ele>148</ele>
        <time>2026-06-15T14:42:27.000Z</time>
      </trkpt>
      <trkpt lat="48.79229" lon="1.40438">
        <ele>148</ele>
        <time>2026-06-15T14:42:29.000Z</time>
      </trkpt>
      <trkpt lat="48.79225" lon="1.40459">
        <ele>148</ele>
        <time>2026-06-15T14:42:32.000Z</time>
      </trkpt>
      <trkpt lat="48.79216" lon="1.40488">
        <ele>148</ele>
        <time>2026-06-15T14:42:35.000Z</time>
      </trkpt>
      <trkpt lat="48.79214" lon="1.40499">
        <ele>148</ele>
        <time>2026-06-15T14:42:36.000Z</time>
      </trkpt>
      <trkpt lat="48.79211" lon="1.40509">
        <ele>148.19999694824</ele>
        <time>2026-06-15T14:42:37.000Z</time>
      </trkpt>
      <trkpt lat="48.79207" lon="1.4053">
        <ele>148.19999694824</ele>
        <time>2026-06-15T14:42:39.000Z</time>
      </trkpt>
      <trkpt lat="48.79203" lon="1.40547">
        <ele>148.19999694824</ele>
        <time>2026-06-15T14:42:41.000Z</time>
      </trkpt>
      <trkpt lat="48.79189" lon="1.40602">
        <ele>148.19999694824</ele>
        <time>2026-06-15T14:42:47.000Z</time>
      </trkpt>
      <trkpt lat="48.79167" lon="1.40683">
        <ele>147.60000610352</ele>
        <time>2026-06-15T14:42:56.000Z</time>
      </trkpt>
      <trkpt lat="48.79149" lon="1.4075">
        <ele>147.60000610352</ele>
        <time>2026-06-15T14:43:04.000Z</time>
      </trkpt>
      <trkpt lat="48.79133" lon="1.40816">
        <ele>147.39999389648</ele>
        <time>2026-06-15T14:43:12.000Z</time>
      </trkpt>
      <trkpt lat="48.79121" lon="1.40863">
        <ele>147.39999389648</ele>
        <time>2026-06-15T14:43:17.000Z</time>
      </trkpt>
      <trkpt lat="48.79117" lon="1.40881">
        <ele>147.39999389648</ele>
        <time>2026-06-15T14:43:19.000Z</time>
      </trkpt>
      <trkpt lat="48.79101" lon="1.40939">
        <ele>147.60000610352</ele>
        <time>2026-06-15T14:43:26.000Z</time>
      </trkpt>
      <trkpt lat="48.79082" lon="1.41016">
        <ele>147</ele>
        <time>2026-06-15T14:43:35.000Z</time>
      </trkpt>
      <trkpt lat="48.7908" lon="1.41024">
        <ele>147</ele>
        <time>2026-06-15T14:43:36.000Z</time>
      </trkpt>
      <trkpt lat="48.79059" lon="1.41107">
        <ele>147</ele>
        <time>2026-06-15T14:43:46.000Z</time>
      </trkpt>
      <trkpt lat="48.79043" lon="1.41173">
        <ele>146.60000610352</ele>
        <time>2026-06-15T14:43:54.000Z</time>
      </trkpt>
      <trkpt lat="48.79034" lon="1.41205">
        <ele>146.60000610352</ele>
        <time>2026-06-15T14:43:58.000Z</time>
      </trkpt>
      <trkpt lat="48.7903" lon="1.41227">
        <ele>146.60000610352</ele>
        <time>2026-06-15T14:44:01.000Z</time>
      </trkpt>
      <trkpt lat="48.7902" lon="1.4127">
        <ele>146.80000305176</ele>
        <time>2026-06-15T14:44:07.000Z</time>
      </trkpt>
      <trkpt lat="48.79017" lon="1.41287">
        <ele>147</ele>
        <time>2026-06-15T14:44:09.000Z</time>
      </trkpt>
      <trkpt lat="48.79014" lon="1.41303">
        <ele>147</ele>
        <time>2026-06-15T14:44:11.000Z</time>
      </trkpt>
      <trkpt lat="48.79013" lon="1.41312">
        <ele>147.19999694824</ele>
        <time>2026-06-15T14:44:12.000Z</time>
      </trkpt>
      <trkpt lat="48.79004" lon="1.41337">
        <ele>147.19999694824</ele>
        <time>2026-06-15T14:44:15.000Z</time>
      </trkpt>
      <trkpt lat="48.78996" lon="1.4136">
        <ele>147.39999389648</ele>
        <time>2026-06-15T14:44:18.000Z</time>
      </trkpt>
      <trkpt lat="48.78993" lon="1.41368">
        <ele>147.39999389648</ele>
        <time>2026-06-15T14:44:19.000Z</time>
      </trkpt>
      <trkpt lat="48.78989" lon="1.41385">
        <ele>147.60000610352</ele>
        <time>2026-06-15T14:44:21.000Z</time>
      </trkpt>
      <trkpt lat="48.78985" lon="1.4141">
        <ele>147.60000610352</ele>
        <time>2026-06-15T14:44:24.000Z</time>
      </trkpt>
      <trkpt lat="48.78983" lon="1.41418">
        <ele>147.80000305176</ele>
        <time>2026-06-15T14:44:25.000Z</time>
      </trkpt>
      <trkpt lat="48.78978" lon="1.41433">
        <ele>147.80000305176</ele>
        <time>2026-06-15T14:44:27.000Z</time>
      </trkpt>
      <trkpt lat="48.78973" lon="1.4145">
        <ele>147.80000305176</ele>
        <time>2026-06-15T14:44:29.000Z</time>
      </trkpt>
      <trkpt lat="48.78971" lon="1.41458">
        <ele>148</ele>
        <time>2026-06-15T14:44:30.000Z</time>
      </trkpt>
      <trkpt lat="48.78968" lon="1.41467">
        <ele>148</ele>
        <time>2026-06-15T14:44:31.000Z</time>
      </trkpt>
      <trkpt lat="48.78962" lon="1.41493">
        <ele>148.19999694824</ele>
        <time>2026-06-15T14:44:34.000Z</time>
      </trkpt>
      <trkpt lat="48.78957" lon="1.41517">
        <ele>148.19999694824</ele>
        <time>2026-06-15T14:44:36.000Z</time>
      </trkpt>
      <trkpt lat="48.78943" lon="1.41554">
        <ele>148.19999694824</ele>
        <time>2026-06-15T14:44:41.000Z</time>
      </trkpt>
      <trkpt lat="48.78935" lon="1.41594">
        <ele>148</ele>
        <time>2026-06-15T14:44:46.000Z</time>
      </trkpt>
      <trkpt lat="48.78933" lon="1.41603">
        <ele>148</ele>
        <time>2026-06-15T14:44:47.000Z</time>
      </trkpt>
      <trkpt lat="48.78927" lon="1.41622">
        <ele>148</ele>
        <time>2026-06-15T14:44:49.000Z</time>
      </trkpt>
      <trkpt lat="48.78921" lon="1.41641">
        <ele>147.80000305176</ele>
        <time>2026-06-15T14:44:51.000Z</time>
      </trkpt>
      <trkpt lat="48.78919" lon="1.41657">
        <ele>147.80000305176</ele>
        <time>2026-06-15T14:44:53.000Z</time>
      </trkpt>
      <trkpt lat="48.78911" lon="1.4168">
        <ele>147.80000305176</ele>
        <time>2026-06-15T14:44:56.000Z</time>
      </trkpt>
      <trkpt lat="48.78901" lon="1.41726">
        <ele>147.80000305176</ele>
        <time>2026-06-15T14:45:02.000Z</time>
      </trkpt>
      <trkpt lat="48.78889" lon="1.41758">
        <ele>147.80000305176</ele>
        <time>2026-06-15T14:45:06.000Z</time>
      </trkpt>
      <trkpt lat="48.78874" lon="1.41807">
        <ele>148</ele>
        <time>2026-06-15T14:45:11.000Z</time>
      </trkpt>
      <trkpt lat="48.7887" lon="1.41831">
        <ele>148</ele>
        <time>2026-06-15T14:45:14.000Z</time>
      </trkpt>
      <trkpt lat="48.78867" lon="1.41844">
        <ele>148</ele>
        <time>2026-06-15T14:45:15.000Z</time>
      </trkpt>
      <trkpt lat="48.78852" lon="1.41894">
        <ele>147.80000305176</ele>
        <time>2026-06-15T14:45:21.000Z</time>
      </trkpt>
      <trkpt lat="48.78851" lon="1.41901">
        <ele>147.80000305176</ele>
        <time>2026-06-15T14:45:22.000Z</time>
      </trkpt>
      <trkpt lat="48.78845" lon="1.41923">
        <ele>147.60000610352</ele>
        <time>2026-06-15T14:45:25.000Z</time>
      </trkpt>
      <trkpt lat="48.78843" lon="1.4193">
        <ele>147.60000610352</ele>
        <time>2026-06-15T14:45:26.000Z</time>
      </trkpt>
      <trkpt lat="48.78833" lon="1.41976">
        <ele>147.39999389648</ele>
        <time>2026-06-15T14:45:31.000Z</time>
      </trkpt>
      <trkpt lat="48.78831" lon="1.41983">
        <ele>147.39999389648</ele>
        <time>2026-06-15T14:45:32.000Z</time>
      </trkpt>
      <trkpt lat="48.7882" lon="1.4204">
        <ele>147.19999694824</ele>
        <time>2026-06-15T14:45:39.000Z</time>
      </trkpt>
      <trkpt lat="48.78819" lon="1.42047">
        <ele>147.19999694824</ele>
        <time>2026-06-15T14:45:40.000Z</time>
      </trkpt>
      <trkpt lat="48.78811" lon="1.42077">
        <ele>147.19999694824</ele>
        <time>2026-06-15T14:45:43.000Z</time>
      </trkpt>
      <trkpt lat="48.788" lon="1.42121">
        <ele>147.19999694824</ele>
        <time>2026-06-15T14:45:48.000Z</time>
      </trkpt>
      <trkpt lat="48.78783" lon="1.42193">
        <ele>147</ele>
        <time>2026-06-15T14:45:57.000Z</time>
      </trkpt>
      <trkpt lat="48.78761" lon="1.42263">
        <ele>147</ele>
        <time>2026-06-15T14:46:06.000Z</time>
      </trkpt>
      <trkpt lat="48.78758" lon="1.42278">
        <ele>147</ele>
        <time>2026-06-15T14:46:08.000Z</time>
      </trkpt>
      <trkpt lat="48.78754" lon="1.42305">
        <ele>147</ele>
        <time>2026-06-15T14:46:11.000Z</time>
      </trkpt>
      <trkpt lat="48.78754" lon="1.42323">
        <ele>147</ele>
        <time>2026-06-15T14:46:13.000Z</time>
      </trkpt>
      <trkpt lat="48.78757" lon="1.4234">
        <ele>147</ele>
        <time>2026-06-15T14:46:15.000Z</time>
      </trkpt>
      <trkpt lat="48.78761" lon="1.42355">
        <ele>147</ele>
        <time>2026-06-15T14:46:17.000Z</time>
      </trkpt>
      <trkpt lat="48.78766" lon="1.42368">
        <ele>147</ele>
        <time>2026-06-15T14:46:19.000Z</time>
      </trkpt>
      <trkpt lat="48.78769" lon="1.42381">
        <ele>147</ele>
        <time>2026-06-15T14:46:21.000Z</time>
      </trkpt>
      <trkpt lat="48.78771" lon="1.42389">
        <ele>147</ele>
        <time>2026-06-15T14:46:22.000Z</time>
      </trkpt>
      <trkpt lat="48.78773" lon="1.42397">
        <ele>147</ele>
        <time>2026-06-15T14:46:23.000Z</time>
      </trkpt>
      <trkpt lat="48.78784" lon="1.42441">
        <ele>147.39999389648</ele>
        <time>2026-06-15T14:46:28.000Z</time>
      </trkpt>
      <trkpt lat="48.78785" lon="1.42451">
        <ele>147.39999389648</ele>
        <time>2026-06-15T14:46:29.000Z</time>
      </trkpt>
      <trkpt lat="48.78792" lon="1.42487">
        <ele>147.60000610352</ele>
        <time>2026-06-15T14:46:33.000Z</time>
      </trkpt>
      <trkpt lat="48.78795" lon="1.42506">
        <ele>147.60000610352</ele>
        <time>2026-06-15T14:46:35.000Z</time>
      </trkpt>
      <trkpt lat="48.78803" lon="1.42547">
        <ele>147.39999389648</ele>
        <time>2026-06-15T14:46:40.000Z</time>
      </trkpt>
      <trkpt lat="48.78801" lon="1.42556">
        <ele>147.39999389648</ele>
        <time>2026-06-15T14:46:42.000Z</time>
      </trkpt>
      <trkpt lat="48.78798" lon="1.42558">
        <ele>147.39999389648</ele>
        <time>2026-06-15T14:46:43.000Z</time>
      </trkpt>
      <trkpt lat="48.78786" lon="1.42562">
        <ele>147.39999389648</ele>
        <time>2026-06-15T14:46:45.000Z</time>
      </trkpt>
      <trkpt lat="48.78776" lon="1.42569">
        <ele>147.39999389648</ele>
        <time>2026-06-15T14:46:47.000Z</time>
      </trkpt>
      <trkpt lat="48.78745" lon="1.42587">
        <ele>147.39999389648</ele>
        <time>2026-06-15T14:46:53.000Z</time>
      </trkpt>
      <trkpt lat="48.78708" lon="1.4261">
        <ele>147.60000610352</ele>
        <time>2026-06-15T14:47:00.000Z</time>
      </trkpt>
      <trkpt lat="48.78657" lon="1.42648">
        <ele>147.80000305176</ele>
        <time>2026-06-15T14:47:10.000Z</time>
      </trkpt>
      <trkpt lat="48.78651" lon="1.42652">
        <ele>147.80000305176</ele>
        <time>2026-06-15T14:47:11.000Z</time>
      </trkpt>
      <trkpt lat="48.7861" lon="1.42684">
        <ele>148</ele>
        <time>2026-06-15T14:47:19.000Z</time>
      </trkpt>
      <trkpt lat="48.78599" lon="1.42692">
        <ele>148</ele>
        <time>2026-06-15T14:47:21.000Z</time>
      </trkpt>
      <trkpt lat="48.78568" lon="1.42707">
        <ele>148.19999694824</ele>
        <time>2026-06-15T14:47:27.000Z</time>
      </trkpt>
      <trkpt lat="48.78532" lon="1.42726">
        <ele>148.60000610352</ele>
        <time>2026-06-15T14:47:34.000Z</time>
      </trkpt>
      <trkpt lat="48.78527" lon="1.42729">
        <ele>148.80000305176</ele>
        <time>2026-06-15T14:47:35.000Z</time>
      </trkpt>
      <trkpt lat="48.78517" lon="1.42738">
        <ele>148.80000305176</ele>
        <time>2026-06-15T14:47:37.000Z</time>
      </trkpt>
      <trkpt lat="48.78507" lon="1.4275">
        <ele>149</ele>
        <time>2026-06-15T14:47:39.000Z</time>
      </trkpt>
      <trkpt lat="48.78491" lon="1.42769">
        <ele>149</ele>
        <time>2026-06-15T14:47:42.000Z</time>
      </trkpt>
      <trkpt lat="48.78479" lon="1.42783">
        <ele>148.80000305176</ele>
        <time>2026-06-15T14:47:44.000Z</time>
      </trkpt>
      <trkpt lat="48.78452" lon="1.42817">
        <ele>148.60000610352</ele>
        <time>2026-06-15T14:47:49.000Z</time>
      </trkpt>
      <trkpt lat="48.78426" lon="1.42861">
        <ele>148</ele>
        <time>2026-06-15T14:47:55.000Z</time>
      </trkpt>
      <trkpt lat="48.78418" lon="1.42875">
        <ele>147.80000305176</ele>
        <time>2026-06-15T14:47:57.000Z</time>
      </trkpt>
      <trkpt lat="48.78405" lon="1.42894">
        <ele>147.80000305176</ele>
        <time>2026-06-15T14:48:00.000Z</time>
      </trkpt>
      <trkpt lat="48.78397" lon="1.42905">
        <ele>147.60000610352</ele>
        <time>2026-06-15T14:48:02.000Z</time>
      </trkpt>
      <trkpt lat="48.78373" lon="1.42938">
        <ele>147.39999389648</ele>
        <time>2026-06-15T14:48:08.000Z</time>
      </trkpt>
      <trkpt lat="48.7835" lon="1.42969">
        <ele>147.39999389648</ele>
        <time>2026-06-15T14:48:12.000Z</time>
      </trkpt>
      <trkpt lat="48.78345" lon="1.42976">
        <ele>147.39999389648</ele>
        <time>2026-06-15T14:48:13.000Z</time>
      </trkpt>
      <trkpt lat="48.78337" lon="1.42984">
        <ele>147.39999389648</ele>
        <time>2026-06-15T14:48:15.000Z</time>
      </trkpt>
      <trkpt lat="48.78326" lon="1.42993">
        <ele>147.39999389648</ele>
        <time>2026-06-15T14:48:17.000Z</time>
      </trkpt>
      <trkpt lat="48.7832" lon="1.42995">
        <ele>147.19999694824</ele>
        <time>2026-06-15T14:48:18.000Z</time>
      </trkpt>
      <trkpt lat="48.78263" lon="1.43015">
        <ele>147</ele>
        <time>2026-06-15T14:48:27.000Z</time>
      </trkpt>
      <trkpt lat="48.78249" lon="1.43018">
        <ele>146.80000305176</ele>
        <time>2026-06-15T14:48:29.000Z</time>
      </trkpt>
      <trkpt lat="48.78191" lon="1.4303">
        <ele>146</ele>
        <time>2026-06-15T14:48:38.000Z</time>
      </trkpt>
      <trkpt lat="48.78184" lon="1.43032">
        <ele>146</ele>
        <time>2026-06-15T14:48:39.000Z</time>
      </trkpt>
      <trkpt lat="48.78165" lon="1.43039">
        <ele>146</ele>
        <time>2026-06-15T14:48:42.000Z</time>
      </trkpt>
      <trkpt lat="48.78122" lon="1.43054">
        <ele>145.80000305176</ele>
        <time>2026-06-15T14:48:49.000Z</time>
      </trkpt>
      <trkpt lat="48.78116" lon="1.43056">
        <ele>145.60000610352</ele>
        <time>2026-06-15T14:48:50.000Z</time>
      </trkpt>
      <trkpt lat="48.78074" lon="1.43071">
        <ele>144.60000610352</ele>
        <time>2026-06-15T14:48:56.000Z</time>
      </trkpt>
      <trkpt lat="48.78041" lon="1.43086">
        <ele>143.19999694824</ele>
        <time>2026-06-15T14:49:00.000Z</time>
      </trkpt>
      <trkpt lat="48.78032" lon="1.43091">
        <ele>142.80000305176</ele>
        <time>2026-06-15T14:49:01.000Z</time>
      </trkpt>
      <trkpt lat="48.78024" lon="1.43096">
        <ele>142.39999389648</ele>
        <time>2026-06-15T14:49:02.000Z</time>
      </trkpt>
      <trkpt lat="48.78006" lon="1.43109">
        <ele>142</ele>
        <time>2026-06-15T14:49:04.000Z</time>
      </trkpt>
      <trkpt lat="48.77997" lon="1.43116">
        <ele>141.39999389648</ele>
        <time>2026-06-15T14:49:05.000Z</time>
      </trkpt>
      <trkpt lat="48.77979" lon="1.43131">
        <ele>140.80000305176</ele>
        <time>2026-06-15T14:49:07.000Z</time>
      </trkpt>
      <trkpt lat="48.77959" lon="1.43146">
        <ele>139.80000305176</ele>
        <time>2026-06-15T14:49:09.000Z</time>
      </trkpt>
      <trkpt lat="48.77941" lon="1.43157">
        <ele>138.60000610352</ele>
        <time>2026-06-15T14:49:11.000Z</time>
      </trkpt>
      <trkpt lat="48.77915" lon="1.43172">
        <ele>137</ele>
        <time>2026-06-15T14:49:14.000Z</time>
      </trkpt>
      <trkpt lat="48.77891" lon="1.43185">
        <ele>135.80000305176</ele>
        <time>2026-06-15T14:49:17.000Z</time>
      </trkpt>
      <trkpt lat="48.77855" lon="1.43201">
        <ele>134.60000610352</ele>
        <time>2026-06-15T14:49:22.000Z</time>
      </trkpt>
      <trkpt lat="48.77848" lon="1.43202">
        <ele>134.60000610352</ele>
        <time>2026-06-15T14:49:23.000Z</time>
      </trkpt>
      <trkpt lat="48.77842" lon="1.43203">
        <ele>134.60000610352</ele>
        <time>2026-06-15T14:49:24.000Z</time>
      </trkpt>
      <trkpt lat="48.77822" lon="1.43197">
        <ele>134.39999389648</ele>
        <time>2026-06-15T14:49:27.000Z</time>
      </trkpt>
      <trkpt lat="48.77782" lon="1.4318">
        <ele>134.80000305176</ele>
        <time>2026-06-15T14:49:34.000Z</time>
      </trkpt>
      <trkpt lat="48.77755" lon="1.43176">
        <ele>135.60000610352</ele>
        <time>2026-06-15T14:49:39.000Z</time>
      </trkpt>
      <trkpt lat="48.7775" lon="1.43177">
        <ele>135.80000305176</ele>
        <time>2026-06-15T14:49:40.000Z</time>
      </trkpt>
      <trkpt lat="48.77745" lon="1.43179">
        <ele>136</ele>
        <time>2026-06-15T14:49:41.000Z</time>
      </trkpt>
      <trkpt lat="48.77733" lon="1.43186">
        <ele>136.39999389648</ele>
        <time>2026-06-15T14:49:44.000Z</time>
      </trkpt>
      <trkpt lat="48.77724" lon="1.43196">
        <ele>137.19999694824</ele>
        <time>2026-06-15T14:49:46.000Z</time>
      </trkpt>
      <trkpt lat="48.77713" lon="1.43212">
        <ele>138</ele>
        <time>2026-06-15T14:49:49.000Z</time>
      </trkpt>
      <trkpt lat="48.7771" lon="1.43218">
        <ele>138.19999694824</ele>
        <time>2026-06-15T14:49:50.000Z</time>
      </trkpt>
      <trkpt lat="48.77704" lon="1.4323">
        <ele>138.80000305176</ele>
        <time>2026-06-15T14:49:52.000Z</time>
      </trkpt>
      <trkpt lat="48.77693" lon="1.43245">
        <ele>139.19999694824</ele>
        <time>2026-06-15T14:49:55.000Z</time>
      </trkpt>
      <trkpt lat="48.77689" lon="1.43249">
        <ele>139.39999389648</ele>
        <time>2026-06-15T14:49:56.000Z</time>
      </trkpt>
      <trkpt lat="48.77685" lon="1.43252">
        <ele>139.39999389648</ele>
        <time>2026-06-15T14:49:57.000Z</time>
      </trkpt>
      <trkpt lat="48.77681" lon="1.43255">
        <ele>139.60000610352</ele>
        <time>2026-06-15T14:49:58.000Z</time>
      </trkpt>
      <trkpt lat="48.77668" lon="1.43259">
        <ele>140</ele>
        <time>2026-06-15T14:50:01.000Z</time>
      </trkpt>
      <trkpt lat="48.77655" lon="1.43263">
        <ele>140.60000610352</ele>
        <time>2026-06-15T14:50:04.000Z</time>
      </trkpt>
      <trkpt lat="48.7765" lon="1.43264">
        <ele>140.80000305176</ele>
        <time>2026-06-15T14:50:05.000Z</time>
      </trkpt>
      <trkpt lat="48.77641" lon="1.43264">
        <ele>141.19999694824</ele>
        <time>2026-06-15T14:50:07.000Z</time>
      </trkpt>
      <trkpt lat="48.77632" lon="1.43261">
        <ele>141.60000610352</ele>
        <time>2026-06-15T14:50:09.000Z</time>
      </trkpt>
      <trkpt lat="48.77628" lon="1.4326">
        <ele>141.60000610352</ele>
        <time>2026-06-15T14:50:10.000Z</time>
      </trkpt>
      <trkpt lat="48.77624" lon="1.43261">
        <ele>141.80000305176</ele>
        <time>2026-06-15T14:50:11.000Z</time>
      </trkpt>
      <trkpt lat="48.77619" lon="1.43263">
        <ele>142</ele>
        <time>2026-06-15T14:50:12.000Z</time>
      </trkpt>
      <trkpt lat="48.77607" lon="1.43273">
        <ele>142.60000610352</ele>
        <time>2026-06-15T14:50:15.000Z</time>
      </trkpt>
      <trkpt lat="48.77603" lon="1.43276">
        <ele>142.80000305176</ele>
        <time>2026-06-15T14:50:16.000Z</time>
      </trkpt>
      <trkpt lat="48.77593" lon="1.43281">
        <ele>143.19999694824</ele>
        <time>2026-06-15T14:50:18.000Z</time>
      </trkpt>
      <trkpt lat="48.77584" lon="1.43279">
        <ele>143.39999389648</ele>
        <time>2026-06-15T14:50:20.000Z</time>
      </trkpt>
      <trkpt lat="48.7757" lon="1.43272">
        <ele>143.80000305176</ele>
        <time>2026-06-15T14:50:23.000Z</time>
      </trkpt>
      <trkpt lat="48.77543" lon="1.43262">
        <ele>145</ele>
        <time>2026-06-15T14:50:29.000Z</time>
      </trkpt>
      <trkpt lat="48.77538" lon="1.4326">
        <ele>145.19999694824</ele>
        <time>2026-06-15T14:50:30.000Z</time>
      </trkpt>
      <trkpt lat="48.77524" lon="1.43252">
        <ele>145.60000610352</ele>
        <time>2026-06-15T14:50:33.000Z</time>
      </trkpt>
      <trkpt lat="48.77517" lon="1.43241">
        <ele>146</ele>
        <time>2026-06-15T14:50:35.000Z</time>
      </trkpt>
      <trkpt lat="48.77514" lon="1.43235">
        <ele>146</ele>
        <time>2026-06-15T14:50:36.000Z</time>
      </trkpt>
      <trkpt lat="48.77511" lon="1.43222">
        <ele>146.39999389648</ele>
        <time>2026-06-15T14:50:38.000Z</time>
      </trkpt>
      <trkpt lat="48.77511" lon="1.43215">
        <ele>146.39999389648</ele>
        <time>2026-06-15T14:50:39.000Z</time>
      </trkpt>
      <trkpt lat="48.77513" lon="1.43202">
        <ele>146.39999389648</ele>
        <time>2026-06-15T14:50:41.000Z</time>
      </trkpt>
      <trkpt lat="48.77516" lon="1.43193">
        <ele>146.60000610352</ele>
        <time>2026-06-15T14:50:43.000Z</time>
      </trkpt>
      <trkpt lat="48.77518" lon="1.43188">
        <ele>146.80000305176</ele>
        <time>2026-06-15T14:50:45.000Z</time>
      </trkpt>
      <trkpt lat="48.77517" lon="1.43187">
        <ele>146.80000305176</ele>
        <time>2026-06-15T14:50:46.000Z</time>
      </trkpt>
      <trkpt lat="48.77514" lon="1.43194">
        <ele>146.80000305176</ele>
        <time>2026-06-15T14:50:49.000Z</time>
      </trkpt>
      <trkpt lat="48.77507" lon="1.43209">
        <ele>147</ele>
        <time>2026-06-15T14:50:53.000Z</time>
      </trkpt>
      <trkpt lat="48.77497" lon="1.43205">
        <ele>147</ele>
        <time>2026-06-15T14:50:56.000Z</time>
      </trkpt>
      <trkpt lat="48.77467" lon="1.43169">
        <ele>147.39999389648</ele>
        <time>2026-06-15T14:51:04.000Z</time>
      </trkpt>
      <trkpt lat="48.77427" lon="1.43126">
        <ele>147.60000610352</ele>
        <time>2026-06-15T14:51:14.000Z</time>
      </trkpt>
      <trkpt lat="48.77413" lon="1.43118">
        <ele>147.60000610352</ele>
        <time>2026-06-15T14:51:17.000Z</time>
      </trkpt>
      <trkpt lat="48.77398" lon="1.43116">
        <ele>147.60000610352</ele>
        <time>2026-06-15T14:51:20.000Z</time>
      </trkpt>
      <trkpt lat="48.77355" lon="1.43111">
        <ele>147.80000305176</ele>
        <time>2026-06-15T14:51:28.000Z</time>
      </trkpt>
      <trkpt lat="48.7735" lon="1.43109">
        <ele>147.80000305176</ele>
        <time>2026-06-15T14:51:29.000Z</time>
      </trkpt>
      <trkpt lat="48.77319" lon="1.43081">
        <ele>147.80000305176</ele>
        <time>2026-06-15T14:51:36.000Z</time>
      </trkpt>
      <trkpt lat="48.77307" lon="1.43067">
        <ele>148</ele>
        <time>2026-06-15T14:51:39.000Z</time>
      </trkpt>
      <trkpt lat="48.77291" lon="1.43056">
        <ele>148</ele>
        <time>2026-06-15T14:51:43.000Z</time>
      </trkpt>
      <trkpt lat="48.7728" lon="1.43056">
        <ele>148</ele>
        <time>2026-06-15T14:51:46.000Z</time>
      </trkpt>
      <trkpt lat="48.77276" lon="1.4306">
        <ele>148</ele>
        <time>2026-06-15T14:51:47.000Z</time>
      </trkpt>
      <trkpt lat="48.7727" lon="1.43069">
        <ele>148.19999694824</ele>
        <time>2026-06-15T14:51:49.000Z</time>
      </trkpt>
      <trkpt lat="48.77268" lon="1.43074">
        <ele>148.19999694824</ele>
        <time>2026-06-15T14:51:50.000Z</time>
      </trkpt>
      <trkpt lat="48.77266" lon="1.4308">
        <ele>148.39999389648</ele>
        <time>2026-06-15T14:51:51.000Z</time>
      </trkpt>
      <trkpt lat="48.77257" lon="1.43105">
        <ele>148.60000610352</ele>
        <time>2026-06-15T14:51:55.000Z</time>
      </trkpt>
      <trkpt lat="48.77255" lon="1.43111">
        <ele>148.60000610352</ele>
        <time>2026-06-15T14:51:56.000Z</time>
      </trkpt>
      <trkpt lat="48.77252" lon="1.43116">
        <ele>148.60000610352</ele>
        <time>2026-06-15T14:51:57.000Z</time>
      </trkpt>
      <trkpt lat="48.77244" lon="1.43127">
        <ele>148.80000305176</ele>
        <time>2026-06-15T14:51:59.000Z</time>
      </trkpt>
      <trkpt lat="48.7724" lon="1.43129">
        <ele>148.80000305176</ele>
        <time>2026-06-15T14:52:00.000Z</time>
      </trkpt>
      <trkpt lat="48.77236" lon="1.43128">
        <ele>148.80000305176</ele>
        <time>2026-06-15T14:52:01.000Z</time>
      </trkpt>
      <trkpt lat="48.77229" lon="1.43119">
        <ele>148.60000610352</ele>
        <time>2026-06-15T14:52:03.000Z</time>
      </trkpt>
      <trkpt lat="48.77198" lon="1.43077">
        <ele>149</ele>
        <time>2026-06-15T14:52:11.000Z</time>
      </trkpt>
      <trkpt lat="48.77194" lon="1.43072">
        <ele>149.19999694824</ele>
        <time>2026-06-15T14:52:12.000Z</time>
      </trkpt>
      <trkpt lat="48.7718" lon="1.43054">
        <ele>149.19999694824</ele>
        <time>2026-06-15T14:52:16.000Z</time>
      </trkpt>
      <trkpt lat="48.77152" lon="1.43021">
        <ele>149.19999694824</ele>
        <time>2026-06-15T14:52:23.000Z</time>
      </trkpt>
      <trkpt lat="48.77147" lon="1.43015">
        <ele>149</ele>
        <time>2026-06-15T14:52:24.000Z</time>
      </trkpt>
      <trkpt lat="48.77119" lon="1.42984">
        <ele>149</ele>
        <time>2026-06-15T14:52:30.000Z</time>
      </trkpt>
      <trkpt lat="48.77082" lon="1.42927">
        <ele>149</ele>
        <time>2026-06-15T14:52:39.000Z</time>
      </trkpt>
      <trkpt lat="48.77049" lon="1.42862">
        <ele>149</ele>
        <time>2026-06-15T14:52:48.000Z</time>
      </trkpt>
      <trkpt lat="48.77021" lon="1.42793">
        <ele>149.19999694824</ele>
        <time>2026-06-15T14:52:57.000Z</time>
      </trkpt>
      <trkpt lat="48.76993" lon="1.42725">
        <ele>148.80000305176</ele>
        <time>2026-06-15T14:53:06.000Z</time>
      </trkpt>
      <trkpt lat="48.76961" lon="1.42652">
        <ele>148.80000305176</ele>
        <time>2026-06-15T14:53:16.000Z</time>
      </trkpt>
      <trkpt lat="48.76958" lon="1.42645">
        <ele>148.60000610352</ele>
        <time>2026-06-15T14:53:17.000Z</time>
      </trkpt>
      <trkpt lat="48.76925" lon="1.4258">
        <ele>148.60000610352</ele>
        <time>2026-06-15T14:53:26.000Z</time>
      </trkpt>
      <trkpt lat="48.76918" lon="1.42565">
        <ele>148.39999389648</ele>
        <time>2026-06-15T14:53:28.000Z</time>
      </trkpt>
      <trkpt lat="48.76886" lon="1.425">
        <ele>148.39999389648</ele>
        <time>2026-06-15T14:53:37.000Z</time>
      </trkpt>
      <trkpt lat="48.76871" lon="1.42471">
        <ele>148.19999694824</ele>
        <time>2026-06-15T14:53:41.000Z</time>
      </trkpt>
      <trkpt lat="48.76832" lon="1.42403">
        <ele>148</ele>
        <time>2026-06-15T14:53:51.000Z</time>
      </trkpt>
      <trkpt lat="48.76824" lon="1.42391">
        <ele>148</ele>
        <time>2026-06-15T14:53:53.000Z</time>
      </trkpt>
      <trkpt lat="48.76782" lon="1.42334">
        <ele>147.80000305176</ele>
        <time>2026-06-15T14:54:02.000Z</time>
      </trkpt>
      <trkpt lat="48.76758" lon="1.42305">
        <ele>147.60000610352</ele>
        <time>2026-06-15T14:54:07.000Z</time>
      </trkpt>
      <trkpt lat="48.76735" lon="1.42274">
        <ele>147.39999389648</ele>
        <time>2026-06-15T14:54:12.000Z</time>
      </trkpt>
      <trkpt lat="48.76696" lon="1.42217">
        <ele>147.39999389648</ele>
        <time>2026-06-15T14:54:21.000Z</time>
      </trkpt>
      <trkpt lat="48.76692" lon="1.42211">
        <ele>147.39999389648</ele>
        <time>2026-06-15T14:54:22.000Z</time>
      </trkpt>
      <trkpt lat="48.76652" lon="1.42152">
        <ele>147.39999389648</ele>
        <time>2026-06-15T14:54:31.000Z</time>
      </trkpt>
      <trkpt lat="48.76648" lon="1.42146">
        <ele>147.39999389648</ele>
        <time>2026-06-15T14:54:32.000Z</time>
      </trkpt>
      <trkpt lat="48.76608" lon="1.42088">
        <ele>147</ele>
        <time>2026-06-15T14:54:41.000Z</time>
      </trkpt>
      <trkpt lat="48.76601" lon="1.42078">
        <ele>147</ele>
        <time>2026-06-15T14:54:42.000Z</time>
      </trkpt>
      <trkpt lat="48.76569" lon="1.4203">
        <ele>147</ele>
        <time>2026-06-15T14:54:50.000Z</time>
      </trkpt>
      <trkpt lat="48.7654" lon="1.41991">
        <ele>146.60000610352</ele>
        <time>2026-06-15T14:54:56.000Z</time>
      </trkpt>
      <trkpt lat="48.76515" lon="1.41953">
        <ele>146</ele>
        <time>2026-06-15T14:55:01.000Z</time>
      </trkpt>
      <trkpt lat="48.76498" lon="1.41928">
        <ele>145.80000305176</ele>
        <time>2026-06-15T14:55:04.000Z</time>
      </trkpt>
      <trkpt lat="48.76486" lon="1.41911">
        <ele>145.39999389648</ele>
        <time>2026-06-15T14:55:06.000Z</time>
      </trkpt>
      <trkpt lat="48.76469" lon="1.41885">
        <ele>144.39999389648</ele>
        <time>2026-06-15T14:55:09.000Z</time>
      </trkpt>
      <trkpt lat="48.76439" lon="1.4184">
        <ele>143.39999389648</ele>
        <time>2026-06-15T14:55:14.000Z</time>
      </trkpt>
      <trkpt lat="48.76426" lon="1.41822">
        <ele>142.19999694824</ele>
        <time>2026-06-15T14:55:16.000Z</time>
      </trkpt>
      <trkpt lat="48.76396" lon="1.41788">
        <ele>141</ele>
        <time>2026-06-15T14:55:20.000Z</time>
      </trkpt>
      <trkpt lat="48.76387" lon="1.4178">
        <ele>140.60000610352</ele>
        <time>2026-06-15T14:55:21.000Z</time>
      </trkpt>
      <trkpt lat="48.7638" lon="1.41776">
        <ele>139.80000305176</ele>
        <time>2026-06-15T14:55:22.000Z</time>
      </trkpt>
      <trkpt lat="48.76355" lon="1.41759">
        <ele>138.39999389648</ele>
        <time>2026-06-15T14:55:25.000Z</time>
      </trkpt>
      <trkpt lat="48.76329" lon="1.41744">
        <ele>137.19999694824</ele>
        <time>2026-06-15T14:55:28.000Z</time>
      </trkpt>
      <trkpt lat="48.76311" lon="1.41734">
        <ele>136.19999694824</ele>
        <time>2026-06-15T14:55:30.000Z</time>
      </trkpt>
      <trkpt lat="48.76273" lon="1.41713">
        <ele>134.80000305176</ele>
        <time>2026-06-15T14:55:34.000Z</time>
      </trkpt>
      <trkpt lat="48.76244" lon="1.41697">
        <ele>133</ele>
        <time>2026-06-15T14:55:37.000Z</time>
      </trkpt>
      <trkpt lat="48.76224" lon="1.41687">
        <ele>131.80000305176</ele>
        <time>2026-06-15T14:55:39.000Z</time>
      </trkpt>
      <trkpt lat="48.76205" lon="1.41676">
        <ele>130.80000305176</ele>
        <time>2026-06-15T14:55:41.000Z</time>
      </trkpt>
      <trkpt lat="48.76182" lon="1.41664">
        <ele>129.80000305176</ele>
        <time>2026-06-15T14:55:43.000Z</time>
      </trkpt>
      <trkpt lat="48.76182" lon="1.41664">
        <ele>129</ele>
        <time>2026-06-15T14:55:44.000Z</time>
      </trkpt>
      <trkpt lat="48.76159" lon="1.41656">
        <ele>128.60000610352</ele>
        <time>2026-06-15T14:55:46.000Z</time>
      </trkpt>
      <trkpt lat="48.76139" lon="1.41653">
        <ele>128.19999694824</ele>
        <time>2026-06-15T14:55:48.000Z</time>
      </trkpt>
      <trkpt lat="48.76129" lon="1.41654">
        <ele>127.80000305176</ele>
        <time>2026-06-15T14:55:49.000Z</time>
      </trkpt>
      <trkpt lat="48.7611" lon="1.41658">
        <ele>127</ele>
        <time>2026-06-15T14:55:51.000Z</time>
      </trkpt>
      <trkpt lat="48.761" lon="1.41662">
        <ele>126.59999847412</ele>
        <time>2026-06-15T14:55:52.000Z</time>
      </trkpt>
      <trkpt lat="48.76074" lon="1.41679">
        <ele>125.40000152588</ele>
        <time>2026-06-15T14:55:55.000Z</time>
      </trkpt>
      <trkpt lat="48.76058" lon="1.4169">
        <ele>124.19999694824</ele>
        <time>2026-06-15T14:55:57.000Z</time>
      </trkpt>
      <trkpt lat="48.76043" lon="1.41701">
        <ele>123</ele>
        <time>2026-06-15T14:55:59.000Z</time>
      </trkpt>
      <trkpt lat="48.76023" lon="1.41715">
        <ele>122</ele>
        <time>2026-06-15T14:56:02.000Z</time>
      </trkpt>
      <trkpt lat="48.76017" lon="1.41716">
        <ele>121.40000152588</ele>
        <time>2026-06-15T14:56:03.000Z</time>
      </trkpt>
      <trkpt lat="48.76011" lon="1.41716">
        <ele>121</ele>
        <time>2026-06-15T14:56:04.000Z</time>
      </trkpt>
      <trkpt lat="48.76005" lon="1.41713">
        <ele>120.59999847412</ele>
        <time>2026-06-15T14:56:05.000Z</time>
      </trkpt>
      <trkpt lat="48.75999" lon="1.41709">
        <ele>120.40000152588</ele>
        <time>2026-06-15T14:56:06.000Z</time>
      </trkpt>
      <trkpt lat="48.75987" lon="1.41701">
        <ele>119.80000305176</ele>
        <time>2026-06-15T14:56:08.000Z</time>
      </trkpt>
      <trkpt lat="48.75981" lon="1.417">
        <ele>119.40000152588</ele>
        <time>2026-06-15T14:56:09.000Z</time>
      </trkpt>
      <trkpt lat="48.75975" lon="1.41701">
        <ele>119</ele>
        <time>2026-06-15T14:56:10.000Z</time>
      </trkpt>
      <trkpt lat="48.75949" lon="1.41707">
        <ele>118.19999694824</ele>
        <time>2026-06-15T14:56:14.000Z</time>
      </trkpt>
      <trkpt lat="48.75909" lon="1.41723">
        <ele>117.80000305176</ele>
        <time>2026-06-15T14:56:21.000Z</time>
      </trkpt>
      <trkpt lat="48.75873" lon="1.41737">
        <ele>117.59999847412</ele>
        <time>2026-06-15T14:56:28.000Z</time>
      </trkpt>
      <trkpt lat="48.75856" lon="1.41744">
        <ele>117.40000152588</ele>
        <time>2026-06-15T14:56:31.000Z</time>
      </trkpt>
      <trkpt lat="48.7582" lon="1.41757">
        <ele>117.19999694824</ele>
        <time>2026-06-15T14:56:37.000Z</time>
      </trkpt>
      <trkpt lat="48.75774" lon="1.41767">
        <ele>116.40000152588</ele>
        <time>2026-06-15T14:56:44.000Z</time>
      </trkpt>
      <trkpt lat="48.75767" lon="1.41768">
        <ele>116.19999694824</ele>
        <time>2026-06-15T14:56:45.000Z</time>
      </trkpt>
      <trkpt lat="48.75726" lon="1.41767">
        <ele>115.40000152588</ele>
        <time>2026-06-15T14:56:51.000Z</time>
      </trkpt>
      <trkpt lat="48.75697" lon="1.41762">
        <ele>114.40000152588</ele>
        <time>2026-06-15T14:56:55.000Z</time>
      </trkpt>
      <trkpt lat="48.75682" lon="1.4176">
        <ele>113.80000305176</ele>
        <time>2026-06-15T14:56:57.000Z</time>
      </trkpt>
      <trkpt lat="48.75658" lon="1.41758">
        <ele>113.19999694824</ele>
        <time>2026-06-15T14:57:00.000Z</time>
      </trkpt>
      <trkpt lat="48.75641" lon="1.41757">
        <ele>112.19999694824</ele>
        <time>2026-06-15T14:57:02.000Z</time>
      </trkpt>
      <trkpt lat="48.75633" lon="1.41756">
        <ele>112</ele>
        <time>2026-06-15T14:57:03.000Z</time>
      </trkpt>
      <trkpt lat="48.75611" lon="1.41756">
        <ele>111</ele>
        <time>2026-06-15T14:57:06.000Z</time>
      </trkpt>
      <trkpt lat="48.75597" lon="1.41756">
        <ele>110.59999847412</ele>
        <time>2026-06-15T14:57:08.000Z</time>
      </trkpt>
      <trkpt lat="48.75583" lon="1.41756">
        <ele>110</ele>
        <time>2026-06-15T14:57:10.000Z</time>
      </trkpt>
      <trkpt lat="48.75554" lon="1.41767">
        <ele>109</ele>
        <time>2026-06-15T14:57:14.000Z</time>
      </trkpt>
      <trkpt lat="48.75546" lon="1.4177">
        <ele>108.59999847412</ele>
        <time>2026-06-15T14:57:15.000Z</time>
      </trkpt>
      <trkpt lat="48.75522" lon="1.41779">
        <ele>107.80000305176</ele>
        <time>2026-06-15T14:57:18.000Z</time>
      </trkpt>
      <trkpt lat="48.75505" lon="1.41783">
        <ele>107.19999694824</ele>
        <time>2026-06-15T14:57:20.000Z</time>
      </trkpt>
      <trkpt lat="48.75492" lon="1.41786">
        <ele>106.19999694824</ele>
        <time>2026-06-15T14:57:22.000Z</time>
      </trkpt>
      <trkpt lat="48.75475" lon="1.41789">
        <ele>104.59999847412</ele>
        <time>2026-06-15T14:57:25.000Z</time>
      </trkpt>
      <trkpt lat="48.7547" lon="1.4179">
        <ele>104.40000152588</ele>
        <time>2026-06-15T14:57:26.000Z</time>
      </trkpt>
      <trkpt lat="48.75462" lon="1.41786">
        <ele>103.40000152588</ele>
        <time>2026-06-15T14:57:28.000Z</time>
      </trkpt>
      <trkpt lat="48.75458" lon="1.41785">
        <ele>103</ele>
        <time>2026-06-15T14:57:29.000Z</time>
      </trkpt>
      <trkpt lat="48.75454" lon="1.41785">
        <ele>102.40000152588</ele>
        <time>2026-06-15T14:57:30.000Z</time>
      </trkpt>
      <trkpt lat="48.7545" lon="1.41787">
        <ele>102.19999694824</ele>
        <time>2026-06-15T14:57:31.000Z</time>
      </trkpt>
      <trkpt lat="48.75435" lon="1.41803">
        <ele>101.19999694824</ele>
        <time>2026-06-15T14:57:34.000Z</time>
      </trkpt>
      <trkpt lat="48.7543" lon="1.41807">
        <ele>101.19999694824</ele>
        <time>2026-06-15T14:57:35.000Z</time>
      </trkpt>
      <trkpt lat="48.75412" lon="1.41814">
        <ele>100.40000152588</ele>
        <time>2026-06-15T14:57:38.000Z</time>
      </trkpt>
      <trkpt lat="48.75406" lon="1.41815">
        <ele>100.19999694824</ele>
        <time>2026-06-15T14:57:39.000Z</time>
      </trkpt>
      <trkpt lat="48.75401" lon="1.41815">
        <ele>100</ele>
        <time>2026-06-15T14:57:40.000Z</time>
      </trkpt>
      <trkpt lat="48.75344" lon="1.41809">
        <ele>100</ele>
        <time>2026-06-15T14:57:50.000Z</time>
      </trkpt>
      <trkpt lat="48.75302" lon="1.41813">
        <ele>101.40000152588</ele>
        <time>2026-06-15T14:57:58.000Z</time>
      </trkpt>
      <trkpt lat="48.75297" lon="1.41814">
        <ele>101.40000152588</ele>
        <time>2026-06-15T14:57:59.000Z</time>
      </trkpt>
      <trkpt lat="48.7526" lon="1.41821">
        <ele>102.40000152588</ele>
        <time>2026-06-15T14:58:06.000Z</time>
      </trkpt>
      <trkpt lat="48.75255" lon="1.41822">
        <ele>102.40000152588</ele>
        <time>2026-06-15T14:58:07.000Z</time>
      </trkpt>
      <trkpt lat="48.75202" lon="1.41833">
        <ele>102.80000305176</ele>
        <time>2026-06-15T14:58:17.000Z</time>
      </trkpt>
      <trkpt lat="48.75183" lon="1.41841">
        <ele>103</ele>
        <time>2026-06-15T14:58:21.000Z</time>
      </trkpt>
      <trkpt lat="48.75173" lon="1.41845">
        <ele>103</ele>
        <time>2026-06-15T14:58:23.000Z</time>
      </trkpt>
      <trkpt lat="48.75133" lon="1.41861">
        <ele>103.19999694824</ele>
        <time>2026-06-15T14:58:31.000Z</time>
      </trkpt>
      <trkpt lat="48.75123" lon="1.41863">
        <ele>103.59999847412</ele>
        <time>2026-06-15T14:58:33.000Z</time>
      </trkpt>
      <trkpt lat="48.75117" lon="1.41864">
        <ele>103.59999847412</ele>
        <time>2026-06-15T14:58:34.000Z</time>
      </trkpt>
      <trkpt lat="48.75079" lon="1.41874">
        <ele>104.59999847412</ele>
        <time>2026-06-15T14:58:42.000Z</time>
      </trkpt>
      <trkpt lat="48.75074" lon="1.41876">
        <ele>104.59999847412</ele>
        <time>2026-06-15T14:58:43.000Z</time>
      </trkpt>
      <trkpt lat="48.75058" lon="1.41882">
        <ele>105</ele>
        <time>2026-06-15T14:58:46.000Z</time>
      </trkpt>
      <trkpt lat="48.75038" lon="1.41885">
        <ele>105.80000305176</ele>
        <time>2026-06-15T14:58:50.000Z</time>
      </trkpt>
      <trkpt lat="48.75006" lon="1.41889">
        <ele>106.80000305176</ele>
        <time>2026-06-15T14:58:57.000Z</time>
      </trkpt>
      <trkpt lat="48.74995" lon="1.41891">
        <ele>107</ele>
        <time>2026-06-15T14:58:59.000Z</time>
      </trkpt>
      <trkpt lat="48.74959" lon="1.41897">
        <ele>107.80000305176</ele>
        <time>2026-06-15T14:59:07.000Z</time>
      </trkpt>
      <trkpt lat="48.74927" lon="1.419">
        <ele>108.59999847412</ele>
        <time>2026-06-15T14:59:15.000Z</time>
      </trkpt>
      <trkpt lat="48.749" lon="1.41901">
        <ele>108.80000305176</ele>
        <time>2026-06-15T14:59:20.000Z</time>
      </trkpt>
      <trkpt lat="48.74891" lon="1.419">
        <ele>109</ele>
        <time>2026-06-15T14:59:22.000Z</time>
      </trkpt>
      <trkpt lat="48.74852" lon="1.41903">
        <ele>109.19999694824</ele>
        <time>2026-06-15T14:59:29.000Z</time>
      </trkpt>
      <trkpt lat="48.7481" lon="1.41908">
        <ele>109.40000152588</ele>
        <time>2026-06-15T14:59:37.000Z</time>
      </trkpt>
      <trkpt lat="48.74773" lon="1.41908">
        <ele>109.40000152588</ele>
        <time>2026-06-15T14:59:44.000Z</time>
      </trkpt>
      <trkpt lat="48.74767" lon="1.41908">
        <ele>109.40000152588</ele>
        <time>2026-06-15T14:59:45.000Z</time>
      </trkpt>
      <trkpt lat="48.74758" lon="1.41913">
        <ele>109.19999694824</ele>
        <time>2026-06-15T14:59:47.000Z</time>
      </trkpt>
      <trkpt lat="48.74754" lon="1.41918">
        <ele>109.19999694824</ele>
        <time>2026-06-15T14:59:48.000Z</time>
      </trkpt>
      <trkpt lat="48.74733" lon="1.41957">
        <ele>108.80000305176</ele>
        <time>2026-06-15T14:59:55.000Z</time>
      </trkpt>
      <trkpt lat="48.74718" lon="1.41975">
        <ele>109</ele>
        <time>2026-06-15T15:00:00.000Z</time>
      </trkpt>
      <trkpt lat="48.74708" lon="1.41983">
        <ele>108.80000305176</ele>
        <time>2026-06-15T15:00:04.000Z</time>
      </trkpt>
      <trkpt lat="48.74696" lon="1.41987">
        <ele>108.80000305176</ele>
        <time>2026-06-15T15:00:09.000Z</time>
      </trkpt>
      <trkpt lat="48.74697" lon="1.41997">
        <ele>108.40000152588</ele>
        <time>2026-06-15T15:00:12.000Z</time>
      </trkpt>
      <trkpt lat="48.747" lon="1.42022">
        <ele>108.40000152588</ele>
        <time>2026-06-15T15:00:17.000Z</time>
      </trkpt>
      <trkpt lat="48.74704" lon="1.42047">
        <ele>109</ele>
        <time>2026-06-15T15:00:24.000Z</time>
      </trkpt>
      <trkpt lat="48.74708" lon="1.42058">
        <ele>109.40000152588</ele>
        <time>2026-06-15T15:00:29.000Z</time>
      </trkpt>
      <trkpt lat="48.74706" lon="1.42081">
        <ele>110.19999694824</ele>
        <time>2026-06-15T15:33:06.000Z</time>
      </trkpt>
      <trkpt lat="48.74705" lon="1.42078">
        <ele>110.40000152588</ele>
        <time>2026-06-15T15:33:12.000Z</time>
      </trkpt>
      <trkpt lat="48.7471" lon="1.42079">
        <ele>110.80000305176</ele>
        <time>2026-06-15T15:33:18.000Z</time>
      </trkpt>
      <trkpt lat="48.74711" lon="1.4208">
        <ele>110.80000305176</ele>
        <time>2026-06-15T15:33:19.000Z</time>
      </trkpt>
      <trkpt lat="48.74714" lon="1.42081">
        <ele>110.59999847412</ele>
        <time>2026-06-15T15:33:26.000Z</time>
      </trkpt>
      <trkpt lat="48.74715" lon="1.42082">
        <ele>110.80000305176</ele>
        <time>2026-06-15T15:33:49.000Z</time>
      </trkpt>
      <trkpt lat="48.74715" lon="1.42082">
        <ele>110.80000305176</ele>
        <time>2026-06-15T15:33:53.000Z</time>
      </trkpt>
      <trkpt lat="48.74718" lon="1.42072">
        <ele>110.80000305176</ele>
        <time>2026-06-15T15:34:23.000Z</time>
      </trkpt>
      <trkpt lat="48.74717" lon="1.42069">
        <ele>110.80000305176</ele>
        <time>2026-06-15T15:34:24.000Z</time>
      </trkpt>
      <trkpt lat="48.74716" lon="1.42049">
        <ele>111</ele>
        <time>2026-06-15T15:34:29.000Z</time>
      </trkpt>
      <trkpt lat="48.74713" lon="1.42024">
        <ele>111</ele>
        <time>2026-06-15T15:34:35.000Z</time>
      </trkpt>
      <trkpt lat="48.74705" lon="1.41991">
        <ele>110.19999694824</ele>
        <time>2026-06-15T15:34:43.000Z</time>
      </trkpt>
      <trkpt lat="48.74692" lon="1.4198">
        <ele>109.59999847412</ele>
        <time>2026-06-15T15:34:47.000Z</time>
      </trkpt>
      <trkpt lat="48.74687" lon="1.41964">
        <ele>109.19999694824</ele>
        <time>2026-06-15T15:34:50.000Z</time>
      </trkpt>
      <trkpt lat="48.74683" lon="1.41952">
        <ele>108.80000305176</ele>
        <time>2026-06-15T15:34:52.000Z</time>
      </trkpt>
      <trkpt lat="48.74677" lon="1.41929">
        <ele>108</ele>
        <time>2026-06-15T15:34:56.000Z</time>
      </trkpt>
      <trkpt lat="48.74677" lon="1.41925">
        <ele>107.80000305176</ele>
        <time>2026-06-15T15:34:57.000Z</time>
      </trkpt>
      <trkpt lat="48.74675" lon="1.4191">
        <ele>106.80000305176</ele>
        <time>2026-06-15T15:35:01.000Z</time>
      </trkpt>
      <trkpt lat="48.74675" lon="1.41899">
        <ele>106.40000152588</ele>
        <time>2026-06-15T15:35:03.000Z</time>
      </trkpt>
      <trkpt lat="48.74674" lon="1.41887">
        <ele>105.80000305176</ele>
        <time>2026-06-15T15:35:05.000Z</time>
      </trkpt>
      <trkpt lat="48.74672" lon="1.41852">
        <ele>104.80000305176</ele>
        <time>2026-06-15T15:35:10.000Z</time>
      </trkpt>
      <trkpt lat="48.74672" lon="1.41812">
        <ele>104.19999694824</ele>
        <time>2026-06-15T15:35:15.000Z</time>
      </trkpt>
      <trkpt lat="48.74674" lon="1.41765">
        <ele>103.80000305176</ele>
        <time>2026-06-15T15:35:20.000Z</time>
      </trkpt>
      <trkpt lat="48.74675" lon="1.41745">
        <ele>103.40000152588</ele>
        <time>2026-06-15T15:35:22.000Z</time>
      </trkpt>
      <trkpt lat="48.74677" lon="1.41709">
        <ele>102.80000305176</ele>
        <time>2026-06-15T15:35:26.000Z</time>
      </trkpt>
      <trkpt lat="48.74677" lon="1.41691">
        <ele>102.59999847412</ele>
        <time>2026-06-15T15:35:28.000Z</time>
      </trkpt>
      <trkpt lat="48.74678" lon="1.41646">
        <ele>101.59999847412</ele>
        <time>2026-06-15T15:35:34.000Z</time>
      </trkpt>
      <trkpt lat="48.74675" lon="1.41632">
        <ele>101</ele>
        <time>2026-06-15T15:35:37.000Z</time>
      </trkpt>
      <trkpt lat="48.74662" lon="1.41619">
        <ele>100.40000152588</ele>
        <time>2026-06-15T15:35:41.000Z</time>
      </trkpt>
      <trkpt lat="48.7464" lon="1.41597">
        <ele>99.199996948242</ele>
        <time>2026-06-15T15:35:46.000Z</time>
      </trkpt>
      <trkpt lat="48.74631" lon="1.41589">
        <ele>98.800003051758</ele>
        <time>2026-06-15T15:35:48.000Z</time>
      </trkpt>
      <trkpt lat="48.7461" lon="1.41567">
        <ele>98.199996948242</ele>
        <time>2026-06-15T15:35:53.000Z</time>
      </trkpt>
      <trkpt lat="48.74602" lon="1.41559">
        <ele>97.800003051758</ele>
        <time>2026-06-15T15:35:55.000Z</time>
      </trkpt>
      <trkpt lat="48.74571" lon="1.41528">
        <ele>97.400001525879</ele>
        <time>2026-06-15T15:36:02.000Z</time>
      </trkpt>
      <trkpt lat="48.74545" lon="1.41503">
        <ele>97.400001525879</ele>
        <time>2026-06-15T15:36:08.000Z</time>
      </trkpt>
      <trkpt lat="48.74513" lon="1.4148">
        <ele>97.400001525879</ele>
        <time>2026-06-15T15:36:15.000Z</time>
      </trkpt>
      <trkpt lat="48.74489" lon="1.41467">
        <ele>97.599998474121</ele>
        <time>2026-06-15T15:36:20.000Z</time>
      </trkpt>
      <trkpt lat="48.74484" lon="1.41465">
        <ele>97.400001525879</ele>
        <time>2026-06-15T15:36:21.000Z</time>
      </trkpt>
      <trkpt lat="48.74469" lon="1.41459">
        <ele>97.400001525879</ele>
        <time>2026-06-15T15:36:24.000Z</time>
      </trkpt>
      <trkpt lat="48.74459" lon="1.41454">
        <ele>97.199996948242</ele>
        <time>2026-06-15T15:36:26.000Z</time>
      </trkpt>
      <trkpt lat="48.74454" lon="1.41452">
        <ele>97.199996948242</ele>
        <time>2026-06-15T15:36:27.000Z</time>
      </trkpt>
      <trkpt lat="48.74418" lon="1.41436">
        <ele>97</ele>
        <time>2026-06-15T15:36:34.000Z</time>
      </trkpt>
      <trkpt lat="48.74369" lon="1.41415">
        <ele>97.199996948242</ele>
        <time>2026-06-15T15:36:44.000Z</time>
      </trkpt>
      <trkpt lat="48.74327" lon="1.41393">
        <ele>97.400001525879</ele>
        <time>2026-06-15T15:36:53.000Z</time>
      </trkpt>
      <trkpt lat="48.74292" lon="1.41365">
        <ele>97.400001525879</ele>
        <time>2026-06-15T15:37:01.000Z</time>
      </trkpt>
      <trkpt lat="48.74284" lon="1.41357">
        <ele>97.400001525879</ele>
        <time>2026-06-15T15:37:03.000Z</time>
      </trkpt>
      <trkpt lat="48.74273" lon="1.41343">
        <ele>97.400001525879</ele>
        <time>2026-06-15T15:37:06.000Z</time>
      </trkpt>
      <trkpt lat="48.74253" lon="1.41313">
        <ele>97.400001525879</ele>
        <time>2026-06-15T15:37:11.000Z</time>
      </trkpt>
      <trkpt lat="48.74242" lon="1.41296">
        <ele>97.400001525879</ele>
        <time>2026-06-15T15:37:14.000Z</time>
      </trkpt>
      <trkpt lat="48.74214" lon="1.41257">
        <ele>97.800003051758</ele>
        <time>2026-06-15T15:37:21.000Z</time>
      </trkpt>
      <trkpt lat="48.74194" lon="1.41226">
        <ele>98</ele>
        <time>2026-06-15T15:37:27.000Z</time>
      </trkpt>
      <trkpt lat="48.7419" lon="1.41221">
        <ele>98</ele>
        <time>2026-06-15T15:37:28.000Z</time>
      </trkpt>
      <trkpt lat="48.74175" lon="1.41205">
        <ele>98</ele>
        <time>2026-06-15T15:37:32.000Z</time>
      </trkpt>
      <trkpt lat="48.74153" lon="1.41198">
        <ele>97.800003051758</ele>
        <time>2026-06-15T15:37:36.000Z</time>
      </trkpt>
      <trkpt lat="48.74141" lon="1.41201">
        <ele>97.800003051758</ele>
        <time>2026-06-15T15:37:38.000Z</time>
      </trkpt>
      <trkpt lat="48.7413" lon="1.41209">
        <ele>97.800003051758</ele>
        <time>2026-06-15T15:37:40.000Z</time>
      </trkpt>
      <trkpt lat="48.74094" lon="1.41242">
        <ele>97.800003051758</ele>
        <time>2026-06-15T15:37:47.000Z</time>
      </trkpt>
      <trkpt lat="48.74074" lon="1.4127">
        <ele>98</ele>
        <time>2026-06-15T15:37:52.000Z</time>
      </trkpt>
      <trkpt lat="48.7407" lon="1.41279">
        <ele>98</ele>
        <time>2026-06-15T15:37:53.000Z</time>
      </trkpt>
      <trkpt lat="48.74044" lon="1.41327">
        <ele>98</ele>
        <time>2026-06-15T15:38:00.000Z</time>
      </trkpt>
      <trkpt lat="48.74034" lon="1.41336">
        <ele>98</ele>
        <time>2026-06-15T15:38:02.000Z</time>
      </trkpt>
      <trkpt lat="48.7402" lon="1.41344">
        <ele>98</ele>
        <time>2026-06-15T15:38:05.000Z</time>
      </trkpt>
      <trkpt lat="48.73976" lon="1.41354">
        <ele>98</ele>
        <time>2026-06-15T15:38:13.000Z</time>
      </trkpt>
      <trkpt lat="48.73942" lon="1.41359">
        <ele>98</ele>
        <time>2026-06-15T15:38:19.000Z</time>
      </trkpt>
      <trkpt lat="48.7393" lon="1.41362">
        <ele>98</ele>
        <time>2026-06-15T15:38:21.000Z</time>
      </trkpt>
      <trkpt lat="48.73915" lon="1.41369">
        <ele>97.800003051758</ele>
        <time>2026-06-15T15:38:24.000Z</time>
      </trkpt>
      <trkpt lat="48.73869" lon="1.41385">
        <ele>98</ele>
        <time>2026-06-15T15:38:33.000Z</time>
      </trkpt>
      <trkpt lat="48.73846" lon="1.4139">
        <ele>98</ele>
        <time>2026-06-15T15:38:37.000Z</time>
      </trkpt>
      <trkpt lat="48.73837" lon="1.41393">
        <ele>98</ele>
        <time>2026-06-15T15:38:39.000Z</time>
      </trkpt>
      <trkpt lat="48.73821" lon="1.41397">
        <ele>98.199996948242</ele>
        <time>2026-06-15T15:38:42.000Z</time>
      </trkpt>
      <trkpt lat="48.73805" lon="1.414">
        <ele>98.199996948242</ele>
        <time>2026-06-15T15:38:45.000Z</time>
      </trkpt>
      <trkpt lat="48.73792" lon="1.41405">
        <ele>98.599998474121</ele>
        <time>2026-06-15T15:38:48.000Z</time>
      </trkpt>
      <trkpt lat="48.73784" lon="1.41408">
        <ele>98.400001525879</ele>
        <time>2026-06-15T15:38:50.000Z</time>
      </trkpt>
      <trkpt lat="48.73768" lon="1.41413">
        <ele>98.599998474121</ele>
        <time>2026-06-15T15:38:55.000Z</time>
      </trkpt>
      <trkpt lat="48.73747" lon="1.41416">
        <ele>98.800003051758</ele>
        <time>2026-06-15T15:39:01.000Z</time>
      </trkpt>
      <trkpt lat="48.7372" lon="1.41415">
        <ele>98.800003051758</ele>
        <time>2026-06-15T15:39:07.000Z</time>
      </trkpt>
      <trkpt lat="48.73695" lon="1.41415">
        <ele>98.599998474121</ele>
        <time>2026-06-15T15:39:12.000Z</time>
      </trkpt>
      <trkpt lat="48.73684" lon="1.41417">
        <ele>98.599998474121</ele>
        <time>2026-06-15T15:39:14.000Z</time>
      </trkpt>
      <trkpt lat="48.73653" lon="1.41428">
        <ele>98.800003051758</ele>
        <time>2026-06-15T15:39:20.000Z</time>
      </trkpt>
      <trkpt lat="48.7365" lon="1.4143">
        <ele>98.800003051758</ele>
        <time>2026-06-15T15:39:21.000Z</time>
      </trkpt>
      <trkpt lat="48.73628" lon="1.41437">
        <ele>98.800003051758</ele>
        <time>2026-06-15T15:39:25.000Z</time>
      </trkpt>
      <trkpt lat="48.73619" lon="1.4144">
        <ele>98.800003051758</ele>
        <time>2026-06-15T15:39:27.000Z</time>
      </trkpt>
      <trkpt lat="48.73597" lon="1.41449">
        <ele>99</ele>
        <time>2026-06-15T15:39:31.000Z</time>
      </trkpt>
      <trkpt lat="48.73587" lon="1.41452">
        <ele>98.599998474121</ele>
        <time>2026-06-15T15:39:33.000Z</time>
      </trkpt>
      <trkpt lat="48.73557" lon="1.41465">
        <ele>98.800003051758</ele>
        <time>2026-06-15T15:39:39.000Z</time>
      </trkpt>
      <trkpt lat="48.73504" lon="1.41487">
        <ele>99</ele>
        <time>2026-06-15T15:39:49.000Z</time>
      </trkpt>
      <trkpt lat="48.73458" lon="1.41506">
        <ele>99</ele>
        <time>2026-06-15T15:39:58.000Z</time>
      </trkpt>
      <trkpt lat="48.73453" lon="1.41508">
        <ele>99</ele>
        <time>2026-06-15T15:39:59.000Z</time>
      </trkpt>
      <trkpt lat="48.73426" lon="1.41517">
        <ele>99</ele>
        <time>2026-06-15T15:40:04.000Z</time>
      </trkpt>
      <trkpt lat="48.73393" lon="1.41523">
        <ele>99.199996948242</ele>
        <time>2026-06-15T15:40:10.000Z</time>
      </trkpt>
      <trkpt lat="48.73388" lon="1.41523">
        <ele>99.199996948242</ele>
        <time>2026-06-15T15:40:11.000Z</time>
      </trkpt>
      <trkpt lat="48.73372" lon="1.41526">
        <ele>99.599998474121</ele>
        <time>2026-06-15T15:40:14.000Z</time>
      </trkpt>
      <trkpt lat="48.73345" lon="1.41526">
        <ele>99.800003051758</ele>
        <time>2026-06-15T15:40:19.000Z</time>
      </trkpt>
      <trkpt lat="48.73296" lon="1.41523">
        <ele>99.599998474121</ele>
        <time>2026-06-15T15:40:28.000Z</time>
      </trkpt>
      <trkpt lat="48.73259" lon="1.41519">
        <ele>99.400001525879</ele>
        <time>2026-06-15T15:40:35.000Z</time>
      </trkpt>
      <trkpt lat="48.73213" lon="1.41509">
        <ele>99.199996948242</ele>
        <time>2026-06-15T15:40:43.000Z</time>
      </trkpt>
      <trkpt lat="48.73181" lon="1.41489">
        <ele>99</ele>
        <time>2026-06-15T15:40:49.000Z</time>
      </trkpt>
      <trkpt lat="48.73132" lon="1.41443">
        <ele>98.800003051758</ele>
        <time>2026-06-15T15:40:59.000Z</time>
      </trkpt>
      <trkpt lat="48.73104" lon="1.41412">
        <ele>98.800003051758</ele>
        <time>2026-06-15T15:41:05.000Z</time>
      </trkpt>
      <trkpt lat="48.73061" lon="1.41376">
        <ele>98.800003051758</ele>
        <time>2026-06-15T15:41:14.000Z</time>
      </trkpt>
      <trkpt lat="48.73011" lon="1.4134">
        <ele>99.199996948242</ele>
        <time>2026-06-15T15:41:24.000Z</time>
      </trkpt>
      <trkpt lat="48.73" lon="1.41332">
        <ele>99.199996948242</ele>
        <time>2026-06-15T15:41:26.000Z</time>
      </trkpt>
      <trkpt lat="48.72947" lon="1.41295">
        <ele>99.199996948242</ele>
        <time>2026-06-15T15:41:37.000Z</time>
      </trkpt>
      <trkpt lat="48.72892" lon="1.41276">
        <ele>99.599998474121</ele>
        <time>2026-06-15T15:41:47.000Z</time>
      </trkpt>
      <trkpt lat="48.72848" lon="1.41267">
        <ele>99.599998474121</ele>
        <time>2026-06-15T15:41:55.000Z</time>
      </trkpt>
      <trkpt lat="48.72804" lon="1.41251">
        <ele>99.599998474121</ele>
        <time>2026-06-15T15:42:03.000Z</time>
      </trkpt>
      <trkpt lat="48.72765" lon="1.41217">
        <ele>99.599998474121</ele>
        <time>2026-06-15T15:42:10.000Z</time>
      </trkpt>
      <trkpt lat="48.72752" lon="1.41208">
        <ele>99.400001525879</ele>
        <time>2026-06-15T15:42:13.000Z</time>
      </trkpt>
      <trkpt lat="48.72741" lon="1.41203">
        <ele>99.400001525879</ele>
        <time>2026-06-15T15:42:15.000Z</time>
      </trkpt>
      <trkpt lat="48.72735" lon="1.41201">
        <ele>99.400001525879</ele>
        <time>2026-06-15T15:42:16.000Z</time>
      </trkpt>
      <trkpt lat="48.72699" lon="1.41204">
        <ele>99.599998474121</ele>
        <time>2026-06-15T15:42:22.000Z</time>
      </trkpt>
      <trkpt lat="48.72649" lon="1.41222">
        <ele>99.599998474121</ele>
        <time>2026-06-15T15:42:31.000Z</time>
      </trkpt>
      <trkpt lat="48.72609" lon="1.41232">
        <ele>100</ele>
        <time>2026-06-15T15:42:38.000Z</time>
      </trkpt>
      <trkpt lat="48.72558" lon="1.41235">
        <ele>100.59999847412</ele>
        <time>2026-06-15T15:42:47.000Z</time>
      </trkpt>
      <trkpt lat="48.72547" lon="1.41235">
        <ele>100.80000305176</ele>
        <time>2026-06-15T15:42:49.000Z</time>
      </trkpt>
      <trkpt lat="48.7251" lon="1.41231">
        <ele>101.40000152588</ele>
        <time>2026-06-15T15:42:56.000Z</time>
      </trkpt>
      <trkpt lat="48.72459" lon="1.41221">
        <ele>101.40000152588</ele>
        <time>2026-06-15T15:43:06.000Z</time>
      </trkpt>
      <trkpt lat="48.72428" lon="1.41215">
        <ele>101.80000305176</ele>
        <time>2026-06-15T15:43:13.000Z</time>
      </trkpt>
      <trkpt lat="48.72416" lon="1.41213">
        <ele>102</ele>
        <time>2026-06-15T15:43:16.000Z</time>
      </trkpt>
      <trkpt lat="48.72403" lon="1.41211">
        <ele>102.19999694824</ele>
        <time>2026-06-15T15:43:19.000Z</time>
      </trkpt>
      <trkpt lat="48.72358" lon="1.41209">
        <ele>102.80000305176</ele>
        <time>2026-06-15T15:43:29.000Z</time>
      </trkpt>
      <trkpt lat="48.72317" lon="1.41218">
        <ele>102.80000305176</ele>
        <time>2026-06-15T15:43:37.000Z</time>
      </trkpt>
      <trkpt lat="48.72269" lon="1.41232">
        <ele>103</ele>
        <time>2026-06-15T15:43:46.000Z</time>
      </trkpt>
      <trkpt lat="48.72226" lon="1.4125">
        <ele>103.19999694824</ele>
        <time>2026-06-15T15:43:54.000Z</time>
      </trkpt>
      <trkpt lat="48.72172" lon="1.41274">
        <ele>103.19999694824</ele>
        <time>2026-06-15T15:44:04.000Z</time>
      </trkpt>
      <trkpt lat="48.72157" lon="1.41282">
        <ele>103.19999694824</ele>
        <time>2026-06-15T15:44:08.000Z</time>
      </trkpt>
      <trkpt lat="48.72151" lon="1.41283">
        <ele>103.19999694824</ele>
        <time>2026-06-15T15:44:12.000Z</time>
      </trkpt>
      <trkpt lat="48.7214" lon="1.41287">
        <ele>103.40000152588</ele>
        <time>2026-06-15T15:44:18.000Z</time>
      </trkpt>
      <trkpt lat="48.72129" lon="1.41298">
        <ele>103.40000152588</ele>
        <time>2026-06-15T15:44:21.000Z</time>
      </trkpt>
      <trkpt lat="48.72124" lon="1.41301">
        <ele>103.40000152588</ele>
        <time>2026-06-15T15:44:22.000Z</time>
      </trkpt>
      <trkpt lat="48.72083" lon="1.41329">
        <ele>103.40000152588</ele>
        <time>2026-06-15T15:44:30.000Z</time>
      </trkpt>
      <trkpt lat="48.72072" lon="1.41336">
        <ele>103.40000152588</ele>
        <time>2026-06-15T15:44:32.000Z</time>
      </trkpt>
      <trkpt lat="48.72043" lon="1.41349">
        <ele>103.40000152588</ele>
        <time>2026-06-15T15:44:37.000Z</time>
      </trkpt>
      <trkpt lat="48.71989" lon="1.41363">
        <ele>103.59999847412</ele>
        <time>2026-06-15T15:44:46.000Z</time>
      </trkpt>
      <trkpt lat="48.71934" lon="1.4138">
        <ele>104.19999694824</ele>
        <time>2026-06-15T15:44:55.000Z</time>
      </trkpt>
      <trkpt lat="48.71904" lon="1.4139">
        <ele>104.40000152588</ele>
        <time>2026-06-15T15:45:00.000Z</time>
      </trkpt>
      <trkpt lat="48.7187" lon="1.41403">
        <ele>105</ele>
        <time>2026-06-15T15:45:06.000Z</time>
      </trkpt>
      <trkpt lat="48.71822" lon="1.4142">
        <ele>105.40000152588</ele>
        <time>2026-06-15T15:45:14.000Z</time>
      </trkpt>
      <trkpt lat="48.7182" lon="1.4142">
        <ele>105.40000152588</ele>
        <time>2026-06-15T15:45:15.000Z</time>
      </trkpt>
      <trkpt lat="48.71777" lon="1.41435">
        <ele>105.80000305176</ele>
        <time>2026-06-15T15:45:23.000Z</time>
      </trkpt>
      <trkpt lat="48.71737" lon="1.41447">
        <ele>106.19999694824</ele>
        <time>2026-06-15T15:45:31.000Z</time>
      </trkpt>
      <trkpt lat="48.71721" lon="1.4145">
        <ele>106.40000152588</ele>
        <time>2026-06-15T15:45:34.000Z</time>
      </trkpt>
      <trkpt lat="48.71693" lon="1.41454">
        <ele>107</ele>
        <time>2026-06-15T15:45:40.000Z</time>
      </trkpt>
      <trkpt lat="48.71664" lon="1.41459">
        <ele>107.40000152588</ele>
        <time>2026-06-15T15:45:47.000Z</time>
      </trkpt>
      <trkpt lat="48.7164" lon="1.41465">
        <ele>108.40000152588</ele>
        <time>2026-06-15T15:45:54.000Z</time>
      </trkpt>
      <trkpt lat="48.71634" lon="1.41467">
        <ele>108.59999847412</ele>
        <time>2026-06-15T15:45:56.000Z</time>
      </trkpt>
      <trkpt lat="48.71617" lon="1.41473">
        <ele>109</ele>
        <time>2026-06-15T15:46:01.000Z</time>
      </trkpt>
      <trkpt lat="48.71599" lon="1.41477">
        <ele>109.59999847412</ele>
        <time>2026-06-15T15:46:05.000Z</time>
      </trkpt>
      <trkpt lat="48.71591" lon="1.41479">
        <ele>109.80000305176</ele>
        <time>2026-06-15T15:46:07.000Z</time>
      </trkpt>
      <trkpt lat="48.71575" lon="1.41483">
        <ele>110.59999847412</ele>
        <time>2026-06-15T15:46:11.000Z</time>
      </trkpt>
      <trkpt lat="48.71565" lon="1.41483">
        <ele>111.19999694824</ele>
        <time>2026-06-15T15:46:14.000Z</time>
      </trkpt>
      <trkpt lat="48.71556" lon="1.41481">
        <ele>111.59999847412</ele>
        <time>2026-06-15T15:46:16.000Z</time>
      </trkpt>
      <trkpt lat="48.7154" lon="1.41478">
        <ele>112.59999847412</ele>
        <time>2026-06-15T15:46:20.000Z</time>
      </trkpt>
      <trkpt lat="48.7152" lon="1.41475">
        <ele>113.40000152588</ele>
        <time>2026-06-15T15:46:25.000Z</time>
      </trkpt>
      <trkpt lat="48.7149" lon="1.41485">
        <ele>114.80000305176</ele>
        <time>2026-06-15T15:46:32.000Z</time>
      </trkpt>
      <trkpt lat="48.71483" lon="1.41491">
        <ele>115.19999694824</ele>
        <time>2026-06-15T15:46:34.000Z</time>
      </trkpt>
      <trkpt lat="48.7147" lon="1.41508">
        <ele>115.80000305176</ele>
        <time>2026-06-15T15:46:38.000Z</time>
      </trkpt>
      <trkpt lat="48.71467" lon="1.41513">
        <ele>116.19999694824</ele>
        <time>2026-06-15T15:46:39.000Z</time>
      </trkpt>
      <trkpt lat="48.71438" lon="1.41551">
        <ele>117.19999694824</ele>
        <time>2026-06-15T15:46:48.000Z</time>
      </trkpt>
      <trkpt lat="48.71435" lon="1.41555">
        <ele>117.40000152588</ele>
        <time>2026-06-15T15:46:49.000Z</time>
      </trkpt>
      <trkpt lat="48.71413" lon="1.41577">
        <ele>118.40000152588</ele>
        <time>2026-06-15T15:46:55.000Z</time>
      </trkpt>
      <trkpt lat="48.71396" lon="1.41597">
        <ele>119.19999694824</ele>
        <time>2026-06-15T15:47:00.000Z</time>
      </trkpt>
      <trkpt lat="48.71366" lon="1.4163">
        <ele>119.40000152588</ele>
        <time>2026-06-15T15:47:07.000Z</time>
      </trkpt>
      <trkpt lat="48.7132" lon="1.41685">
        <ele>119.59999847412</ele>
        <time>2026-06-15T15:47:18.000Z</time>
      </trkpt>
      <trkpt lat="48.713" lon="1.41718">
        <ele>119.80000305176</ele>
        <time>2026-06-15T15:47:24.000Z</time>
      </trkpt>
      <trkpt lat="48.71278" lon="1.41753">
        <ele>120.40000152588</ele>
        <time>2026-06-15T15:47:31.000Z</time>
      </trkpt>
      <trkpt lat="48.71275" lon="1.41758">
        <ele>120.59999847412</ele>
        <time>2026-06-15T15:47:32.000Z</time>
      </trkpt>
      <trkpt lat="48.71258" lon="1.4178">
        <ele>121.80000305176</ele>
        <time>2026-06-15T15:47:37.000Z</time>
      </trkpt>
      <trkpt lat="48.71244" lon="1.41797">
        <ele>122.19999694824</ele>
        <time>2026-06-15T15:47:41.000Z</time>
      </trkpt>
      <trkpt lat="48.71208" lon="1.41838">
        <ele>122.40000152588</ele>
        <time>2026-06-15T15:47:50.000Z</time>
      </trkpt>
      <trkpt lat="48.71172" lon="1.41877">
        <ele>122.40000152588</ele>
        <time>2026-06-15T15:47:59.000Z</time>
      </trkpt>
      <trkpt lat="48.71137" lon="1.41918">
        <ele>122.19999694824</ele>
        <time>2026-06-15T15:48:07.000Z</time>
      </trkpt>
      <trkpt lat="48.71132" lon="1.41923">
        <ele>122.19999694824</ele>
        <time>2026-06-15T15:48:08.000Z</time>
      </trkpt>
      <trkpt lat="48.71108" lon="1.41946">
        <ele>121.80000305176</ele>
        <time>2026-06-15T15:48:13.000Z</time>
      </trkpt>
      <trkpt lat="48.71064" lon="1.41988">
        <ele>121.80000305176</ele>
        <time>2026-06-15T15:48:22.000Z</time>
      </trkpt>
      <trkpt lat="48.71042" lon="1.42019">
        <ele>121.59999847412</ele>
        <time>2026-06-15T15:48:27.000Z</time>
      </trkpt>
      <trkpt lat="48.7104" lon="1.42027">
        <ele>121.59999847412</ele>
        <time>2026-06-15T15:48:28.000Z</time>
      </trkpt>
      <trkpt lat="48.71037" lon="1.42055">
        <ele>121.19999694824</ele>
        <time>2026-06-15T15:48:31.000Z</time>
      </trkpt>
      <trkpt lat="48.71033" lon="1.42065">
        <ele>120.80000305176</ele>
        <time>2026-06-15T15:48:32.000Z</time>
      </trkpt>
      <trkpt lat="48.71007" lon="1.42108">
        <ele>119.40000152588</ele>
        <time>2026-06-15T15:48:37.000Z</time>
      </trkpt>
      <trkpt lat="48.70987" lon="1.42134">
        <ele>118.19999694824</ele>
        <time>2026-06-15T15:48:40.000Z</time>
      </trkpt>
      <trkpt lat="48.7096" lon="1.42167">
        <ele>116.80000305176</ele>
        <time>2026-06-15T15:48:43.000Z</time>
      </trkpt>
      <trkpt lat="48.70942" lon="1.4219">
        <ele>115.80000305176</ele>
        <time>2026-06-15T15:48:46.000Z</time>
      </trkpt>
      <trkpt lat="48.70925" lon="1.42209">
        <ele>114.80000305176</ele>
        <time>2026-06-15T15:48:48.000Z</time>
      </trkpt>
      <trkpt lat="48.70918" lon="1.42217">
        <ele>113.80000305176</ele>
        <time>2026-06-15T15:48:49.000Z</time>
      </trkpt>
      <trkpt lat="48.70899" lon="1.4224">
        <ele>112.40000152588</ele>
        <time>2026-06-15T15:48:52.000Z</time>
      </trkpt>
      <trkpt lat="48.70888" lon="1.42256">
        <ele>111.40000152588</ele>
        <time>2026-06-15T15:48:54.000Z</time>
      </trkpt>
      <trkpt lat="48.70882" lon="1.42264">
        <ele>111.19999694824</ele>
        <time>2026-06-15T15:48:55.000Z</time>
      </trkpt>
      <trkpt lat="48.70869" lon="1.42279">
        <ele>110</ele>
        <time>2026-06-15T15:48:57.000Z</time>
      </trkpt>
      <trkpt lat="48.70856" lon="1.42294">
        <ele>109.19999694824</ele>
        <time>2026-06-15T15:48:59.000Z</time>
      </trkpt>
      <trkpt lat="48.7085" lon="1.42302">
        <ele>108.40000152588</ele>
        <time>2026-06-15T15:49:00.000Z</time>
      </trkpt>
      <trkpt lat="48.70836" lon="1.42326">
        <ele>107.40000152588</ele>
        <time>2026-06-15T15:49:03.000Z</time>
      </trkpt>
      <trkpt lat="48.70828" lon="1.42339">
        <ele>106.19999694824</ele>
        <time>2026-06-15T15:49:05.000Z</time>
      </trkpt>
      <trkpt lat="48.70822" lon="1.42351">
        <ele>105.59999847412</ele>
        <time>2026-06-15T15:49:07.000Z</time>
      </trkpt>
      <trkpt lat="48.70819" lon="1.42356">
        <ele>105.19999694824</ele>
        <time>2026-06-15T15:49:08.000Z</time>
      </trkpt>
      <trkpt lat="48.70816" lon="1.42362">
        <ele>105</ele>
        <time>2026-06-15T15:49:09.000Z</time>
      </trkpt>
      <trkpt lat="48.70815" lon="1.42377">
        <ele>104.59999847412</ele>
        <time>2026-06-15T15:49:11.000Z</time>
      </trkpt>
      <trkpt lat="48.70818" lon="1.42391">
        <ele>104.19999694824</ele>
        <time>2026-06-15T15:49:13.000Z</time>
      </trkpt>
      <trkpt lat="48.70824" lon="1.4241">
        <ele>103.59999847412</ele>
        <time>2026-06-15T15:49:16.000Z</time>
      </trkpt>
      <trkpt lat="48.70829" lon="1.42427">
        <ele>103.40000152588</ele>
        <time>2026-06-15T15:49:20.000Z</time>
      </trkpt>
      <trkpt lat="48.70836" lon="1.42447">
        <ele>103.19999694824</ele>
        <time>2026-06-15T15:49:26.000Z</time>
      </trkpt>
      <trkpt lat="48.70837" lon="1.42448">
        <ele>103</ele>
        <time>2026-06-15T15:49:27.000Z</time>
      </trkpt>
      <trkpt lat="48.70837" lon="1.42449">
        <ele>102.80000305176</ele>
        <time>2026-06-15T15:49:30.000Z</time>
      </trkpt>
      <trkpt lat="48.7084" lon="1.42453">
        <ele>102.19999694824</ele>
        <time>2026-06-15T15:49:37.000Z</time>
      </trkpt>
    </trkseg>
  </trk>
</gpx>